[[{"header":{"parameterUnit":"m.s-1","parameterCategory":1,"la1":30.6,"la2":29.2853,"lo1":-89.7004,"lo2":-87.6739,"dy":0.0162,"dx":0.0183,"nx":112,"ny":82,"refTime":"2024-07-16T12:00:00:Z","depth":0,"parameterNumber":2,"parameterNumberName":"U-component_of_WINDS"},"data":[0.0,0.0,0.0,0.0,0.0,0.0,0.0,0.0,0.0,0.0,0.0,0.0,0.0,0.0,0.0,0.0,0.0,0.0,0.0,0.0,0.0,0.0,0.0,0.0,0.0,0.0,0.0,0.0,0.0,0.0,0.0,0.0,0.0,0.0,0.0,0.0,0.0,0.0,0.0,0.0,0.0,0.0,0.0,0.0,0.0,0.0,0.0,0.0,0.0,0.0,0.0,0.0,0.0,0.0,0.0,0.0,0.0,0.0,0.0,0.0,0.0,0.0,0.0,0.0,0.0,0.0,0.0,0.0,0.0,0.0,0.0,0.0,0.0,0.0,0.0,0.0,0.0,0.0,0.0,0.0,0.0,0.0,0.0,0.0,0.0,0.0,0.0,0.0,0.0,0.0,-3.5279,-3.6028,-3.5334,-3.4821,-3.4821,-3.4192,-3.3738,-3.357,0.0,0.0,0.0,0.0,0.0,0.0,0.0,0.0,0.0,0.0,0.0,0.0,0.0,0.0,0.0,0.0,0.0,0.0,0.0,0.0,0.0,0.0,0.0,0.0,0.0,0.0,0.0,0.0,0.0,0.0,0.0,0.0,0.0,0.0,0.0,0.0,0.0,0.0,0.0,0.0,0.0,0.0,0.0,0.0,0.0,0.0,0.0,0.0,0.0,0.0,0.0,0.0,0.0,0.0,0.0,0.0,0.0,0.0,0.0,0.0,0.0,0.0,0.0,0.0,0.0,0.0,0.0,0.0,0.0,0.0,0.0,0.0,0.0,0.0,0.0,0.0,0.0,0.0,0.0,0.0,0.0,0.0,0.0,0.0,0.0,0.0,0.0,0.0,0.0,0.0,0.0,0.0,0.0,0.0,0.0,0.0,0.0,0.0,0.0,0.0,0.0,0.0,0.0,0.0,-3.5059,-3.5188,-3.4472,-3.399,-3.399,-3.3862,-3.3419,-3.2492,0.0,0.0,0.0,0.0,0.0,0.0,0.0,0.0,0.0,0.0,0.0,0.0,0.0,0.0,0.0,0.0,0.0,0.0,0.0,0.0,0.0,0.0,0.0,0.0,0.0,0.0,0.0,0.0,0.0,0.0,0.0,0.0,0.0,0.0,0.0,0.0,0.0,0.0,0.0,0.0,0.0,0.0,0.0,0.0,0.0,0.0,0.0,0.0,0.0,0.0,0.0,0.0,0.0,0.0,0.0,0.0,0.0,0.0,0.0,0.0,0.0,0.0,0.0,0.0,0.0,0.0,0.0,0.0,0.0,0.0,0.0,0.0,0.0,0.0,0.0,0.0,0.0,0.0,0.0,0.0,0.0,0.0,0.0,0.0,0.0,0.0,0.0,0.0,0.0,0.0,0.0,0.0,0.0,0.0,0.0,0.0,0.0,0.0,0.0,0.0,0.0,0.0,0.0,-3.4546,-3.4839,-3.4399,-3.4027,-3.3807,-3.3807,-3.3638,-3.2956,-3.1586,-3.0594,0.0,0.0,0.0,0.0,0.0,0.0,0.0,0.0,0.0,0.0,0.0,0.0,0.0,0.0,0.0,0.0,0.0,0.0,0.0,0.0,0.0,0.0,0.0,0.0,0.0,0.0,0.0,0.0,0.0,0.0,0.0,0.0,0.0,0.0,0.0,0.0,0.0,0.0,0.0,0.0,0.0,0.0,0.0,0.0,0.0,0.0,0.0,0.0,0.0,0.0,0.0,0.0,0.0,0.0,0.0,0.0,0.0,0.0,0.0,0.0,0.0,0.0,0.0,0.0,0.0,0.0,0.0,0.0,0.0,0.0,0.0,0.0,0.0,0.0,0.0,0.0,0.0,0.0,0.0,0.0,0.0,0.0,0.0,0.0,0.0,0.0,0.0,0.0,0.0,0.0,0.0,0.0,0.0,0.0,0.0,0.0,0.0,0.0,0.0,0.0,0.0,0.0,-3.5059,-3.4912,-3.3917,-3.3807,-3.3807,-3.3807,-3.333,-3.239,-3.0872,-2.9995,0.0,0.0,0.0,0.0,0.0,0.0,0.0,0.0,0.0,0.0,0.0,0.0,0.0,0.0,0.0,0.0,0.0,0.0,0.0,0.0,0.0,0.0,0.0,0.0,0.0,0.0,0.0,0.0,0.0,0.0,0.0,0.0,0.0,0.0,0.0,0.0,0.0,0.0,0.0,0.0,0.0,0.0,0.0,0.0,0.0,0.0,0.0,0.0,0.0,0.0,0.0,0.0,0.0,0.0,0.0,0.0,0.0,0.0,0.0,0.0,0.0,0.0,0.0,0.0,0.0,0.0,0.0,0.0,0.0,0.0,0.0,0.0,0.0,0.0,0.0,0.0,0.0,0.0,0.0,0.0,0.0,0.0,0.0,0.0,0.0,0.0,0.0,0.0,0.0,0.0,0.0,0.0,0.0,0.0,0.0,0.0,0.0,0.0,0.0,0.0,0.0,0.0,-3.5238,-3.5587,-3.3972,-3.3807,-3.3807,-3.3807,-3.2866,-3.1755,-3.0505,-2.9323,0.0,0.0,0.0,0.0,0.0,0.0,0.0,0.0,0.0,0.0,0.0,0.0,0.0,0.0,0.0,0.0,0.0,0.0,0.0,0.0,0.0,0.0,0.0,0.0,0.0,0.0,0.0,0.0,0.0,0.0,0.0,0.0,0.0,0.0,0.0,0.0,0.0,0.0,0.0,0.0,0.0,0.0,0.0,0.0,0.0,0.0,0.0,0.0,0.0,0.0,0.0,0.0,0.0,0.0,0.0,0.0,0.0,0.0,0.0,0.0,0.0,0.0,0.0,0.0,0.0,0.0,0.0,0.0,0.0,0.0,0.0,0.0,0.0,0.0,0.0,0.0,0.0,0.0,0.0,0.0,0.0,0.0,0.0,0.0,0.0,0.0,0.0,0.0,0.0,0.0,0.0,0.0,0.0,0.0,0.0,0.0,0.0,0.0,0.0,0.0,0.0,0.0,-3.4798,-3.5073,-3.3917,-3.3807,-3.3793,-3.3739,-3.299,-3.1862,-3.0381,0.0,0.0,0.0,0.0,0.0,0.0,0.0,0.0,0.0,0.0,0.0,0.0,0.0,0.0,0.0,0.0,0.0,0.0,0.0,0.0,0.0,0.0,0.0,0.0,0.0,0.0,0.0,0.0,0.0,0.0,0.0,0.0,0.0,0.0,0.0,0.0,0.0,0.0,0.0,0.0,0.0,0.0,0.0,0.0,0.0,0.0,0.0,0.0,0.0,0.0,0.0,0.0,0.0,0.0,0.0,0.0,0.0,0.0,0.0,0.0,0.0,0.0,0.0,0.0,0.0,0.0,0.0,0.0,0.0,0.0,0.0,0.0,0.0,0.0,0.0,0.0,0.0,0.0,0.0,0.0,0.0,0.0,0.0,0.0,0.0,0.0,0.0,0.0,0.0,0.0,0.0,0.0,0.0,0.0,0.0,0.0,0.0,0.0,0.0,0.0,0.0,0.0,-3.3348,-3.4344,-3.4692,-3.3899,-3.378,-3.3712,-3.3555,-3.2568,-3.1399,-3.0084,0.0,0.0,0.0,0.0,0.0,0.0,0.0,0.0,0.0,0.0,0.0,0.0,0.0,0.0,0.0,0.0,0.0,0.0,0.0,0.0,0.0,0.0,0.0,0.0,0.0,0.0,0.0,0.0,0.0,0.0,0.0,0.0,0.0,0.0,0.0,0.0,0.0,0.0,0.0,0.0,0.0,0.0,0.0,0.0,0.0,0.0,0.0,0.0,0.0,0.0,0.0,0.0,0.0,0.0,0.0,0.0,0.0,0.0,0.0,0.0,0.0,0.0,0.0,0.0,0.0,0.0,0.0,0.0,0.0,0.0,0.0,0.0,0.0,0.0,0.0,0.0,0.0,0.0,0.0,0.0,0.0,0.0,0.0,0.0,0.0,0.0,0.0,0.0,0.0,0.0,0.0,0.0,0.0,0.0,0.0,0.0,0.0,0.0,0.0,0.0,0.0,0.0,-3.2601,-3.3995,-3.4692,-3.388,-3.3739,-3.3555,-3.3211,-3.141,-3.0108,0.0,0.0,0.0,0.0,0.0,0.0,0.0,0.0,0.0,0.0,0.0,0.0,0.0,0.0,0.0,0.0,0.0,0.0,0.0,0.0,0.0,0.0,0.0,0.0,0.0,0.0,0.0,0.0,0.0,0.0,0.0,0.0,0.0,0.0,0.0,0.0,0.0,0.0,0.0,0.0,0.0,0.0,0.0,0.0,0.0,0.0,0.0,0.0,0.0,0.0,0.0,0.0,0.0,0.0,0.0,0.0,0.0,0.0,0.0,0.0,0.0,0.0,0.0,0.0,0.0,0.0,0.0,0.0,0.0,0.0,0.0,0.0,0.0,0.0,0.0,0.0,0.0,0.0,0.0,0.0,0.0,0.0,0.0,0.0,0.0,0.0,0.0,0.0,0.0,0.0,0.0,0.0,0.0,0.0,0.0,0.0,0.0,0.0,0.0,0.0,0.0,0.0,0.0,-3.2528,-3.3995,-3.459,-3.3556,-3.3394,-3.2964,-3.2007,-3.11,-3.0052,-2.8829,0.0,0.0,0.0,0.0,0.0,0.0,0.0,0.0,0.0,0.0,0.0,0.0,0.0,0.0,0.0,0.0,0.0,0.0,0.0,0.0,0.0,0.0,0.0,0.0,0.0,0.0,0.0,0.0,0.0,0.0,0.0,0.0,0.0,0.0,0.0,0.0,0.0,0.0,0.0,0.0,0.0,0.0,0.0,0.0,0.0,0.0,0.0,0.0,0.0,0.0,0.0,0.0,0.0,0.0,0.0,0.0,0.0,0.0,0.0,0.0,0.0,0.0,0.0,0.0,0.0,0.0,0.0,0.0,0.0,0.0,0.0,0.0,0.0,0.0,0.0,0.0,0.0,0.0,0.0,0.0,0.0,0.0,0.0,0.0,0.0,0.0,0.0,0.0,0.0,0.0,0.0,0.0,0.0,0.0,0.0,0.0,0.0,0.0,0.0,0.0,0.0,0.0,-3.2063,-3.3396,-3.4011,-3.3327,-3.2787,-3.2117,-3.1189,-3.0313,-2.9316,-2.8236,0.0,0.0,0.0,0.0,0.0,0.0,0.0,0.0,0.0,0.0,0.0,0.0,0.0,0.0,0.0,0.0,0.0,0.0,0.0,0.0,0.0,0.0,0.0,0.0,0.0,0.0,0.0,0.0,0.0,0.0,0.0,0.0,0.0,0.0,0.0,0.0,0.0,0.0,0.0,0.0,0.0,0.0,0.0,0.0,0.0,0.0,0.0,0.0,0.0,0.0,0.0,0.0,0.0,0.0,0.0,0.0,0.0,0.0,0.0,0.0,0.0,0.0,0.0,0.0,0.0,0.0,0.0,0.0,0.0,0.0,0.0,0.0,0.0,0.0,0.0,0.0,0.0,0.0,0.0,0.0,0.0,0.0,0.0,0.0,0.0,0.0,0.0,0.0,0.0,0.0,0.0,0.0,0.0,0.0,0.0,0.0,0.0,0.0,0.0,0.0,0.0,0.0,-3.1218,-3.2218,-3.2925,-3.2892,-3.1889,-3.1031,-3.0491,-2.916,-2.8167,-2.7723,0.0,0.0,0.0,0.0,0.0,0.0,0.0,0.0,0.0,0.0,0.0,0.0,0.0,0.0,0.0,0.0,0.0,0.0,0.0,0.0,0.0,0.0,0.0,0.0,0.0,0.0,0.0,0.0,0.0,0.0,0.0,0.0,0.0,0.0,0.0,0.0,0.0,0.0,0.0,0.0,0.0,0.0,0.0,0.0,0.0,0.0,0.0,0.0,0.0,0.0,0.0,0.0,0.0,0.0,0.0,0.0,0.0,0.0,0.0,0.0,-3.2249,0.0,0.0,0.0,0.0,0.0,0.0,0.0,0.0,0.0,0.0,0.0,0.0,0.0,0.0,0.0,0.0,0.0,0.0,0.0,0.0,0.0,0.0,0.0,0.0,0.0,0.0,0.0,0.0,0.0,0.0,0.0,0.0,0.0,0.0,0.0,0.0,0.0,0.0,0.0,0.0,0.0,-2.9906,-3.0525,-3.082,-3.0554,-3.0202,-2.9589,-2.8665,-2.8185,-2.764,-2.6979,-2.6793,0.0,0.0,0.0,0.0,0.0,0.0,0.0,0.0,0.0,0.0,0.0,0.0,0.0,0.0,0.0,0.0,0.0,0.0,0.0,0.0,0.0,0.0,0.0,0.0,0.0,0.0,0.0,0.0,0.0,0.0,0.0,0.0,0.0,0.0,0.0,0.0,0.0,0.0,0.0,0.0,0.0,0.0,0.0,0.0,0.0,0.0,0.0,0.0,0.0,0.0,0.0,0.0,0.0,0.0,0.0,0.0,0.0,0.0,0.0,0.0,-3.2232,0.0,0.0,0.0,0.0,0.0,0.0,0.0,0.0,0.0,0.0,0.0,0.0,0.0,0.0,0.0,0.0,0.0,0.0,0.0,0.0,0.0,0.0,0.0,0.0,0.0,0.0,0.0,0.0,0.0,0.0,0.0,0.0,0.0,0.0,0.0,0.0,0.0,0.0,0.0,0.0,-2.9798,-2.9968,-2.9935,-2.9722,-2.9177,-2.8579,-2.7946,-2.752,-2.7114,-2.6725,-2.6691,0.0,0.0,0.0,0.0,0.0,0.0,0.0,0.0,0.0,0.0,0.0,0.0,0.0,0.0,0.0,0.0,0.0,0.0,0.0,0.0,0.0,0.0,0.0,0.0,0.0,0.0,0.0,0.0,0.0,0.0,0.0,0.0,0.0,0.0,0.0,0.0,0.0,0.0,0.0,0.0,0.0,0.0,0.0,0.0,0.0,0.0,0.0,0.0,0.0,0.0,0.0,0.0,0.0,-3.3243,-3.3587,-3.4211,-3.339,-3.3371,-3.3985,-3.3481,-3.2785,-3.2008,-3.1892,0.0,0.0,0.0,0.0,0.0,0.0,0.0,0.0,0.0,0.0,0.0,0.0,0.0,0.0,0.0,0.0,0.0,0.0,0.0,0.0,0.0,0.0,0.0,0.0,-3.2978,-3.3792,0.0,0.0,0.0,0.0,0.0,0.0,0.0,0.0,0.0,0.0,0.0,0.0,-2.9631,-2.9388,-2.9176,-2.9108,-2.8305,-2.7725,-2.7621,-2.7046,-2.6691,-2.6691,-2.6691,-2.615,0.0,0.0,0.0,0.0,0.0,0.0,0.0,0.0,0.0,0.0,0.0,0.0,0.0,0.0,0.0,0.0,0.0,0.0,0.0,0.0,0.0,0.0,0.0,0.0,0.0,0.0,0.0,0.0,0.0,0.0,0.0,0.0,-2.8013,-2.7089,0.0,0.0,0.0,0.0,0.0,0.0,0.0,0.0,0.0,0.0,0.0,0.0,0.0,-3.4284,-3.5642,-3.5862,-3.5917,-3.5807,-3.5807,-3.5862,-3.5936,-3.5078,-3.4747,-3.4839,-3.4757,0.0,-3.4472,-3.377,0.0,0.0,0.0,0.0,0.0,0.0,0.0,0.0,0.0,0.0,0.0,0.0,0.0,0.0,0.0,0.0,0.0,0.0,0.0,0.0,0.0,0.0,-3.3019,-3.3608,-3.3921,-3.4233,0.0,-3.374,-3.2879,-3.3465,-3.2483,0.0,0.0,0.0,0.0,0.0,0.0,0.0,-2.7761,-2.7344,-2.708,-2.708,-2.6945,-2.686,-2.6843,-2.6759,-2.6691,-2.6691,-2.6691,-2.6607,-2.642,-2.5981,0.0,0.0,0.0,0.0,0.0,0.0,0.0,0.0,0.0,0.0,0.0,0.0,0.0,0.0,0.0,0.0,0.0,0.0,0.0,0.0,0.0,0.0,0.0,0.0,0.0,0.0,0.0,0.0,0.0,-2.7199,-2.8897,-2.8599,-2.9063,-2.9411,0.0,0.0,0.0,0.0,0.0,0.0,0.0,0.0,0.0,-3.5304,-3.569,-3.6009,-3.6303,-3.6758,-3.6486,-3.5573,-3.5573,-3.533,-3.4871,-3.4504,-3.4325,-3.4325,-3.4325,-3.4582,-3.4968,-3.4619,-3.3788,-3.2669,0.0,0.0,0.0,0.0,-3.0835,-3.1668,-3.1604,-3.194,0.0,-3.2073,0.0,0.0,0.0,0.0,0.0,0.0,0.0,0.0,0.0,0.0,0.0,-3.3438,-3.3766,-3.4303,-3.5025,-3.4567,-3.4113,0.0,-3.4106,-3.3319,-3.1967,0.0,0.0,0.0,0.0,-2.8031,-2.7639,-2.7063,-2.6691,-2.6691,-2.6691,-2.6691,-2.6691,-2.6691,-2.6691,-2.6691,-2.6691,-2.6505,-2.6099,-2.6167,-2.6184,0.0,0.0,0.0,0.0,0.0,0.0,0.0,0.0,0.0,0.0,0.0,0.0,0.0,0.0,0.0,0.0,0.0,0.0,0.0,0.0,0.0,0.0,0.0,0.0,0.0,0.0,0.0,0.0,-2.8893,-2.9471,-2.9661,-3.1499,-3.2311,0.0,0.0,0.0,0.0,0.0,0.0,-3.3765,-3.3617,-3.4525,-3.6758,-3.7264,-3.7309,-3.6909,-3.7309,-3.6762,-3.5334,-3.5114,-3.4582,-3.3807,-3.3807,-3.3807,-3.3807,-3.3807,-3.4137,-3.4711,-3.4931,-3.4527,-3.3807,-3.3807,-3.351,-3.2994,-3.2341,-3.2498,-3.2972,-3.263,-3.2826,-3.3173,-3.2583,0.0,-3.18,-3.0265,0.0,0.0,0.0,0.0,-3.2714,-3.3093,-3.3352,-3.3352,-3.2766,-3.2921,-3.3369,-3.3884,-3.4218,-3.4552,0.0,-3.5013,-3.4408,-3.2409,0.0,0.0,0.0,0.0,-2.8081,-2.7588,-2.7046,-2.6691,-2.6691,-2.6691,-2.6691,-2.6691,-2.6691,-2.6691,-2.6691,-2.6691,-2.6454,-2.5913,-2.6404,-2.6437,-2.5896,0.0,0.0,0.0,0.0,0.0,0.0,0.0,0.0,0.0,0.0,0.0,0.0,0.0,0.0,0.0,0.0,0.0,0.0,0.0,0.0,0.0,0.0,0.0,0.0,0.0,0.0,0.0,0.0,0.0,-3.019,-3.111,0.0,0.0,0.0,0.0,-3.271,-3.3506,-3.4585,-3.607,-3.5526,-3.5885,-3.7412,-3.7489,-3.786,-3.8579,-3.786,-3.707,-3.6211,-3.5389,-3.4582,-3.3807,-3.3807,-3.3807,-3.3807,-3.3807,-3.3825,-3.3917,-3.4674,-3.4527,-3.3807,-3.3807,-3.268,-3.1134,-3.184,-3.2163,-3.2371,-3.309,-3.3153,-3.3043,-3.3751,-3.3455,-3.2576,-3.1076,-3.0679,0.0,0.0,-3.18,-3.2179,-3.3665,-3.2972,-3.1903,-3.1852,-3.1334,-3.0851,-3.0761,-3.1876,-3.3316,0.0,-3.4353,-3.3519,-3.2715,0.0,-3.0823,-2.9344,-2.9014,-2.8417,-2.6928,-2.6708,-2.6691,-2.6691,-2.6691,-2.6691,-2.6691,-2.6691,-2.6691,-2.6691,-2.6691,-2.6674,-2.664,-2.6674,-2.6674,-2.664,-2.5998,0.0,0.0,0.0,0.0,0.0,0.0,0.0,0.0,0.0,0.0,0.0,0.0,0.0,0.0,0.0,0.0,0.0,0.0,0.0,0.0,0.0,0.0,0.0,0.0,0.0,0.0,0.0,0.0,-3.1866,-3.2771,0.0,-3.3319,-3.3771,-3.4123,-3.4244,-3.505,-3.5979,-3.7015,-3.6849,-3.7194,-3.823,-3.8267,-3.8414,-3.8707,-3.7915,-3.7107,-3.6285,-3.5426,-3.4582,-3.3807,-3.3807,-3.3807,-3.3807,-3.3807,-3.3807,-3.3812,-3.3879,-3.3866,-3.3793,-3.355,-3.3063,-3.2434,-3.2279,-3.224,-3.2266,-3.2351,-3.2602,-3.2955,-3.3231,-3.28,-3.2093,-3.1558,-3.1403,-3.1558,-3.23,-3.2162,-3.1921,-3.2472,-3.1852,-3.0955,-3.0437,-3.0092,-2.997,-3.0417,-3.0821,-3.1274,-3.1805,-3.2841,-3.3376,-3.255,-3.2153,-3.1286,-2.9336,-2.9011,-2.8451,-2.6911,-2.6691,-2.6691,-2.6691,-2.6691,-2.6691,-2.6691,-2.6691,-2.6488,-2.6031,-2.5998,-2.5998,-2.5998,-2.5998,-2.6218,-2.6691,-2.6437,-2.6201,0.0,0.0,0.0,0.0,0.0,0.0,0.0,0.0,0.0,0.0,0.0,0.0,0.0,0.0,0.0,0.0,0.0,0.0,0.0,0.0,0.0,0.0,0.0,0.0,0.0,0.0,-3.1182,-3.268,-3.358,-3.4074,-3.4074,-3.4542,-3.4908,-3.5,-3.5536,-3.634,-3.7437,-3.7492,-3.7749,-3.8267,-3.8303,-3.8157,-3.79,-3.7074,-3.6395,-3.5862,-3.5004,-3.4321,-3.3807,-3.3807,-3.3807,-3.3807,-3.3807,-3.3734,-3.3606,-3.3394,-3.3361,-3.3433,-3.3214,-3.3063,-3.2908,-3.2453,-3.2214,-3.2109,-3.1874,-3.211,-3.2524,-3.2524,-3.2369,-3.2127,-3.1869,-3.1972,-3.2162,-3.2162,-3.18,-3.1369,-3.1093,-3.0472,-2.9782,-2.9265,-2.887,-2.8733,-2.9231,-2.9398,-2.9442,-2.9407,-3.1223,-3.2544,-3.1701,-3.1546,-3.099,-2.9264,-2.8773,-2.8129,-2.686,-2.6691,-2.6691,-2.6691,-2.6691,-2.6691,-2.6691,-2.6691,-2.6488,-2.5998,-2.5981,-2.5981,-2.5981,-2.5744,-2.5845,-2.6319,-2.6336,-2.5964,-2.5236,0.0,0.0,0.0,0.0,0.0,0.0,0.0,0.0,0.0,0.0,0.0,0.0,0.0,0.0,0.0,0.0,0.0,0.0,0.0,0.0,0.0,0.0,0.0,-2.9078,-3.0448,-3.1733,-3.2528,-3.333,-3.3807,-3.3807,-3.3825,-3.4174,-3.4949,-3.5041,-3.5738,-3.7382,-3.7456,-3.7456,-3.7456,-3.7456,-3.7088,-3.6303,-3.5445,-3.5004,-3.5004,-3.4192,-3.3807,-3.3807,-3.3807,-3.3788,-3.3775,-3.3775,-3.3578,-3.3291,-3.3258,-3.3078,-3.2779,-3.2779,-3.2586,-3.2301,-3.2283,-3.2073,-3.18,-3.18,-3.18,-3.18,-3.18,-3.2283,-3.2731,-3.2024,-3.2283,-3.2524,-3.1093,-3.0662,-3.0437,-2.9661,-2.8903,-2.8352,-2.8368,-2.7717,-2.7086,-2.7007,-2.7504,-2.7929,-2.7791,-2.9583,-3.0869,-3.0192,-3.0074,-2.982,-2.9077,-2.8298,0.0,-2.6793,-2.6691,-2.6691,-2.6691,-2.6691,-2.6691,-2.6691,-2.6691,-2.6691,-2.6657,-2.6657,-2.6657,-2.6657,-2.5981,-2.5609,-2.5626,-2.5626,-2.5287,-2.4609,0.0,0.0,0.0,0.0,0.0,0.0,0.0,0.0,0.0,0.0,0.0,0.0,0.0,0.0,0.0,0.0,0.0,0.0,0.0,0.0,0.0,-2.8918,-3.0081,-3.065,-3.1623,-3.2577,-3.3366,-3.3678,-3.3807,-3.3807,-3.4325,-3.4766,-3.4986,-3.5591,-3.6138,-3.6611,-3.6615,-3.6615,-3.6615,-3.6615,-3.6505,-3.6303,-3.5445,-3.5004,-3.5004,-3.4192,-3.3807,-3.3807,-3.3807,-3.3666,-3.3437,-3.3437,-3.3243,-3.2905,-3.2685,-3.252,-3.2437,-3.2437,-3.2369,-3.2266,-3.202,-3.1874,-3.18,-3.18,-3.18,-3.18,-3.18,-3.1938,-3.2059,-3.1852,-3.1558,-3.1214,-3.0817,-2.9676,-2.8612,-2.868,-2.7945,-2.7214,-2.7411,-2.7242,-2.7007,-2.6925,-2.6995,-2.7046,-2.6996,-2.7943,-2.8873,-2.9247,-2.9314,-2.9025,-2.8264,-2.7942,0.0,-2.6793,-2.6691,-2.6691,-2.6691,-2.6691,-2.6691,-2.6691,-2.6691,-2.6471,-2.5947,-2.5896,-2.5896,-2.5896,-2.571,-2.5862,-2.6387,-2.6404,-2.6556,0.0,0.0,0.0,0.0,0.0,0.0,0.0,0.0,0.0,0.0,0.0,0.0,0.0,0.0,0.0,0.0,0.0,0.0,0.0,0.0,0.0,0.0,-2.9861,-3.1091,-3.2228,-3.2816,-3.3293,-3.3733,-3.3807,-3.3807,-3.3807,-3.4215,-3.4491,-3.4491,-3.4963,-3.5404,-3.5752,-3.5771,-3.5771,-3.5771,-3.5771,-3.5587,-3.5257,-3.4747,-3.4491,-3.4491,-3.3886,-3.3578,-3.3597,-3.3451,-3.3273,0.0,-3.3093,-3.2908,-3.2569,-3.2369,-3.2214,0.0,0.0,0.0,0.0,0.0,-3.1593,-3.1334,-3.1334,-3.1334,-3.1334,-3.1334,-3.1541,-3.18,-3.18,-3.1282,-3.0609,-3.0123,-2.8935,-2.7741,-2.7504,-2.691,-2.6453,-2.6607,-2.6556,-2.6452,-2.64,-2.6279,-2.621,-2.621,0.0,0.0,-2.7459,-2.8066,-2.8349,-2.7874,-2.7536,-2.7182,-2.6759,-2.6691,-2.6691,-2.6691,-2.6691,-2.6691,-2.6691,-2.6691,0.0,0.0,0.0,-2.5864,-2.5363,-2.5346,0.0,0.0,0.0,0.0,0.0,0.0,0.0,0.0,-2.9583,-3.0751,0.0,0.0,0.0,0.0,0.0,0.0,0.0,0.0,0.0,0.0,0.0,0.0,0.0,0.0,0.0,0.0,-3.0742,-3.1801,-3.3311,-3.3532,-3.355,-3.3642,-3.366,-3.366,-3.366,-3.366,-3.3697,-3.3788,-3.3715,-3.4027,-3.4821,0.0,0.0,0.0,0.0,-3.4509,-3.3807,-3.3807,-3.3738,-3.362,-3.3352,-3.314,-3.299,-3.2806,-3.2686,-3.2622,-3.2622,-3.2429,-3.2109,-3.2021,-3.1812,-3.1558,-3.1731,-3.1748,-3.1679,-3.1679,-3.1196,0.0,-3.0558,0.0,0.0,-3.0662,-3.1109,-3.1607,-3.1661,-3.1126,-3.0261,-2.917,-2.8247,-2.7347,-2.6359,-2.5997,-2.5906,-2.5959,-2.5832,-2.5701,-2.5666,-2.5575,-2.5503,-2.5503,-2.5503,-2.5503,-2.5503,-2.6634,-2.7532,-2.7532,-2.6994,-2.6573,-2.6641,-2.6641,-2.6657,-2.6691,0.0,0.0,-2.6691,-2.6657,-2.6657,-2.6691,-2.6691,-2.6219,-2.5159,-2.5125,-2.5108,-2.5056,-2.6133,-2.7078,-2.7872,-2.9323,-3.0085,-3.0226,-2.9533,-3.0683,0.0,0.0,0.0,0.0,0.0,0.0,0.0,0.0,0.0,0.0,0.0,0.0,0.0,0.0,0.0,-2.9007,-2.9916,-3.076,-3.1733,-3.1856,-3.21,-3.2748,-3.2821,-3.2821,-3.2821,-3.2821,-3.3096,-3.3752,-3.3201,-3.317,-3.399,-3.4027,-3.4027,-3.4027,-3.4027,-3.3972,-3.3807,-3.3807,-3.3369,-3.2524,0.0,0.0,-3.107,-3.1877,-3.1974,-3.1521,-3.1521,-3.1304,-3.0976,-3.03,-3.0007,-3.0075,-3.1317,-3.1438,-3.0903,-3.0903,-3.0403,-2.973,-2.973,-2.973,-2.9834,-3.0507,-3.0548,-3.0411,-3.0796,-3.0137,0.0,-2.8266,-2.7225,-2.6304,-2.6082,-2.5687,-2.5406,-2.5684,-2.5738,-2.5666,-2.5556,-2.5521,-2.5503,-2.5503,-2.5503,-2.5503,-2.5503,-2.5747,-2.5938,-2.5938,-2.5807,-2.5854,-2.6175,-2.621,-2.6333,-2.6674,-2.6691,-2.6691,-2.6691,-2.6401,-2.635,-2.6674,-2.6691,-2.6471,-2.5906,-2.5889,-2.573,-2.5403,-2.614,-2.7104,-2.8296,-2.914,-3.0048,-3.097,-3.0835,-3.1413,0.0,0.0,0.0,0.0,0.0,0.0,0.0,0.0,0.0,0.0,0.0,-2.4646,-2.6129,0.0,-2.7834,-2.9186,-2.985,-3.0485,-3.1286,-3.1048,-3.1091,-3.1898,-3.2008,-3.2008,-3.2008,-3.2008,-3.2173,-3.2559,-3.2228,-3.2173,-3.2577,-3.2981,-3.3201,-3.3201,-3.3587,-3.3807,-3.3807,-3.3403,-3.2866,-3.2204,-3.1897,-3.1315,-3.0505,-3.0886,-3.088,-3.0599,-3.0416,-3.0248,-3.0058,-2.9679,-2.9506,-2.9592,-3.0351,-3.042,-3.0093,-3.0093,-2.961,-2.8954,-2.8954,-2.8954,-2.9023,-2.942,-2.9537,-2.9538,-2.9791,-2.9012,-2.7922,-2.7317,-2.6449,-2.5631,-2.5384,-2.5091,-2.4875,-2.5068,-2.5052,-2.4977,-2.4902,-2.4902,-2.4902,-2.4902,-2.4902,-2.4902,-2.4902,-2.4902,-2.504,-2.5446,-2.5503,-2.5577,-2.5781,-2.5799,-2.5872,-2.607,-2.6104,-2.6104,-2.6104,-2.5908,-2.5962,-2.6367,-2.6016,-2.5799,-2.5799,-2.5615,-2.5408,-2.5198,-2.6453,-2.7416,-2.8066,-2.9336,-3.0251,-3.0858,-3.1075,-3.1616,0.0,0.0,0.0,0.0,0.0,0.0,0.0,-2.1575,-2.2181,-2.3526,-2.3979,-2.4624,-2.6293,-2.7009,-2.7808,-2.9318,-2.9783,-3.0191,-3.0834,-3.0375,-3.021,-3.0852,-3.1072,-3.1176,-3.1176,-3.1176,-3.1231,-3.1397,-3.1268,-3.125,-3.1397,-3.2008,-3.2375,-3.2375,-3.2999,-3.3303,-3.3263,-3.2609,-3.2028,-3.1546,-3.091,-3.0331,-2.9887,-2.9798,-2.9726,-2.968,-2.94,-2.9213,-2.9075,-2.9075,-2.9075,-2.9075,-2.9075,-2.9075,-2.9092,-2.923,-2.8816,-2.8178,-2.8178,-2.8146,-2.8097,-2.8234,-2.8406,-2.854,-2.8631,-2.7922,-2.6963,-2.6432,-2.5841,-2.525,-2.4731,-2.4523,-2.4457,-2.4457,-2.438,-2.4302,-2.4302,-2.4302,-2.4302,-2.4302,-2.4302,-2.4302,-2.4302,-2.4302,-2.4513,-2.516,-2.5275,-2.5294,-2.537,-2.5389,-2.5408,-2.5503,-2.5503,-2.5465,-2.5389,-2.5465,-2.5615,-2.5854,-2.5332,-2.5137,-2.537,-2.5063,-2.4863,-2.4784,-2.6393,-2.729,-2.7372,-2.9243,-3.022,-3.0319,-3.0928,-3.1532,-2.0778,-2.1071,-2.1293,-2.1227,-2.1647,-2.2087,0.0,-2.2327,-2.2802,-2.3629,-2.3815,-2.4407,-2.6265,-2.6845,-2.7415,-2.8545,-2.8961,-2.917,-2.9262,-2.9189,-2.917,-2.9262,-2.9898,-3.0338,-3.0338,-3.0338,-3.0632,-3.136,-3.0742,-3.065,-3.136,-3.1488,-3.1531,-3.1531,-3.1623,-3.1539,-3.1315,-3.1211,-3.0534,-2.9268,-2.9415,-2.8853,-2.77,-2.8543,-2.8811,-2.8573,-2.854,-2.8144,-2.754,-2.754,-2.754,-2.754,-2.754,-2.754,-2.7627,-2.8282,-2.8058,-2.742,-2.742,-2.7192,-2.6995,-2.7657,-2.7394,-2.6948,-2.7296,-2.7076,-2.6494,-2.575,-2.5375,-2.5114,-2.4645,-2.4421,-2.4317,-2.4317,-2.4302,-2.4302,-2.4302,-2.4302,-2.4302,-2.4302,-2.4302,-2.4302,-2.4302,-2.4302,-2.4323,-2.4426,-2.4431,-2.4574,-2.4922,-2.4962,-2.5102,-2.5465,-2.5503,-2.5351,-2.5001,-2.5294,-2.537,-2.5044,-2.5294,-2.5294,-2.4981,-2.4922,-2.4739,-2.4385,-2.5168,-2.5774,-2.6175,-2.8075,-2.9206,-2.9626,-3.0693,-3.1241,-2.0618,-2.0893,-2.1006,-2.1006,-2.1355,-2.1735,-2.1926,-2.2198,-2.2665,-2.3605,-2.3802,-2.4309,-2.5993,-2.6557,-2.7053,-2.7931,-2.8456,-2.8767,-2.8767,-2.8905,-2.9005,-2.9005,-2.9299,-2.95,-2.95,-2.95,-2.9629,-2.9989,-2.9684,-2.9647,-2.9989,-3.0448,-3.0705,-3.0705,-3.1158,-3.1271,-3.0989,-3.0541,-2.9835,-2.8901,-2.8703,-2.823,-2.7542,-2.7975,-2.7766,-2.7092,-2.7558,-2.7316,-2.6644,-2.7109,-2.7299,-2.7299,-2.7299,-2.7299,-2.7333,-2.7644,-2.7558,-2.7299,-2.7299,-2.704,-2.6742,-2.7063,-2.6586,-2.5934,-2.6108,-2.5818,-2.5353,-2.4989,-2.4831,-2.4731,-2.4462,-2.4338,-2.4302,-2.4302,-2.4302,-2.4302,-2.4302,-2.4302,-2.4302,-2.4302,-2.4302,-2.4302,-2.4302,-2.4302,-2.4302,-2.4302,-2.4302,-2.4364,-2.4533,-2.4553,-2.4634,-2.4784,-2.4799,-2.4739,-2.4574,-2.4699,-2.4839,-2.4902,-2.4843,-2.4823,-2.4902,-2.4679,-2.4472,-2.4302,-2.4958,-2.5404,-2.5601,-2.7476,-2.8635,-2.9128,-3.0264,-3.0938,-2.0272,-2.0526,-2.0573,-2.0747,-2.1055,-2.1356,-2.1617,-2.1882,-2.2333,-2.3175,-2.3364,-2.3804,-2.52,-2.592,-2.6518,-2.7277,-2.7995,-2.8495,-2.8589,-2.8767,-2.8917,-2.8994,-2.9005,-2.9005,-2.9005,-2.9005,-2.9005,-2.9005,-2.9005,-2.9005,-2.9005,-2.9537,-2.9843,-2.9765,-3.0314,-3.0454,-3.0088,-2.9503,-2.8966,-2.845,-2.8065,-2.7771,-2.7585,-2.7585,-2.7046,-2.6128,-2.6713,-2.6523,-2.5835,-2.6437,-2.6661,-2.6661,-2.6661,-2.6782,-2.6971,-2.6971,-2.7093,-2.7233,-2.7233,-2.6891,-2.6453,-2.6453,-2.587,-2.5192,-2.5192,-2.4914,-2.4605,-2.4518,-2.4498,-2.4477,-2.4338,-2.4302,-2.4302,-2.4302,-2.4302,-2.4302,-2.4302,-2.4302,-2.4302,-2.4302,-2.4302,-2.4302,-2.4302,-2.4302,-2.4302,-2.4302,-2.4302,-2.4302,-2.4302,-2.4302,-2.4302,-2.4302,-2.4302,-2.4302,-2.4302,-2.4302,-2.441,-2.4719,-2.4451,-2.4431,-2.4719,-2.4451,-2.4302,-2.4302,-2.4795,-2.5019,-2.5019,-2.67,-2.7811,-2.8361,-2.9501,-3.0377,-1.9625,-1.983,-1.9988,-2.0636,-2.1055,-2.1293,-2.1309,-2.1555,-2.1899,-2.2184,-2.224,-2.2575,-2.366,-2.4735,-2.5692,-2.65,-2.7475,-2.8224,-2.8551,-2.8601,-2.8706,-2.897,-2.9005,-2.9005,-2.9005,-2.9005,-2.9005,-2.9005,-2.9005,-2.9005,-2.9005,-2.9023,-2.8918,-2.8668,-2.8668,-2.8398,-2.7815,-2.7766,-2.7619,-2.7348,-2.733,-2.7313,-2.7297,-2.7297,-2.6866,-2.6094,-2.6143,-2.573,-2.504,-2.5057,-2.5074,-2.5074,-2.5074,-2.5505,-2.6128,-2.6128,-2.6547,-2.7119,-2.7119,-2.6539,-2.5815,-2.5815,-2.5288,-2.463,-2.463,-2.4609,-2.4605,-2.4518,-2.4498,-2.4477,-2.4338,-2.4302,-2.4302,-2.4302,-2.4302,-2.4302,-2.4302,-2.4302,-2.4302,-2.4302,-2.4302,-2.4302,-2.4302,-2.4302,-2.4302,-2.4302,-2.4302,-2.4302,-2.4302,-2.4302,-2.4302,-2.4302,-2.4302,-2.4302,-2.4302,-2.4302,-2.4302,-2.4323,-2.4302,-2.4302,-2.4323,-2.4302,-2.4302,-2.4302,-2.4333,-2.4333,-2.4333,-2.5492,-2.6435,-2.7179,-2.8328,-2.9447,-1.9009,-1.9072,-1.912,-1.9356,-1.948,-1.9632,-1.9853,-2.0342,-2.0832,-2.113,-2.1743,-2.2471,-2.3366,-2.4408,-2.5371,-2.6135,-2.7148,-2.7869,-2.7986,-2.8339,-2.8626,-2.8731,-2.8893,-2.9005,-2.9005,-2.9005,0.0,-2.9005,-2.9005,-2.9005,-2.9005,-2.9005,-2.8881,-2.8601,-2.8601,-2.8313,-2.7716,-2.7701,-2.7554,-2.7282,-2.6764,-2.6782,-2.728,-2.6247,-2.5626,-2.5367,-2.5367,-2.4936,-2.425,-2.4781,-2.5005,-2.5005,-2.5005,-2.516,-2.5422,-2.5876,-2.574,-2.5483,-2.6678,-2.6691,-2.6156,-2.5905,-2.5403,-2.489,-2.4605,-2.4482,-2.4405,-2.438,-2.438,-2.4359,-2.4302,-2.4302,-2.4302,-2.4302,-2.4302,-2.4302,-2.4302,-2.4302,-2.4302,-2.4302,-2.4302,-2.4302,-2.4302,-2.4302,-2.4302,-2.4302,-2.4302,-2.4302,-2.4302,-2.4302,-2.4302,-2.4302,-2.4302,-2.4302,-2.4302,-2.4302,-2.4302,-2.4302,-2.4302,-2.4302,-2.4302,-2.4302,-2.4302,-2.4302,-2.4302,-2.4302,-2.4302,-2.5128,-2.5816,-2.6387,-2.7541,-2.8702,-1.8148,-1.8272,-1.8394,-1.863,-1.8708,-1.8768,-1.8968,-1.956,-2.0148,-2.0469,-2.1349,-2.2247,-2.2866,-2.3856,-2.4818,-2.5577,-2.6514,-2.7253,-2.7651,-2.8124,-2.8469,-2.8589,-2.8846,-2.9005,-2.9005,-2.9005,0.0,-2.9005,-2.9005,-2.9005,-2.9005,-2.8905,-2.8731,-2.843,-2.8326,-2.8041,-2.7554,-2.7554,-2.7326,-2.6868,-2.6644,-2.6506,-2.6454,-2.573,-2.5077,-2.456,-2.456,-2.4129,-2.3457,-2.3929,-2.4135,-2.4153,-2.4124,-2.4279,-2.4586,-2.5023,-2.4923,-2.4756,-2.5992,-2.6051,-2.5494,-2.5204,-2.4984,-2.4771,-2.4503,-2.438,-2.4302,-2.4302,-2.4302,-2.4302,-2.4302,-2.4302,-2.4302,-2.4302,-2.4302,-2.4302,-2.4302,-2.4302,-2.4302,-2.4302,-2.4302,-2.4302,-2.4302,-2.4302,-2.4302,-2.4302,-2.4302,-2.4302,-2.4302,-2.4302,-2.4302,-2.4302,-2.4302,-2.4302,-2.4302,-2.4302,-2.4302,-2.4302,-2.4302,-2.4302,-2.4302,-2.4302,-2.4302,-2.4302,-2.4302,-2.4302,-2.4302,-2.488,-2.5436,-2.5982,-2.6852,-2.7911,-1.7086,-1.7358,-1.7671,-1.83,-1.8489,-1.8521,-1.8568,-1.9183,-1.9813,-2.0117,-2.1031,-2.1884,-2.2122,-2.3109,-2.4112,-2.4885,-2.5661,-2.6509,-2.7552,-2.794,-2.8224,-2.8563,-2.8846,-2.9005,-2.9005,-2.9005,-2.9005,-2.9005,0.0,-2.9005,-2.9005,-2.8755,-2.8456,-2.8116,-2.784,-2.7585,-2.7297,-2.7247,-2.6885,-2.6178,-2.6816,-2.6402,-2.5074,-2.5661,-2.5146,-2.3802,-2.3767,-2.334,-2.2685,-2.2636,-2.2592,-2.2579,-2.2511,-2.2969,-2.361,-2.3662,-2.4093,-2.472,-2.4944,-2.4585,-2.4002,-2.3887,-2.4049,-2.4277,-2.4256,-2.4271,-2.4302,-2.4302,-2.4302,-2.4302,-2.4302,-2.4302,-2.4302,-2.4302,-2.4302,-2.4302,-2.4302,-2.4302,-2.4302,-2.4302,-2.4302,-2.4302,-2.4302,-2.4302,-2.4302,-2.4302,-2.4302,-2.4302,-2.4302,-2.4302,-2.4302,-2.4302,-2.4302,-2.4302,-2.4302,-2.4302,-2.4302,-2.4302,-2.4302,-2.4302,-2.4302,-2.4302,-2.4302,-2.4302,-2.4302,-2.4302,-2.4302,-2.4679,-2.521,-2.582,-2.625,-2.7088,-1.5967,-1.5552,-1.5082,-1.5352,-1.5681,-1.6124,-1.6831,-1.7905,-1.8967,-1.9734,-2.0913,-2.1811,-2.1899,-2.3425,-2.4764,-2.4971,-2.6126,-2.7165,-2.7622,-2.794,-2.8224,-2.8563,-2.8846,-2.9005,-2.9005,-2.9005,-2.9005,0.0,-2.9005,-2.9005,-2.9005,-2.8947,-2.8651,-2.8129,-2.8034,-2.7771,-2.7297,-2.6713,-2.6609,-2.6971,-2.5422,-2.5094,-2.5781,-2.425,-2.3646,-2.3767,-2.3216,-2.2844,-2.2619,-2.2623,-2.2582,-2.2511,-2.2515,-2.2476,-2.2495,-2.2977,-2.2687,-2.2067,-2.257,-2.3322,-2.3982,-2.3412,-2.3578,-2.3951,-2.3648,-2.3902,-2.4302,-2.4302,-2.4302,-2.4302,-2.4302,-2.4302,-2.4302,-2.4302,-2.4302,-2.4302,-2.4302,-2.4302,-2.4302,-2.4302,-2.4302,-2.4302,-2.4302,-2.4302,-2.4302,-2.4302,-2.4302,-2.4302,-2.4302,-2.4302,-2.4302,-2.4302,-2.4302,-2.4302,-2.4302,-2.4302,-2.4302,-2.4302,-2.4302,-2.4302,-2.4302,-2.4302,-2.4302,-2.4302,-2.4302,-2.4302,-2.4302,-2.4405,-2.4544,-2.4715,-2.5431,-2.6224,-1.5009,-1.4614,-1.431,-1.4307,-1.4795,-1.5477,-1.6293,-1.7557,-1.8824,-1.9779,-2.0959,-2.184,-2.1955,-2.3334,-2.4591,-2.4936,-2.6006,-2.6991,-2.7604,-2.794,-2.8224,-2.8563,-2.8846,-2.9005,-2.9005,-2.9005,-2.9005,0.0,-2.9005,-2.9005,-2.9005,-2.8893,-2.8614,-2.8116,-2.7996,-2.7555,-2.6782,-2.6333,-2.599,-2.5747,-2.4784,-2.4422,-2.4577,-2.3612,-2.3233,-2.3285,0.0,-2.2672,-2.2632,-2.2605,-2.2569,-2.2501,-2.2474,-2.2245,-2.2005,-2.238,-2.196,-2.1262,-2.1438,-2.2037,-2.2655,-2.2352,-2.2682,-2.3214,-2.3288,-2.3563,-2.3933,-2.4225,-2.4302,-2.4302,-2.4302,-2.4302,-2.4302,-2.4302,-2.4302,-2.4302,-2.4302,-2.4302,-2.4302,-2.4302,-2.4302,-2.4302,-2.4302,-2.4302,-2.4302,-2.4302,-2.4302,-2.4302,-2.4302,-2.4302,-2.4302,-2.4302,-2.4302,-2.4302,-2.4302,-2.4302,-2.4302,-2.4302,-2.4302,-2.4302,-2.4302,-2.4302,-2.4302,-2.4302,-2.4302,-2.4302,-2.4302,-2.4472,-2.4574,-2.4594,-2.5198,-2.5713,-1.4172,-1.4061,-1.419,-1.414,-1.4765,-1.5612,-1.6507,-1.772,-1.8974,-2.0116,-2.1128,-2.1884,-2.215,-2.3075,-2.406,-2.4867,-2.5626,-2.6489,-2.7593,-2.7936,-2.8237,-2.8601,-2.8858,-2.8968,-2.8858,-2.884,-2.8803,-2.8693,-2.8675,-2.8767,-2.8987,-2.8688,-2.8283,-2.7812,-2.7497,-2.6897,-2.5971,-2.5853,-2.518,-2.3974,-2.4456,-2.4057,-2.2854,-2.3422,-2.3319,-2.2699,0.0,0.0,-2.2672,-2.2619,-2.2569,-2.2501,-2.2432,-2.2192,-2.1823,-2.1823,-2.163,-2.1308,-2.1007,-2.0877,-2.0857,-2.1107,-2.1627,-2.2289,-2.2855,-2.3163,-2.3425,-2.401,-2.4241,-2.4302,-2.4302,-2.4302,-2.4302,-2.4302,-2.4302,-2.4302,-2.4302,-2.4302,-2.4302,-2.4302,-2.4302,-2.4302,-2.4302,-2.4302,-2.4302,-2.4302,-2.4302,-2.4302,-2.4302,-2.4302,-2.4302,-2.4302,-2.4302,-2.4302,-2.4302,-2.4302,-2.4302,-2.4302,-2.4302,-2.4302,-2.4302,-2.4302,-2.4302,-2.4302,-2.4302,-2.4302,-2.4302,-2.4639,-2.4803,-2.4823,-2.5237,-2.5427,-1.3582,-1.284,-1.2369,-1.3042,-1.3757,-1.4809,-1.6805,-1.7877,-1.895,-2.0747,-2.1473,-2.1884,-2.215,-2.3075,-2.406,-2.4867,-2.5626,-2.6561,-2.7844,-2.8075,-2.8321,-2.887,-2.8964,-2.873,-2.8062,-2.8007,-2.7732,0.0,-2.7024,-2.7592,-2.8932,-2.8329,-2.7397,-2.6241,-2.5722,-2.5374,-2.5195,-2.4525,-2.4405,-2.4781,-2.3629,-2.3285,-2.3595,-2.3112,-2.2819,-2.2699,-2.2699,0.0,-2.2623,-2.2592,-2.2569,-2.2501,-2.2487,-2.2075,-2.1494,-2.1494,-2.1071,-2.051,-2.0443,-2.0409,-2.0423,-2.0512,-2.0969,-2.1504,-2.1612,-2.2409,-2.3317,-2.344,-2.3871,-2.4302,-2.4302,-2.4302,-2.4302,-2.4302,-2.4302,-2.4302,-2.4302,-2.4302,-2.4302,-2.4302,-2.4302,-2.4302,-2.4302,-2.4302,-2.4302,-2.4302,-2.4302,-2.4302,-2.4302,-2.4302,-2.4302,-2.4302,-2.4302,-2.4302,-2.4302,-2.4302,-2.4302,-2.4302,-2.4302,-2.4302,-2.4302,-2.4302,-2.4302,-2.4302,-2.4302,-2.4302,-2.4302,-2.4385,-2.439,-2.441,-2.4803,-2.4985,-1.295,-1.2384,-1.226,-1.2845,-1.3659,-1.477,-1.6573,-1.7934,-1.9228,-2.0693,-2.1527,-2.2113,-2.2392,-2.3189,-2.3939,-2.4301,-2.5008,-2.5999,-2.7335,-2.754,-2.7736,-2.8317,-2.8374,-2.8062,-2.7255,-2.7181,-2.7016,-2.662,-2.6602,-2.6932,-2.7703,-2.7111,-2.6465,-2.5818,-2.5282,-2.4798,-2.437,-2.3991,-2.3802,-2.3784,-2.3043,-2.2888,-2.3216,-2.2854,-2.2699,-2.2699,-2.2659,0.0,-2.2609,-2.2569,-2.2515,-2.2446,-2.2446,-2.2003,-2.1339,-2.1339,-2.0893,-2.0304,-2.0304,-2.0304,-2.0304,-2.0339,-2.0784,-2.1365,-2.172,-2.2501,-2.3363,-2.3717,-2.4056,-2.4302,-2.4302,-2.4302,-2.4302,-2.4302,-2.4302,-2.4302,-2.4302,-2.4302,-2.4302,-2.4302,-2.4302,-2.4302,-2.4302,-2.4302,-2.4302,-2.4302,-2.4302,-2.4302,-2.4302,-2.4302,-2.4302,-2.4302,-2.4302,-2.4302,-2.4302,-2.4302,-2.4302,-2.4302,-2.4302,-2.4302,-2.4302,-2.4302,-2.4302,-2.4302,-2.4302,-2.4302,-2.4302,-2.4302,-2.4302,-2.4302,-2.4492,-2.4699,-1.27,-1.2453,-1.2749,-1.3176,-1.393,-1.4995,-1.6499,-1.7944,-1.9279,-2.0456,-2.1371,-2.2119,-2.2611,-2.3181,-2.3629,-2.377,-2.4513,-2.5527,-2.6827,-2.7194,-2.7518,-2.7999,-2.7897,-2.7475,-2.6686,-2.6447,-2.6264,-2.6098,-2.6038,-2.608,-2.6245,-2.5805,-2.5437,-2.5232,-2.4766,-2.4198,-2.3578,-2.356,-2.3267,-2.2699,-2.2699,-2.2699,-2.2699,-2.2699,-2.2699,-2.2699,-2.2646,0.0,0.0,-2.2555,-2.2487,-2.2432,-2.2419,-2.1957,-2.1323,-2.1323,-2.0877,-2.0304,-2.0304,-2.0304,-2.0304,-2.0304,-2.0657,-2.1211,-2.1889,-2.2548,-2.3225,-2.3902,-2.4194,-2.4302,-2.4302,-2.4194,-2.4087,-2.4087,-2.4087,-2.4133,-2.4271,-2.4302,-2.4302,-2.4302,-2.4302,-2.4302,-2.4302,-2.4302,-2.4302,-2.4302,-2.4302,-2.4302,-2.4302,-2.4302,-2.4302,-2.4302,-2.4302,-2.4241,-2.4102,-2.4225,-2.4241,-2.4102,-2.4225,-2.4302,-2.4302,-2.4302,-2.4302,-2.4302,-2.4302,-2.4302,-2.4302,-2.4302,-2.4302,-2.4302,-2.4302,-2.4472,-1.3452,-1.3109,-1.3297,-1.4008,-1.4394,-1.5122,-1.7146,-1.7903,-1.8681,-2.0356,-2.0968,-2.1511,-2.2508,-2.275,-2.3026,-2.3698,-2.4673,-2.5755,-2.6853,-2.7846,-2.8554,-2.8842,-2.8246,-2.7475,-2.6686,-2.5944,-2.5209,-2.4483,-2.4194,-2.4381,-2.5114,-2.4877,-2.4295,-2.3385,-2.3063,-2.2871,-2.2802,-2.2802,-2.2767,-2.2699,-2.2699,-2.2699,-2.2699,-2.2699,-2.2699,-2.2699,-2.2699,0.0,0.0,-2.2619,-2.2596,-2.2582,-2.2515,-2.2046,-2.1386,-2.1386,-2.0926,-2.0304,-2.0304,-2.0304,-2.0304,-2.0304,-2.035,-2.052,-2.118,-2.1858,-2.2517,-2.3194,-2.3825,-2.4302,-2.4302,-2.3856,-2.3394,-2.3394,-2.3394,-2.3563,-2.4179,-2.4302,-2.4302,-2.4302,-2.4302,-2.4302,-2.4302,-2.4302,-2.4302,-2.4302,-2.4302,-2.4302,-2.4302,-2.4302,-2.4302,-2.4302,-2.4302,-2.4056,-2.344,-2.3948,-2.404,-2.3425,-2.3963,-2.4302,-2.4302,-2.4302,-2.4302,-2.4302,-2.4302,-2.4302,-2.4302,-2.4302,-2.4302,-2.4302,-2.4302,-2.4323,-1.4012,-1.386,-1.4124,-1.4705,-1.5324,-1.606,-1.7058,-1.8524,-1.9786,-2.0263,-2.1257,-2.2188,-2.2616,-2.2699,-2.2802,-2.3095,-2.3624,-2.4564,-2.6111,-2.6808,-2.7427,-2.8194,-2.7567,-2.6759,-2.5962,-2.5595,-2.5196,-2.4723,-2.4138,0.0,-2.3851,-2.3762,-2.3511,-2.3107,-2.2842,-2.2699,-2.2699,-2.2699,-2.2699,-2.2699,-2.2699,-2.2699,-2.2699,-2.2699,-2.2699,-2.2699,-2.2659,0.0,0.0,-2.2569,-2.2515,-2.246,-2.2231,-2.1809,-2.1308,-2.1119,-2.0728,-2.0304,-2.0304,-2.0304,-2.0304,-2.0304,-2.0564,-2.1026,-2.1704,-2.2363,-2.304,-2.3717,-2.4102,-2.4302,-2.4302,-2.381,-2.3194,-2.2794,-2.2686,-2.2871,-2.3548,-2.3702,-2.3825,-2.4225,-2.4302,-2.4302,-2.4302,-2.4302,-2.4302,-2.4302,-2.4302,-2.4302,-2.4302,-2.3948,-2.3702,-2.3702,-2.4071,-2.4025,-2.3363,-2.3917,-2.401,-2.3332,-2.3933,-2.4302,-2.4302,-2.4302,-2.4302,-2.4302,-2.4302,-2.4302,-2.4302,-2.4302,-2.4302,-2.4302,-2.4302,-2.4426,-1.5047,-1.4878,-1.5127,-1.5487,-1.6088,-1.6757,-1.75,-1.9071,-2.0377,-2.042,-2.146,-2.244,-2.2664,-2.2699,-2.2725,0.0,-2.3438,-2.4406,-2.5787,-2.659,-2.7308,-2.8058,-2.7438,-2.6631,-2.5833,-2.545,-2.5181,-2.5001,-2.4334,0.0,-2.3132,-2.3015,-2.2982,-2.2982,-2.2803,-2.2699,-2.2699,-2.2699,-2.2699,-2.2699,-2.2699,-2.2699,-2.2699,-2.2699,-2.2699,-2.2699,-2.2619,0.0,0.0,-2.2515,-2.2446,-2.2363,-2.2135,-2.172,-2.1276,-2.1023,-2.0663,-2.0304,-2.0304,-2.0304,-2.0335,-2.0518,-2.0919,-2.1458,-2.2317,-2.2917,-2.344,-2.4117,-2.4164,-2.3917,-2.3517,-2.3055,-2.2578,-2.212,-2.2012,-2.2197,-2.2855,-2.2994,-2.3148,-2.3625,-2.3871,-2.401,-2.401,-2.4179,-2.4302,-2.4302,-2.4302,-2.4241,-2.4025,-2.3594,-2.3225,-2.3025,-2.3594,-2.3733,-2.3055,-2.3625,-2.381,-2.3332,-2.3933,-2.4302,-2.4302,-2.4302,-2.4302,-2.4302,-2.4302,-2.4302,-2.4302,-2.4302,-2.4302,-2.4302,-2.4302,-2.4451,-1.6701,-1.6275,-1.6316,-1.6445,-1.6485,-1.6968,-1.8769,-1.94,-1.9914,-2.0974,-2.1409,-2.182,-2.2561,-2.2699,-2.279,-2.304,-2.4662,-2.5943,-2.6168,-2.7805,-2.8987,-2.8987,-2.8282,-2.7475,-2.6667,-2.5572,-2.4921,-2.5009,-2.4496,0.0,-2.3142,-2.2855,-2.2699,-2.2699,-2.2699,-2.2699,-2.2699,-2.2699,-2.2699,-2.2699,-2.2699,-2.2699,-2.2699,-2.2699,-2.2699,0.0,0.0,0.0,0.0,-2.246,-2.2391,-2.2391,-2.2324,-2.1886,-2.1308,-2.1308,-2.0861,-2.0304,-2.0304,-2.0304,-2.0412,-2.1073,-2.1288,-2.155,-2.2886,-2.3286,-2.344,-2.4117,-2.3825,-2.2994,-2.1673,-2.1319,-2.1319,-2.1304,-2.1304,-2.1488,-2.2166,-2.232,-2.232,-2.2317,-2.2855,-2.3302,-2.3302,-2.3871,-2.4302,-2.4302,-2.4302,-2.4071,-2.3394,-2.3302,-2.304,-2.2378,-2.2902,-2.304,-2.2382,-2.2917,-2.3302,-2.3302,-2.3933,-2.4302,-2.4302,-2.4302,-2.4302,-2.4302,-2.4302,-2.4302,-2.4302,-2.4302,-2.4302,-2.4302,-2.4302,-2.4302,-1.8082,-1.7872,-1.7858,-1.8144,-1.8621,-1.9171,-1.9687,-2.023,-2.0799,-2.1357,-2.1528,-2.1832,-2.2561,-2.2699,-2.2959,-2.3791,-2.4525,0.0,-2.6577,-2.71,-2.7702,-2.8615,-2.818,-2.7629,-2.7202,0.0,-2.5865,-2.6082,-2.4918,0.0,-2.2877,-2.2267,-2.2181,-2.2681,-2.2699,-2.2699,-2.2699,-2.2699,-2.2699,-2.2699,-2.2699,-2.2699,-2.2699,-2.2699,-2.2699,0.0,0.0,0.0,0.0,-2.2538,-2.236,-2.203,-2.1766,-2.1386,-2.0926,-2.0696,-2.0477,-2.0304,-2.0304,-2.0613,-2.1011,-2.1227,-2.192,-2.2748,-2.3163,-2.3302,-2.3348,-2.3563,-2.3132,-2.2517,-2.2089,-2.1981,-2.1874,-2.1411,-2.1304,-2.1365,-2.1565,-2.1612,-2.175,-2.2212,-2.284,-2.3302,-2.3302,-2.3856,-2.4148,-2.3686,-2.3625,-2.3363,-2.2686,-2.2628,-2.2551,-2.2317,-2.2089,-2.1858,-2.1627,-2.3071,-2.3594,-2.2671,-2.3686,-2.4302,-2.4302,-2.4302,-2.4302,-2.4302,-2.4302,-2.4302,-2.4302,-2.4302,-2.4302,-2.4302,-2.4302,-2.4302,-1.9098,-1.9057,-1.9043,-1.9312,-1.9855,-2.034,-2.046,-2.1021,-2.1528,-2.1597,-2.182,-2.2147,-2.2612,-2.2699,-2.3085,-2.4242,-2.4695,-2.543,-2.6936,-2.7266,-2.7702,-2.8646,-2.811,-2.7704,0.0,-2.6919,-2.6276,-2.6159,0.0,0.0,-2.235,-2.1561,-2.1354,-2.182,-2.213,-2.2423,-2.2699,-2.2699,-2.2699,-2.2699,-2.2699,-2.2699,-2.2699,-2.2699,-2.2699,0.0,0.0,0.0,0.0,-2.2398,-2.2158,-2.1853,-2.1493,-2.1135,-2.0778,-2.0577,-2.0407,-2.0304,-2.0304,-2.0734,-2.1334,-2.1596,-2.2578,-2.3579,-2.3071,-2.3102,-2.324,-2.2994,-2.2609,-2.2305,-2.2305,-2.2305,-2.2178,-2.1781,-2.1488,-2.1304,-2.1304,-2.1103,-2.1042,-2.1458,-2.2289,-2.284,-2.2578,-2.3302,-2.3702,-2.3025,-2.2917,-2.2671,-2.2012,-2.2151,-2.2212,-2.1951,-2.1781,-2.1565,-2.1319,-2.2459,-2.3025,-2.2686,-2.3456,-2.404,-2.4302,-2.4302,-2.4302,-2.4302,-2.4302,-2.4302,-2.4302,-2.4302,-2.4302,-2.4302,-2.4302,-2.4302,0.0,-1.9781,-1.9796,-1.9947,-2.023,-2.0563,-2.0962,-2.1576,0.0,-2.1665,-2.2147,-2.2647,-2.275,-2.2785,-2.3224,-2.4545,-2.5171,-2.5963,-2.7253,-2.808,-2.8633,-2.8855,-2.8057,-2.7767,-2.8466,-2.7343,-2.6255,-2.5437,0.0,0.0,-2.1608,-2.0768,-2.0325,-2.0325,-2.1096,-2.1871,-2.2612,-2.2664,-2.2699,-2.2699,-2.2699,-2.2699,-2.2699,-2.2699,-2.2699,0.0,0.0,0.0,0.0,-2.2073,-2.1853,-2.1794,-2.1432,-2.1055,-2.0761,-2.0761,-2.0577,-2.032,-2.035,-2.0782,-2.1411,-2.2089,-2.3132,-2.3933,-2.2671,-2.2763,-2.3163,-2.2505,-2.2305,-2.232,-2.2347,-2.2363,-2.2363,-2.2363,-2.1858,-2.1365,-2.1304,-2.0764,-2.0304,-2.0304,-2.135,-2.2028,-2.1411,-2.2363,-2.2994,-2.2336,-2.2228,-2.1997,-2.1319,-2.1812,-2.1997,-2.1365,-2.1858,-2.1981,-2.135,-2.1381,-2.1951,-2.3148,-2.3317,-2.3656,-2.4271,-2.4302,-2.4302,-2.4302,-2.4302,-2.4302,-2.4302,-2.4302,-2.4302,-2.4302,-2.4302,-2.4302,-1.9394,0.0,-1.9416,-1.9693,-1.9913,-2.0126,0.0,-2.0698,-2.0975,-2.148,-2.1733,-2.2199,-2.3336,-2.3543,-2.4176,-2.6124,-2.6357,-2.6696,-2.7781,-2.8103,-2.8118,-2.781,-2.8088,-2.8206,-2.794,-2.7613,-2.6775,0.0,0.0,-2.2888,-2.0791,-1.9975,-1.9562,-1.9562,-2.0303,-2.1061,-2.1854,-2.2423,-2.2699,-2.2699,-2.2699,-2.2699,-2.2699,-2.2699,-2.2699,0.0,0.0,0.0,-2.2198,-2.1886,-2.1509,-2.1135,-2.1039,-2.0762,-2.0424,-2.0424,-2.0373,-2.0381,-2.0888,-2.1165,-2.1411,-2.2089,-2.2501,-2.2701,-2.2413,-2.2763,-2.3163,-2.2505,-2.2305,-2.2428,-2.2932,-2.3055,-2.3055,-2.3055,-2.2548,-2.192,-2.1411,-2.0764,-2.0304,-2.0304,-2.0965,-2.1488,-2.1319,-2.1997,-2.232,-2.1642,-2.1535,-2.1288,-2.061,-2.1119,-2.1473,-2.1319,-2.1442,-2.1473,-2.1304,-2.2243,-2.2748,-2.2548,-2.3502,-2.4148,-2.4302,-2.4302,-2.4302,-2.4302,-2.4302,-2.4302,-2.4302,-2.4302,-2.4302,-2.4302,-2.4302,-2.4302,-1.8605,-1.929,-1.9944,-2.0149,-2.0619,-2.1017,-2.0937,-2.1171,-2.1454,-2.1578,-2.1871,-2.244,-2.3595,-2.3802,-2.4452,-2.6503,-2.6574,-2.6737,-2.7777,-2.7926,-2.7864,-2.7733,-2.8009,-2.8055,0.0,-2.6953,-2.5904,0.0,0.0,-2.1511,-1.9805,-1.9007,-1.8569,-1.8438,-1.9149,-2.0127,-2.1366,-2.2254,-2.2548,-2.2287,-2.2409,-2.2409,-2.2287,-2.2287,-2.2287,0.0,0.0,0.0,-2.194,-2.1601,-2.1293,-2.1007,-2.0762,-2.0543,-2.0339,-2.0304,-2.0304,-2.035,-2.072,-2.1242,-2.1827,-2.2178,-2.2736,-2.3102,-2.2505,-2.2978,-2.3548,-2.2582,-2.2089,-2.2012,-2.2675,-2.3071,-2.3225,-2.2902,-2.2794,-2.2505,-2.1504,-2.1011,-2.0674,-2.0366,-2.0826,-2.1196,-2.0888,-2.1396,-2.1612,-2.0934,-2.0826,-2.0703,-2.035,-2.0888,-2.1304,-2.1304,-2.1581,-2.1766,-2.1766,-2.2721,-2.3009,-2.2351,-2.3271,-2.3979,-2.4302,-2.4302,-2.4302,-2.4302,-2.4302,-2.4302,-2.4302,-2.4302,-2.4302,-2.4302,-2.4302,-2.4302,-1.7946,-1.9253,-2.0578,-2.0517,-2.1285,-2.1922,-2.1422,-2.1889,-2.2275,-2.1721,-2.2181,-2.2957,-2.3819,-2.3974,-2.4587,-2.6462,-2.6519,-2.6655,-2.7566,-2.7701,-2.7786,-2.8006,-2.7826,0.0,-2.7309,-2.5892,0.0,0.0,0.0,-1.9886,-1.8787,-1.8098,-1.7635,-1.7408,-1.8116,-1.9247,-2.0777,-2.1863,-2.2197,-2.1796,-2.2025,-2.201,-2.1812,-2.1812,-2.1812,0.0,0.0,0.0,-2.166,-2.1277,-2.1103,-2.1055,-2.0578,-2.0405,-2.0388,-2.0339,-2.0304,-2.0304,-2.0304,-2.118,-2.227,-2.2182,-2.2978,-2.3779,-2.264,-2.3025,-2.3609,-2.2474,-2.1889,-2.1735,-2.232,-2.2871,-2.3117,-2.2455,-2.2809,-2.2932,-2.1596,-2.1381,-2.1227,-2.0458,-2.0826,-2.1088,-2.0428,-2.0764,-2.0949,-2.0397,-2.0304,-2.0304,-2.0304,-2.0795,-2.115,-2.115,-2.175,-2.2151,-2.2151,-2.2875,-2.3055,-2.2505,-2.3086,-2.3717,-2.4287,-2.4302,-2.4302,-2.4302,-2.4302,-2.4302,-2.4302,-2.4302,-2.4302,-2.4302,-2.4302,-2.4302,-1.8555,-1.9386,-1.9968,-1.934,-1.9832,-2.0446,-2.0401,-2.1062,-2.1657,-2.16,-2.2181,-2.3129,-2.4557,-2.4833,-2.54,-2.7236,-2.7496,-2.7502,-2.7683,-2.7701,-2.773,-2.7757,0.0,-2.709,-2.5556,0.0,0.0,0.0,0.0,-1.9513,-1.8048,-1.7656,-1.7432,-1.7396,-1.8116,-1.8792,-1.94,-2.047,-2.1264,-2.1812,-2.184,-2.184,-2.1812,-2.1812,-2.1812,0.0,0.0,-2.1308,-2.1197,-2.0909,-2.0711,-2.0611,-2.0527,-2.0458,-2.0405,-2.0388,-2.0354,-2.0304,-2.0304,-2.118,-2.2212,-2.1642,-2.1981,-2.2582,-2.2347,-2.2058,-2.172,-2.1504,-2.2212,-2.3009,-2.3117,-2.3225,-2.3117,-2.2455,-2.2809,-2.2932,-2.1596,-2.175,-2.1781,-2.0551,-2.0826,-2.1088,-2.0428,-2.0397,-2.0428,-2.032,-2.0304,-2.0304,-2.0304,-2.0397,-2.0458,-2.0458,-2.1042,-2.1442,-2.1442,-2.2578,-2.3255,-2.3148,-2.3779,-2.4194,-2.4302,-2.4302,-2.4302,-2.4302,-2.4302,-2.4302,-2.4302,-2.4302,-2.4302,-2.4302,-2.4302,-2.4302,-1.8205,-1.9135,-1.9917,-1.9575,-2.0395,-2.1328,-2.1416,-2.1742,-2.2188,-2.2689,-2.306,-2.3767,-2.5301,-2.5592,-2.6016,-2.7276,-2.7481,-2.7481,-2.7481,-2.7481,-2.7167,0.0,0.0,-2.558,0.0,0.0,0.0,0.0,0.0,0.0,-1.7417,-1.7252,-1.7117,-1.698,-1.73,-1.7738,-1.8341,-1.9199,-2.0161,-2.1261,-2.1433,-2.1417,-2.1261,-2.1261,-2.1261,-2.1246,0.0,-2.099,-2.0926,-2.0777,-2.0644,-2.0594,-2.0492,-2.0458,-2.0458,-2.0407,-2.0371,-2.0304,-2.0304,-2.0934,-2.172,-2.1396,-2.175,-2.2305,-2.2305,-2.2089,-2.1843,-2.1843,-2.1766,-2.1673,-2.1673,-2.1951,-2.2058,-2.1381,-2.227,-2.2932,-2.1596,-2.1827,-2.212,-2.1504,-2.1042,-2.0782,-2.0826,-2.0826,-2.072,-2.035,-2.0595,-2.0826,-2.0826,-2.0518,-2.0443,-2.0795,-2.1442,-2.1843,-2.1843,-2.3071,-2.384,-2.384,-2.4133,-2.4302,-2.4302,-2.4302,-2.4302,-2.4302,-2.4302,-2.4302,-2.4302,-2.4302,-2.4302,-2.4302,-2.4302,-2.4302,-1.8014,-1.8882,-1.9828,-2.0183,-2.1299,-2.2372,-2.2695,-2.2757,-2.3004,-2.3894,-2.4077,-2.4491,-2.5853,-2.6249,-2.6523,-2.6954,-2.7178,-2.7161,-2.6816,-2.6764,-2.6195,-2.4643,-2.4471,0.0,0.0,0.0,0.0,0.0,0.0,0.0,-1.7018,-1.6942,-1.6815,-1.661,-1.661,-1.6943,-1.7699,-1.8204,-1.9183,-2.0557,-2.0991,-2.1055,-2.0794,-2.0794,-2.0794,-2.0794,-2.0794,-2.0794,-2.0777,-2.0694,-2.0644,-2.0643,-2.0474,-2.0424,-2.046,-2.039,-2.0339,-2.0304,-2.0304,-2.0734,-2.1304,-2.1304,-2.175,-2.2255,-2.212,-2.2074,-2.2043,-2.1889,-2.1088,-2.035,-2.0489,-2.0919,-2.1165,-2.0657,-2.1951,-2.2978,-2.1797,-2.2178,-2.2671,-2.2347,-2.1596,-2.1119,-2.1473,-2.1535,-2.1365,-2.0841,-2.1196,-2.1535,-2.1535,-2.1088,-2.0888,-2.1257,-2.2043,-2.2594,-2.2767,-2.3717,-2.4302,-2.4302,-2.4302,-2.4302,-2.4302,-2.4302,-2.4302,-2.4302,-2.4302,-2.4302,-2.4302,-2.4302,-2.4302,-2.4302,-2.4302,-2.4302,-1.864,-1.8894,-1.9329,-2.075,-2.1701,-2.2508,-2.3326,-2.3508,-2.3787,-2.4735,-2.4919,-2.516,-2.5939,-2.6713,-2.6988,-2.6299,-2.6816,-2.6799,-2.5367,0.0,-2.4591,-2.3043,-2.2871,0.0,0.0,0.0,0.0,0.0,0.0,0.0,-1.7005,-1.6763,-1.6623,-1.661,-1.661,-1.6943,-1.7699,-1.7746,-1.8488,-1.9894,-2.0542,-2.0827,-2.0794,-2.0794,-2.0794,-2.0794,-2.0794,-2.0745,-2.0693,-2.0577,-2.051,-2.051,-2.0424,-2.0405,-2.0405,-2.0321,-2.0304,-2.0304,-2.0304,-2.0734,-2.1304,-2.1304,-2.175,-2.2178,-2.1565,-2.1365,-2.1242,-2.061,-2.0381,-2.0443,-2.1057,-2.1257,-2.1288,-2.1242,-2.2289,-2.3102,-2.2378,-2.324,-2.3794,-2.2551,-2.2717,-2.2902,-2.2336,-2.2228,-2.2212,-2.2166,-2.2212,-2.2228,-2.2228,-2.2197,-2.1951,-2.1365,-2.2455,-2.3471,-2.4102,-2.4235,-2.4302,-2.4302,-2.4302,-2.4302,-2.4302,-2.4302,-2.4302,-2.4302,-2.4302,-2.4302,-2.4302,-2.4302,-2.4302,-2.4302,-2.4302,-2.4302,-1.8138,-1.8882,-1.971,-2.0314,-2.1383,-2.2525,-2.3394,-2.3594,-2.401,-2.5407,-2.5678,-2.5781,-2.6042,-2.635,-2.6454,-2.6161,-2.5542,-2.5077,-2.5023,-2.4163,-2.2992,-2.1458,0.0,0.0,0.0,0.0,0.0,0.0,0.0,0.0,-1.6751,-1.6662,-1.661,-1.661,-1.661,-1.6723,-1.702,-1.7478,-1.7967,-1.8504,-1.9641,-2.0399,-2.0794,-2.0794,-2.0794,-2.0794,-2.0794,-2.0778,-2.076,-2.0661,-2.0594,-2.0494,-2.044,-2.0371,-2.0339,-2.0371,-2.0339,-2.0304,-2.0304,-2.0474,-2.069,-2.069,-2.0841,-2.1011,-2.0767,-2.069,-2.0643,-2.0381,-2.0304,-2.0366,-2.0595,-2.069,-2.078,-2.1196,-2.2012,-2.2717,-2.2886,-2.3317,-2.3656,-2.3563,-2.3071,-2.2717,-2.2886,-2.2917,-2.2778,-2.2347,-2.264,-2.2917,-2.2917,-2.2178,-2.1904,-2.2471,-2.2994,-2.3579,-2.4241,-2.4302,-2.4302,-2.4302,-2.4302,-2.4302,-2.4302,-2.4302,-2.4302,-2.4302,-2.4302,-2.4302,-2.4302,-2.4302,-2.4302,-2.4302,-2.4302,-2.4302,-1.8149,-1.9051,-2.0052,-2.0318,-2.1164,-2.2237,-2.3315,-2.3579,-2.3996,-2.5429,-2.5749,-2.5749,-2.5749,-2.5749,-2.5577,0.0,-2.4336,-2.375,-2.356,-2.2647,-2.1406,0.0,0.0,0.0,0.0,0.0,0.0,0.0,0.0,0.0,0.0,-1.661,-1.661,-1.661,-1.661,-1.661,-1.661,-1.7099,-1.7478,-1.7715,-1.8883,-1.9815,-2.0494,-2.0699,-2.0794,-2.0794,-2.0794,-2.0794,-2.0794,-2.0727,-2.061,-2.046,-2.0423,-2.0371,-2.0304,-2.0354,-2.0339,-2.0304,-2.0304,-2.0304,-2.0304,-2.0304,-2.0304,-2.0304,-2.0304,-2.0304,-2.0304,-2.0304,-2.0304,-2.0304,-2.0304,-2.0304,-2.0518,-2.1411,-2.1966,-2.2551,-2.3425,-2.3625,-2.3748,-2.421,-2.3563,-2.3071,-2.3533,-2.3625,-2.3456,-2.2994,-2.3317,-2.3625,-2.3625,-2.2809,-2.2594,-2.3517,-2.3425,-2.3579,-2.4241,-2.4302,-2.4302,-2.4302,-2.4302,-2.4302,-2.4302,-2.4302,-2.4302,-2.4302,-2.4302,-2.4302,-2.4302,-2.4302,-2.4302,-2.4302,-2.4302,-2.4302,-1.891,-1.9439,-2.02,-2.1004,-2.1207,-2.161,-2.3138,-2.3551,-2.3844,-2.4702,-2.4944,-2.4988,-2.4971,-2.4971,-2.4471,-2.294,-2.3285,-2.2974,-2.0722,-2.0394,0.0,0.0,0.0,0.0,0.0,0.0,0.0,0.0,0.0,0.0,0.0,-1.661,-1.661,-1.661,-1.661,-1.661,-1.661,-1.661,-1.6973,-1.7699,-1.8378,-1.9088,-1.9815,-2.0494,-2.0794,-2.0794,-2.0794,-2.0794,-2.0794,-2.0727,-2.0575,-2.0405,-2.0405,-2.0371,-2.0304,-2.0304,-2.0304,-2.0304,-2.0304,-2.0304,-2.0304,-2.0304,-2.0304,-2.0304,-2.0304,-2.0304,-2.0304,-2.0304,-2.0304,-2.0304,-2.0304,-2.0304,-2.0643,-2.1981,-2.2305,-2.2675,-2.401,-2.4302,-2.4302,-2.4302,-2.4302,-2.4302,-2.4302,-2.4302,-2.4302,-2.4302,-2.4302,-2.4302,-2.4287,-2.4302,-2.4302,-2.4287,-2.3702,-2.3579,-2.4241,-2.4302,-2.4302,-2.4302,-2.4302,-2.4302,-2.4302,-2.4302,-2.4302,-2.4302,-2.4302,-2.4302,-2.4302,-2.4302,-2.4302,-2.4302,-2.4302,-2.4302,-1.9524,-1.9828,-2.02,-2.1004,-2.1583,-2.209,-2.2558,-2.315,-2.3705,-2.4055,-2.3736,-2.3216,-2.2699,-2.2608,0.0,-2.1992,-2.1199,-2.0584,-2.0412,-1.951,0.0,0.0,0.0,0.0,0.0,0.0,0.0,0.0,0.0,0.0,0.0,-1.661,-1.661,-1.661,-1.661,-1.661,-1.661,-1.661,-1.672,-1.6941,-1.8125,-1.9088,-1.9815,-2.0494,-2.0794,-2.0794,-2.0794,-2.0794,-2.0794,-2.0727,-2.061,-2.0475,-2.0423,-2.0371,-2.0304,-2.0304,-2.0304,-2.0304,-2.0304,-2.0304,-2.0304,-2.0304,-2.0304,-2.0304,-2.0304,-2.0304,-2.0304,-2.0304,-2.0304,-2.0304,-2.0304,-2.0304,-2.0643,-2.1981,-2.2305,-2.2675,-2.401,-2.4302,-2.4302,-2.4302,-2.4302,-2.4302,-2.4302,-2.4302,-2.4302,-2.4302,-2.4302,-2.3963,-2.3009,-2.3717,-2.3948,-2.2994,-2.3563,-2.4087,-2.4287,-2.4302,-2.4302,-2.4302,-2.4302,-2.4302,-2.4302,-2.4302,-2.4302,-2.4302,-2.4302,-2.4302,-2.4302,-2.4302,-2.4302,-2.4302,-2.4302,-2.4302,-2.0365,-2.069,-2.1028,-2.1515,-2.1972,-2.2321,-2.233,-2.275,-2.3285,-2.3846,-2.2656,-2.1481,-2.1454,-2.1273,0.0,-2.0734,-1.9906,-1.9344,-1.9499,0.0,0.0,0.0,0.0,0.0,0.0,0.0,0.0,0.0,0.0,0.0,0.0,-1.661,-1.661,-1.661,-1.661,-1.661,-1.661,-1.661,-1.661,-1.6596,-1.7762,-1.8536,-1.9009,-2.0241,-2.0794,-2.0794,-2.0794,-2.0794,-2.0794,-2.076,-2.0661,-2.0494,-2.0458,-2.039,-2.0304,-2.0304,-2.0304,-2.0304,-2.0304,-2.0304,-2.0304,-2.0304,-2.0304,-2.0304,-2.0304,-2.0304,-2.0304,-2.0304,-2.0304,-2.0304,-2.0304,-2.0304,-2.0643,-2.1981,-2.2305,-2.2675,-2.401,-2.4302,-2.4302,-2.4302,-2.4302,-2.4302,-2.4302,-2.4302,-2.4302,-2.4302,-2.4302,-2.401,-2.3194,-2.381,-2.3994,-2.3179,-2.3825,-2.4302,-2.4302,-2.4302,-2.4302,-2.4302,-2.4302,-2.4302,-2.4302,-2.4302,-2.4302,-2.4302,-2.4302,-2.4302,-2.4302,-2.4302,-2.4302,-2.4302,-2.4302,-2.4302,-2.1275,-2.1735,-2.2212,-2.2279,-2.231,-2.2312,-2.237,-2.241,-2.2652,-2.3602,-2.1537,-1.9834,-2.0752,-2.0525,-1.9981,-1.932,-1.9189,-1.8976,-1.8286,0.0,0.0,0.0,0.0,0.0,0.0,0.0,0.0,0.0,0.0,0.0,0.0,-1.661,-1.6596,-1.657,-1.657,-1.657,-1.657,-1.657,-1.6583,0.0,-1.7352,-1.7699,-1.7778,-1.9783,-2.0731,-2.0794,-2.0794,-2.0794,-2.0794,-2.0794,-2.0695,-2.0527,-2.051,-2.0409,-2.0304,-2.0304,-2.0304,-2.0304,-2.0304,-2.0304,-2.0304,-2.0304,-2.0304,-2.0304,-2.0304,-2.0304,-2.0304,-2.0304,-2.0304,-2.0304,-2.0304,-2.0304,-2.061,-2.1904,-2.2259,-2.2675,-2.401,-2.4302,-2.4302,-2.4302,-2.4302,-2.4302,-2.4302,-2.4302,-2.4302,-2.4302,-2.4302,-2.4287,-2.4225,-2.4271,-2.4287,-2.4225,-2.4271,-2.4302,-2.4302,-2.4302,-2.4302,-2.4302,-2.4302,-2.4302,-2.4302,-2.4302,-2.4271,-2.421,-2.4271,-2.4271,-2.421,-2.4271,-2.4302,-2.4302,-2.4302,-2.4302,-2.1904,-2.1752,-2.158,-2.2175,-2.2304,-2.2317,-2.2384,-2.2356,-2.2004,-2.0906,-1.9521,-1.8581,-1.8799,-1.8741,-1.8614,-1.8459,-1.8441,-1.8373,0.0,0.0,0.0,0.0,0.0,0.0,0.0,0.0,0.0,0.0,0.0,0.0,-1.661,-1.661,-1.653,-1.6369,-1.6353,-1.6353,-1.6353,-1.6353,-1.645,0.0,-1.7352,-1.7699,-1.7762,-1.9309,-2.0304,-2.0794,-2.0794,-2.0794,-2.0794,-2.0794,-2.0744,-2.0644,-2.0544,-2.0458,-2.0371,-2.0321,-2.0304,-2.0304,-2.0304,-2.0304,-2.0304,-2.0304,-2.0304,-2.0304,-2.0304,-2.0304,-2.0304,-2.0304,-2.0304,-2.0304,-2.0304,-2.0304,-2.052,-2.1319,-2.192,-2.2675,-2.401,-2.4302,-2.4302,-2.4302,-2.4302,-2.4302,-2.4302,-2.4302,-2.4302,-2.4302,-2.4302,-2.4117,-2.3579,-2.3979,-2.4102,-2.3579,-2.3994,-2.4302,-2.4302,-2.4302,-2.4302,-2.4302,-2.4302,-2.4302,-2.4302,-2.4302,-2.4056,-2.3533,-2.404,-2.404,-2.3517,-2.404,-2.4302,-2.4302,-2.4302,-2.4302,-2.2209,-2.2023,-2.183,-2.2201,-2.232,-2.2174,-2.1497,-2.1196,-2.0661,-1.9262,-1.7986,-1.7185,-1.7425,-1.7559,-1.7621,-1.7621,-1.7847,-1.8005,0.0,0.0,0.0,0.0,0.0,0.0,0.0,0.0,0.0,0.0,0.0,-1.6119,-1.6448,-1.6463,-1.6409,-1.6301,-1.6301,-1.6301,-1.6301,-1.6205,-1.6219,-1.6328,-1.6798,-1.727,-1.7746,-1.9152,-1.9988,-2.0336,-2.0652,-2.0794,-2.0794,-2.0794,-2.076,-2.0693,-2.0627,-2.0525,-2.0405,-2.0371,-2.0321,-2.0304,-2.0304,-2.0304,-2.0304,-2.0304,-2.0304,-2.0304,-2.0304,-2.0304,-2.0304,-2.0304,-2.0304,-2.0304,-2.0304,-2.0304,-2.0456,-2.1134,-2.1812,-2.2582,-2.3594,-2.4071,-2.4302,-2.4302,-2.4302,-2.4302,-2.4302,-2.4302,-2.4302,-2.4302,-2.4302,-2.4179,-2.3825,-2.4087,-2.4179,-2.3825,-2.4087,-2.4302,-2.4302,-2.4302,-2.4302,-2.4302,-2.4302,-2.4302,-2.4302,-2.4302,-2.4148,-2.3794,-2.4133,-2.4133,-2.3779,-2.4133,-2.4302,-2.4302,-2.4302,-2.4302,-2.2271,-2.2301,-2.2295,-2.2296,-2.2078,-2.1593,-2.0567,-1.987,-1.9217,-1.8375,-1.7192,-1.6393,-1.6698,-1.6885,-1.6957,-1.6789,-1.7241,0.0,0.0,0.0,0.0,0.0,0.0,0.0,0.0,0.0,0.0,0.0,0.0,-1.5583,-1.6099,-1.6239,-1.6287,-1.6246,-1.6205,-1.6205,-1.6246,-1.6038,-1.5968,-1.6052,-1.626,-1.6763,-1.7557,-1.8852,-1.9562,-1.9846,-2.051,-2.0794,-2.0794,-2.0794,-2.0777,-2.0726,-2.071,-2.0592,-2.044,-2.0405,-2.0371,-2.0321,-2.0304,-2.0304,-2.0304,-2.0304,-2.0304,-2.0304,-2.0304,-2.0304,-2.0304,-2.0304,-2.0304,-2.0304,-2.0304,-2.0304,-2.0443,-2.0996,-2.1642,-2.2351,-2.3117,-2.3825,-2.4271,-2.4148,-2.4133,-2.4133,-2.4133,-2.4225,-2.4302,-2.4302,-2.4302,-2.4302,-2.4302,-2.4302,-2.4302,-2.4302,-2.4302,-2.4302,-2.4302,-2.4302,-2.4302,-2.4302,-2.4302,-2.4302,-2.4302,-2.4302,-2.4302,-2.4302,-2.4302,-2.4241,-2.4133,-2.4241,-2.4302,-2.4302,-2.4302,-2.4302,-2.2125,-2.2302,-2.2296,-2.2295,-2.0995,-1.9919,-2.0639,-1.9559,-1.8365,-1.8226,-1.8041,-1.7704,-1.7077,-1.6974,-1.6728,-1.5923,-1.6377,0.0,0.0,0.0,0.0,0.0,0.0,0.0,0.0,0.0,0.0,0.0,-1.5631,-1.5531,-1.5436,-1.5978,-1.6219,-1.6038,-1.5812,-1.5812,-1.6038,-1.5769,-1.5854,-1.626,-1.6448,-1.663,-1.677,-1.7604,-1.8646,-1.9846,-2.051,-2.0794,-2.0794,-2.0794,-2.0794,-2.0778,-2.0711,-2.0676,-2.0643,-2.0474,-2.0388,-2.0388,-2.0321,-2.0304,-2.0304,-2.0304,-2.0304,-2.0304,-2.0304,-2.0304,-2.0304,-2.0304,-2.0304,-2.0304,-2.0304,-2.0304,-2.0335,-2.0412,-2.0949,-2.1781,-2.3025,-2.3825,-2.4133,-2.3548,-2.3425,-2.3425,-2.3425,-2.3917,-2.4302,-2.4302,-2.4302,-2.4302,-2.4302,-2.4302,-2.4302,-2.4302,-2.4302,-2.4302,-2.4302,-2.4302,-2.4302,-2.4302,-2.4302,-2.4302,-2.4302,-2.4302,-2.4302,-2.4302,-2.4302,-2.401,-2.3425,-2.4025,-2.4302,-2.4302,-2.4302,-2.4302,-2.1602,-2.199,-2.23,-2.2293,-2.1312,-2.0308,-2.0111,-1.936,-1.8597,-1.8222,-1.8048,-1.7783,-1.7109,-1.6918,-1.656,-1.5729,-1.6001,0.0,0.0,0.0,0.0,0.0,0.0,0.0,0.0,0.0,0.0,0.0,-1.5327,-1.5071,-1.5662,-1.5574,-1.5601,-1.5769,-1.5812,-1.5869,-1.5996,-1.5869,-1.5982,-1.6301,-1.6396,-1.649,-1.6641,-1.7354,-1.8236,-1.923,-1.9941,-2.0447,-2.0794,-2.0794,-2.0794,-2.0794,-2.0777,-2.0727,-2.0676,-2.0509,-2.0424,-2.0388,-2.0321,-2.0304,-2.0304,-2.0304,-2.0304,-2.0304,-2.0304,-2.0304,-2.0304,-2.0304,-2.0304,-2.0304,-2.0304,-2.0304,-2.0304,-2.0304,-2.0811,-2.1458,-2.2058,-2.2721,-2.3086,-2.2794,-2.304,-2.3302,-2.3302,-2.3856,-2.4302,-2.4302,-2.4302,-2.4302,-2.4302,-2.4302,-2.4302,-2.4302,-2.4302,-2.4302,-2.4302,-2.4302,-2.4302,-2.4302,-2.4302,-2.4302,-2.4302,-2.4302,-2.4302,-2.4302,-2.4302,-2.4148,-2.3871,-2.4164,-2.4302,-2.4302,-2.4302,-2.4302,-2.1366,-2.1871,-2.2278,-2.2139,-2.1654,-2.095,-1.9963,-1.9391,-1.8944,0.0,-1.8025,-1.7664,-1.7184,-1.683,-1.6292,-1.5298,-1.5611,0.0,0.0,0.0,0.0,0.0,0.0,0.0,0.0,0.0,0.0,0.0,-1.5136,-1.4776,-1.5257,-1.5224,-1.5253,-1.5414,-1.5679,-1.5884,-1.5996,-1.6052,-1.615,-1.6301,-1.6355,-1.6448,-1.6625,-1.7178,-1.7794,-1.8488,-1.9214,-1.9909,-2.0541,-2.0541,-2.0636,-2.0794,-2.0794,-2.0777,-2.0711,-2.0561,-2.046,-2.0407,-2.0321,-2.0304,-2.0304,-2.0304,-2.0304,-2.0304,-2.0304,-2.0304,-2.0304,-2.0304,-2.0304,-2.0304,-2.0304,-2.0304,-2.0304,-2.0304,-2.0672,-2.1134,-2.1473,-2.1812,-2.2105,-2.2274,-2.2686,-2.3102,-2.3271,-2.3856,-2.4302,-2.4302,-2.4302,-2.4302,-2.4302,-2.4302,-2.4302,-2.4302,-2.4302,-2.4302,-2.4302,-2.4302,-2.4302,-2.4302,-2.4302,-2.4302,-2.4302,-2.4302,-2.4302,-2.4302,-2.4302,-2.4302,-2.4302,-2.4302,-2.4302,-2.4302,-2.4302,-2.4302,-2.1843,-2.2278,-2.2187,-2.1763,-2.1412,-2.109,-2.0711,-1.9845,-1.904,-1.8812,-1.8255,-1.7715,-1.7429,-1.6812,-1.5797,-1.4161,-1.503,0.0,0.0,0.0,0.0,0.0,0.0,0.0,0.0,0.0,0.0,0.0,-1.5216,-1.4884,-1.3416,-1.501,-1.562,-1.4962,-1.5198,-1.5551,-1.6011,-1.6191,-1.6301,-1.6301,-1.6488,-1.6596,-1.661,-1.6641,-1.7067,-1.7794,-1.8457,-1.9183,-1.9846,-1.9846,-2.0225,-2.0794,-2.0794,-2.0794,-2.0778,-2.0578,-2.051,-2.0477,-2.0356,-2.0304,-2.0304,-2.0304,-2.0304,-2.0304,-2.0304,-2.0304,-2.0304,-2.0304,-2.0304,-2.0304,-2.0304,-2.0304,-2.0304,-2.0304,-2.0335,-2.0687,-2.1981,-2.1781,-2.1535,-2.2182,-2.2336,-2.2548,-2.3179,-2.3856,-2.4302,-2.4302,-2.4302,-2.4302,-2.4302,-2.4302,-2.4302,-2.4302,-2.4302,-2.4302,-2.4302,-2.4302,-2.4302,-2.4302,-2.4302,-2.4302,-2.4302,-2.4302,-2.4302,-2.4302,-2.4302,-2.4302,-2.4302,-2.4302,-2.4302,-2.4302,-2.4302,-2.4302,-1.9976,-2.0545,-2.1189,-2.0847,-2.0654,-2.0591,-2.069,-1.9882,-1.9031,-1.8784,-1.8269,-1.7731,-1.7236,-1.6918,-1.6405,-1.5389,0.0,0.0,0.0,0.0,0.0,0.0,0.0,0.0,0.0,0.0,0.0,0.0,0.0,0.0,-1.4569,-1.4329,-1.4429,-1.4885,-1.4992,-1.5404,-1.6191,-1.6396,-1.6488,-1.6488,-1.657,-1.661,-1.661,-1.661,-1.6752,-1.702,-1.7257,-1.8283,-1.9815,-1.9815,-2.021,-2.0794,-2.0794,-2.0794,-2.0778,-2.0578,-2.051,-2.0477,-2.0356,-2.0304,-2.0304,-2.0304,-2.0304,-2.0304,-2.0304,-2.0304,-2.0304,-2.0304,-2.0304,-2.0304,-2.0304,-2.0304,-2.0304,-2.0304,-2.0304,-2.0426,-2.0903,-2.0826,-2.0857,-2.1535,-2.2012,-2.2501,-2.3179,-2.3856,-2.4302,-2.4302,-2.4302,-2.4302,-2.4302,-2.4302,-2.4302,-2.4302,-2.4302,-2.4302,-2.4302,-2.4302,-2.4302,-2.4302,-2.4302,-2.4302,-2.4302,-2.4302,-2.4302,-2.4302,-2.4302,-2.4302,-2.4302,-2.4302,-2.4302,-2.4302,-2.4302,-2.4302,-1.9043,-1.9527,-2.0434,-2.031,-2.0314,-2.0424,-2.0683,-2.0087,-1.9418,-1.918,-1.8475,-1.7749,-1.7316,-1.7027,-1.6654,-1.5972,0.0,0.0,0.0,0.0,0.0,0.0,0.0,0.0,0.0,0.0,0.0,0.0,0.0,0.0,-1.5071,-1.4486,-1.4488,-1.5258,-1.5327,-1.5676,-1.6285,-1.6503,-1.661,-1.661,-1.661,-1.661,-1.661,-1.661,-1.661,-1.661,-1.661,-1.7683,-1.9435,-1.9435,-1.9973,-2.0794,-2.0794,-2.0794,-2.0778,-2.0578,-2.051,-2.0477,-2.0356,-2.0304,-2.0304,-2.0304,-2.0304,-2.0304,-2.0304,-2.0304,-2.0304,-2.0304,-2.0304,-2.0304,-2.0304,-2.0304,-2.0304,-2.0304,-2.0304,-2.0304,-2.0304,-2.0304,-2.0549,-2.1458,-2.2012,-2.2578,-2.3486,-2.401,-2.4302,-2.4302,-2.4302,-2.4302,-2.4302,-2.4302,-2.4302,-2.4302,-2.4302,-2.4302,-2.4302,-2.4302,-2.4302,-2.4302,-2.4302,-2.4302,-2.4302,-2.4302,-2.4302,-2.4302,-2.4302,-2.4302,-2.4302,-2.4302,-2.4302,-2.4302,-2.4302,-2.4179,0.0,0.0,0.0,-2.0114,-2.0399,-2.0654,-2.0767,0.0,-2.0113,-2.0013,-1.8892,-1.7873,-1.7759,-1.7117,-1.642,-1.5766,0.0,0.0,0.0,0.0,0.0,0.0,0.0,0.0,0.0,0.0,0.0,0.0,0.0,-1.5788,-1.4683,-1.5463,-1.5949,-1.5934,-1.6143,-1.6268,-1.6239,-1.6472,-1.6594,-1.6578,-1.6594,-1.661,-1.661,-1.661,-1.661,-1.661,-1.661,-1.7383,-1.8677,-1.8677,-1.9499,-2.0763,-2.0763,-2.0778,-2.0778,-2.0578,-2.051,-2.0477,-2.0356,-2.0304,-2.0304,-2.0304,-2.0304,-2.0304,-2.0304,-2.0304,-2.0304,-2.0304,-2.0304,-2.0304,-2.0304,-2.0304,-2.0304,-2.0304,-2.0304,-2.0304,-2.0304,-2.0304,-2.0687,-2.2043,-2.232,-2.2748,-2.4071,-2.4302,-2.4302,-2.4302,-2.4302,-2.4302,-2.4302,-2.4302,-2.4302,-2.4302,-2.4302,-2.4302,-2.4302,-2.4302,-2.4302,-2.4302,-2.4302,-2.4302,-2.4302,-2.4302,-2.4302,-2.4302,-2.4302,-2.4302,-2.4302,-2.4302,-2.4302,-2.4271,-2.4256,-2.3887,-1.8442,0.0,0.0,0.0,0.0,0.0,0.0,0.0,-1.8982,-1.9765,-1.907,-1.8321,-1.8294,-1.7787,-1.7322,-1.7076,0.0,0.0,0.0,0.0,0.0,0.0,0.0,0.0,0.0,0.0,0.0,0.0,-1.5987,-1.5656,-1.5339,-1.5119,-1.4688,-1.4006,-1.5158,-1.5477,-1.4792,-1.6001,-1.6357,-1.588,-1.6357,-1.661,-1.661,-1.661,-1.661,-1.661,-1.661,-1.7131,-1.7983,-1.7983,-1.8804,-2.0083,-2.0083,-2.0368,-2.0778,-2.0578,-2.051,-2.0477,-2.0356,-2.0304,-2.0304,-2.0304,-2.0304,-2.0304,-2.0304,-2.0304,-2.0304,-2.0304,-2.0304,-2.0304,-2.0304,-2.0304,-2.0304,-2.0304,-2.0304,-2.0304,-2.0304,-2.0304,-2.0687,-2.2043,-2.2686,-2.3302,-2.4148,-2.4302,-2.4302,-2.4302,-2.4302,-2.4302,-2.4302,-2.4302,-2.4302,-2.4302,-2.4302,-2.4302,-2.4302,-2.4302,-2.4302,-2.4302,-2.4302,-2.4302,-2.4302,-2.4302,-2.4302,-2.4302,-2.4302,-2.4302,-2.4302,-2.4302,-2.4056,-2.3563,-2.3071,-2.2748,-1.8981,-1.9085,-1.9611,-1.923,0.0,0.0,-2.0404,-1.981,-1.9325,0.0,-1.9765,-1.909,-1.9121,-1.8525,-1.8025,-1.798,0.0,0.0,0.0,0.0,0.0,0.0,0.0,0.0,0.0,-1.661,0.0,-1.661,-1.6166,-1.5769,-1.5487,-1.5168,-1.4633,-1.3816,-1.4696,-1.5046,-1.4784,-1.5707,-1.6133,-1.6022,-1.6404,-1.661,-1.661,-1.661,-1.661,-1.661,-1.661,-1.6833,-1.7227,-1.7227,-1.8252,-1.9815,-1.9815,-2.021,-2.0778,-2.0644,-2.0544,-2.0494,-2.0373,-2.0321,-2.0304,-2.0304,-2.0304,-2.0304,-2.0304,-2.0304,-2.0304,-2.0304,-2.0304,-2.0304,-2.0304,-2.0304,-2.0304,-2.0304,-2.0304,-2.0304,-2.0304,-2.0518,-2.1026,-2.2086,-2.2628,-2.3179,-2.4148,-2.4302,-2.4302,-2.4302,-2.4302,-2.4302,-2.4302,-2.4302,-2.4302,-2.4302,-2.4302,-2.4302,-2.4302,-2.4302,-2.4302,-2.4302,-2.4302,-2.4302,-2.4302,-2.4302,-2.4302,-2.4302,-2.4302,-2.4302,-2.4302,-2.4302,-2.3963,-2.3286,-2.2902,-2.2428,-2.0234,-2.0082,-2.0187,-2.0439,-1.9995,0.0,-2.0721,-2.0404,-2.0116,0.0,-2.0238,-1.9638,-1.9668,-1.9043,-1.8469,-1.8376,0.0,0.0,0.0,0.0,0.0,0.0,0.0,0.0,-1.661,-1.661,-1.661,-1.661,-1.6421,-1.6033,-1.5369,-1.5496,-1.526,-1.4505,-1.4553,-1.4849,-1.5355,-1.5513,-1.5896,-1.6483,-1.6562,-1.661,-1.661,-1.662,-1.6633,-1.6649,-1.6688,-1.6659,-1.6633,-1.6633,-1.7838,-1.9688,-1.9688,-2.0146,-2.0794,-2.0711,-2.0627,-2.0494,-2.0424,-2.0371,-2.0304,-2.0304,-2.0304,-2.0304,-2.0304,-2.0304,-2.0304,-2.0304,-2.0304,-2.0304,-2.0304,-2.0304,-2.0304,-2.0304,-2.0304,-2.0304,-2.0304,-2.0782,-2.1411,-2.2166,-2.2347,-2.2809,-2.4087,-2.4302,-2.4302,-2.4302,-2.4302,-2.4302,-2.4302,-2.4302,-2.4302,-2.4302,-2.4302,-2.4302,-2.4302,-2.4302,-2.4302,-2.4302,-2.4302,-2.4302,-2.4302,-2.4302,-2.4302,-2.4302,-2.4302,-2.4302,-2.4302,-2.4241,-2.3887,-2.3302,-2.3148,-2.2443,-2.0386,-2.0471,-2.0703,-1.9529,-1.9419,0.0,-1.8794,-1.8409,-1.8164,0.0,-1.7939,-1.7861,-1.7772,-1.8158,-1.8282,-1.7633,0.0,0.0,0.0,0.0,0.0,0.0,0.0,0.0,-1.661,-1.661,-1.661,-1.661,-1.657,-1.6258,-1.5578,-1.5583,-1.5023,-1.3747,-1.4295,-1.4379,-1.3905,-1.5039,-1.5671,-1.5798,-1.6341,-1.661,-1.661,-1.6828,-1.6917,-1.693,-1.7154,-1.7117,-1.6917,-1.6917,-1.7716,-1.8899,-1.8899,-1.9688,-2.0794,-2.0711,-2.0627,-2.0494,-2.0424,-2.0371,-2.0304,-2.0304,-2.0304,-2.0304,-2.0304,-2.0304,-2.0304,-2.0304,-2.0304,-2.0304,-2.0304,-2.0304,-2.0304,-2.0304,-2.0304,-2.0304,-2.0304,-2.0412,-2.0841,-2.2074,-2.2732,-2.3363,-2.4164,-2.4302,-2.4302,-2.4302,-2.4302,-2.4302,-2.4302,-2.4302,-2.4302,-2.4302,-2.4302,-2.4302,-2.4302,-2.4302,-2.4302,-2.4302,-2.4302,-2.4302,-2.4302,-2.4302,-2.4302,-2.4302,-2.4302,-2.4302,-2.4302,-2.3763,-2.3425,-2.3271,-2.2197,-2.155,-2.1366,-2.1434,-2.1549,-2.0788,-2.0374,0.0,0.0,-1.9398,-1.8992,-1.9211,-1.8901,-1.859,-1.8514,-1.8423,-1.8207,-1.7822,-1.813,0.0,0.0,0.0,0.0,0.0,0.0,0.0,-1.7597,-1.7597,-1.7468,-1.7164,-1.6815,-1.631,-1.564,-1.5592,-1.5118,-1.4079,-1.4411,-1.458,-1.4549,-1.5244,-1.5766,-1.6101,-1.6436,-1.6659,-1.6802,-1.6942,-1.708,-1.7203,-1.7337,-1.7325,-1.7191,-1.7055,-1.7545,-1.8387,-1.8246,-1.9057,-2.0288,-2.0192,-2.0297,-2.0494,-2.0424,-2.0371,-2.0304,-2.0304,-2.0304,-2.0304,-2.0304,-2.0304,-2.0304,-2.0304,-2.0304,-2.0304,-2.0304,-2.0304,-2.0304,-2.0304,-2.0304,-2.0304,-2.0304,-2.0304,-2.0613,-2.1612,-2.2351,-2.3117,-2.4133,-2.4302,-2.4302,-2.4302,-2.4302,-2.4302,-2.4302,-2.4302,-2.4302,-2.4302,-2.4302,-2.4302,-2.4302,-2.4302,-2.4302,-2.4302,-2.4302,-2.4302,-2.4302,-2.4302,-2.4302,-2.4302,-2.4302,-2.4148,-2.381,-2.381,-2.3456,-2.2778,-2.212,-2.1442,-2.2076,-2.2076,-2.2043,-2.189,-2.144,-2.1076,0.0,0.0,0.0,-2.0448,-1.9872,0.0,0.0,0.0,0.0,0.0,0.0,0.0,0.0,0.0,0.0,0.0,0.0,0.0,0.0,-1.8575,-1.8386,-1.7907,-1.7324,-1.6707,-1.6051,-1.6003,-1.564,-1.4817,-1.4802,-1.5055,-1.5592,-1.5592,-1.5927,-1.661,-1.661,-1.6738,-1.7005,-1.7055,-1.7228,-1.7467,-1.7542,-1.7514,-1.7455,-1.724,-1.7472,-1.7948,-1.7775,-1.8473,-1.9594,-1.9626,-1.9922,-2.0322,-2.0395,-2.0356,-2.0304,-2.0304,-2.0304,-2.0304,-2.0304,-2.0304,-2.0304,-2.0304,-2.0304,-2.0304,-2.0304,-2.0304,-2.0304,-2.0304,-2.0304,-2.0304,-2.0304,-2.0304,-2.0505,-2.1165,-2.1843,-2.2671,-2.3902,-2.421,-2.4302,-2.4302,-2.4302,-2.4302,-2.4302,-2.4302,-2.4302,-2.4302,-2.4302,-2.4302,-2.4302,-2.4302,-2.4302,-2.4302,-2.4302,-2.4302,-2.4302,-2.4302,-2.4302,-2.4302,-2.4302,-2.3979,-2.3302,-2.384,-2.3486,-2.2305,-2.2305,-2.1658,-2.1326,0.0,0.0,0.0,-2.1204,0.0,0.0,0.0,-1.9765,-1.7951,0.0,0.0,0.0,0.0,0.0,0.0,0.0,0.0,0.0,0.0,0.0,0.0,0.0,0.0,0.0,0.0,-1.8514,-1.8496,-1.8432,-1.8116,-1.7494,-1.7462,-1.6846,-1.5529,-1.5482,-1.5513,-1.5592,-1.5592,-1.5927,-1.661,-1.661,-1.6738,-1.7005,-1.7252,-1.7507,-1.7777,-1.8005,-1.7972,-1.7755,-1.7715,-1.7616,-1.7498,-1.7636,-1.8157,-1.8899,-1.9546,-1.9704,-1.9701,-2.0291,-2.0424,-2.0304,-2.0304,-2.0304,-2.0304,-2.0304,-2.0304,-2.0304,-2.0304,-2.0304,-2.0304,-2.0304,-2.0304,-2.0304,-2.0304,-2.0304,-2.0304,-2.0304,-2.0304,-2.0505,-2.1165,-2.1843,-2.2551,-2.3286,-2.3917,-2.4302,-2.4302,-2.4302,-2.4302,-2.4302,-2.4302,-2.4302,-2.4302,-2.4302,-2.4302,-2.4302,-2.4302,-2.4302,-2.4302,-2.4302,-2.4302,-2.4302,-2.4302,-2.4302,-2.4302,-2.4302,-2.3979,-2.3302,-2.3379,-2.3025,-2.2305,-2.2305,-2.1904,0.0,0.0,0.0,0.0,0.0,0.0,-2.1045,0.0,-1.9937,0.0,0.0,0.0,0.0,0.0,0.0,0.0,-1.6993,0.0,0.0,0.0,0.0,0.0,0.0,0.0,0.0,0.0,0.0,0.0,0.0,-1.851,-1.8283,-1.792,-1.7431,-1.6844,-1.6389,-1.618,-1.618,-1.6333,-1.6552,-1.6828,-1.6993,-1.7203,-1.7472,-1.7577,-1.7789,-1.8044,-1.814,-1.8147,-1.8016,-1.7856,-1.7726,-1.7634,-1.7547,-1.7935,-1.8602,-1.9276,-1.9601,-1.983,-2.0443,-2.051,-2.0304,-2.0304,-2.0304,-2.0304,-2.0304,-2.0304,-2.0304,-2.0304,-2.0304,-2.0304,-2.0304,-2.0304,-2.0304,-2.0304,-2.0304,-2.0304,-2.0304,-2.0304,-2.0379,-2.0674,-2.1257,-2.1935,-2.2594,-2.3594,-2.4302,-2.4302,-2.4302,-2.4302,-2.4302,-2.4302,-2.4302,-2.4302,-2.4302,-2.4302,-2.4302,-2.4302,-2.4133,-2.3748,-2.3717,-2.3717,-2.3717,-2.3717,-2.3533,-2.3148,-2.3132,-2.2809,-2.2151,-2.2536,-2.2182,-2.115,-2.1535,-2.1365,-2.0099,0.0,0.0,0.0,0.0,0.0,0.0,0.0,0.0,0.0,0.0,0.0,0.0,0.0,0.0,-1.6239,0.0,-1.6747,0.0,0.0,0.0,0.0,0.0,0.0,0.0,0.0,0.0,0.0,0.0,0.0,-1.9009,-1.8346,-1.7888,-1.7715,-1.6975,-1.661,-1.661,-1.6866,-1.7005,-1.7005,-1.7276,-1.7542,-1.78,-1.78,-1.795,-1.82,-1.82,-1.82,-1.819,-1.7983,-1.7917,-1.7889,-1.7709,-1.793,-1.8388,-1.8881,-1.9271,-1.97,-2.0416,-2.0555,-2.0424,-2.0321,-2.0304,-2.0304,-2.0304,-2.0304,-2.0304,-2.0304,-2.0304,-2.0304,-2.0304,-2.0304,-2.0304,-2.0304,-2.0304,-2.0304,-2.0304,-2.0304,-2.0304,-2.0304,-2.0826,-2.1442,-2.1951,-2.2978,-2.381,-2.401,-2.3871,-2.3748,-2.3748,-2.3748,-2.3825,-2.401,-2.3871,-2.3943,-2.442,-2.4126,-2.3672,-2.3196,-2.3165,-2.3107,-2.3025,-2.3025,-2.2794,-2.232,-2.249,-2.2151,-2.1304,-2.1981,-2.1612,-2.032,-2.098,-2.0934,0.0,0.0,0.0,-2.0035,0.0,0.0,0.0,0.0,-2.0931,0.0,0.0,0.0,0.0,0.0,-1.6962,-1.6316,-1.6223,0.0,0.0,0.0,0.0,0.0,0.0,0.0,0.0,0.0,0.0,0.0,0.0,0.0,-1.9783,-1.9072,-1.8362,-1.7731,-1.6975,-1.661,-1.661,-1.6866,-1.7005,-1.7005,-1.7276,-1.7542,-1.78,-1.78,-1.795,-1.82,-1.82,-1.82,-1.82,-1.819,-1.819,-1.819,-1.8179,-1.8196,-1.8218,-1.8377,-1.86,-1.8966,-1.9968,-2.0525,-2.0728,-2.0407,-2.0304,-2.0304,-2.0304,-2.0304,-2.0304,-2.0304,-2.0304,-2.0304,-2.0304,-2.0304,-2.0304,-2.0304,-2.0304,-2.0304,-2.0304,-2.0304,-2.0304,-2.0304,-2.0826,-2.1304,-2.1319,-2.1904,-2.2578,-2.3225,-2.2778,-2.2347,-2.2347,-2.2347,-2.2609,-2.3255,-2.2748,-2.3045,-2.4733,-2.3629,-2.2836,-2.2823,-2.2823,-2.2658,-2.2351,-2.2317,-2.2317,-2.2305,-2.2932,-2.2628,-2.1304,-2.1981,-2.1612,-2.032,-2.098,-2.0934,0.0,0.0,-1.9389,-1.9879,0.0,0.0,0.0,0.0,0.0,0.0,0.0,0.0,0.0,-1.756,-1.7131,-1.6901,-1.6486,-1.6194,0.0,0.0,0.0,0.0,0.0,0.0,0.0,0.0,0.0,0.0,-2.0594,0.0,0.0,-1.9815,-1.9104,-1.8378,-1.7862,-1.7268,-1.661,-1.7216,-1.7432,-1.7248,-1.7177,-1.7467,-1.8048,-1.7507,-1.76,-1.82,-1.82,-1.82,-1.82,-1.82,-1.82,-1.82,-1.82,-1.82,-1.8254,-1.8755,-1.9131,-1.9509,-2.0332,-2.0702,-2.0745,-2.0407,-2.0304,-2.0304,-2.0304,-2.0304,-2.0304,-2.0304,-2.0304,-2.0304,-2.0304,-2.0304,-2.0304,-2.0304,-2.0304,-2.0304,-2.0304,-2.0304,-2.0304,-2.0304,-2.0472,-2.0782,-2.1227,-2.1119,-2.135,-2.2455,-2.2459,-2.2305,-2.2305,-2.2305,-2.2397,-2.2609,-2.2443,-2.2547,-2.313,-2.2541,-2.2321,-2.276,-2.2384,-2.199,-2.1661,-2.1642,-2.1427,-2.098,-2.1196,-2.1304,-2.1304,-2.1073,-2.0965,-2.0949,-2.0734,-2.052,-1.8251,-1.8538,0.0,-1.949,-1.9811,0.0,-2.0287,0.0,0.0,0.0,0.0,0.0,0.0,0.0,-1.7408,-1.6916,-1.6471,-1.6194,0.0,-1.6563,0.0,0.0,0.0,-1.9521,0.0,0.0,-2.0443,-2.0494,-2.0594,0.0,0.0,0.0,-1.9513,-1.8857,-1.835,-1.7707,-1.6879,-1.7479,-1.7586,-1.7159,-1.7041,-1.7139,-1.7356,-1.6846,-1.6898,-1.7407,-1.7666,-1.7759,-1.7804,-1.808,-1.82,-1.82,-1.82,-1.82,-1.8241,-1.8669,-1.926,-1.995,-2.0729,-2.099,-2.0926,-2.0595,-2.0407,-2.0304,-2.0304,-2.0304,-2.0304,-2.0304,-2.0304,-2.0304,-2.0304,-2.0304,-2.0304,-2.0304,-2.0304,-2.0304,-2.0304,-2.0304,-2.0304,-2.0304,-2.0304,-2.0443,-2.0872,-2.0597,-2.0657,-2.1781,-2.1735,-2.1596,-2.1596,-2.1596,-2.1673,-2.192,-2.1735,-2.1636,-2.1763,-2.193,-2.209,-2.2262,-2.1866,-2.1459,-2.1146,-2.1128,-2.0858,-2.0304,-2.0518,-2.0875,-2.1304,-2.0875,-2.0872,-2.1288,-2.0734,-2.0424]},{"header":{"parameterUnit":"m.s-1","parameterCategory":1,"la1":30.6,"la2":29.2853,"lo1":-89.7004,"lo2":-87.6739,"dy":0.0162,"dx":0.0183,"nx":112,"ny":82,"refTime":"2024-07-16T12:00:00:Z","depth":0,"parameterNumber":3,"parameterNumberName":"V-component_of_WINDS"},"data":[0.0,0.0,0.0,0.0,0.0,0.0,0.0,0.0,0.0,0.0,0.0,0.0,0.0,0.0,0.0,0.0,0.0,0.0,0.0,0.0,0.0,0.0,0.0,0.0,0.0,0.0,0.0,0.0,0.0,0.0,0.0,0.0,0.0,0.0,0.0,0.0,0.0,0.0,0.0,0.0,0.0,0.0,0.0,0.0,0.0,0.0,0.0,0.0,0.0,0.0,0.0,0.0,0.0,0.0,0.0,0.0,0.0,0.0,0.0,0.0,0.0,0.0,0.0,0.0,0.0,0.0,0.0,0.0,0.0,0.0,0.0,0.0,0.0,0.0,0.0,0.0,0.0,0.0,0.0,0.0,0.0,0.0,0.0,0.0,0.0,0.0,0.0,0.0,0.0,0.0,-1.2884,-1.3113,-1.2904,-1.2717,-1.2717,-1.2445,-1.2321,-1.2384,0.0,0.0,0.0,0.0,0.0,0.0,0.0,0.0,0.0,0.0,0.0,0.0,0.0,0.0,0.0,0.0,0.0,0.0,0.0,0.0,0.0,0.0,0.0,0.0,0.0,0.0,0.0,0.0,0.0,0.0,0.0,0.0,0.0,0.0,0.0,0.0,0.0,0.0,0.0,0.0,0.0,0.0,0.0,0.0,0.0,0.0,0.0,0.0,0.0,0.0,0.0,0.0,0.0,0.0,0.0,0.0,0.0,0.0,0.0,0.0,0.0,0.0,0.0,0.0,0.0,0.0,0.0,0.0,0.0,0.0,0.0,0.0,0.0,0.0,0.0,0.0,0.0,0.0,0.0,0.0,0.0,0.0,0.0,0.0,0.0,0.0,0.0,0.0,0.0,0.0,0.0,0.0,0.0,0.0,0.0,0.0,0.0,0.0,0.0,0.0,0.0,0.0,0.0,0.0,-1.2804,-1.2851,-1.2589,-1.2371,-1.2371,-1.2325,-1.2453,-1.2799,0.0,0.0,0.0,0.0,0.0,0.0,0.0,0.0,0.0,0.0,0.0,0.0,0.0,0.0,0.0,0.0,0.0,0.0,0.0,0.0,0.0,0.0,0.0,0.0,0.0,0.0,0.0,0.0,0.0,0.0,0.0,0.0,0.0,0.0,0.0,0.0,0.0,0.0,0.0,0.0,0.0,0.0,0.0,0.0,0.0,0.0,0.0,0.0,0.0,0.0,0.0,0.0,0.0,0.0,0.0,0.0,0.0,0.0,0.0,0.0,0.0,0.0,0.0,0.0,0.0,0.0,0.0,0.0,0.0,0.0,0.0,0.0,0.0,0.0,0.0,0.0,0.0,0.0,0.0,0.0,0.0,0.0,0.0,0.0,0.0,0.0,0.0,0.0,0.0,0.0,0.0,0.0,0.0,0.0,0.0,0.0,0.0,0.0,0.0,0.0,0.0,0.0,0.0,-1.2616,-1.2723,-1.2563,-1.2385,-1.2305,-1.2305,-1.2703,-1.2899,-1.2802,-1.3782,0.0,0.0,0.0,0.0,0.0,0.0,0.0,0.0,0.0,0.0,0.0,0.0,0.0,0.0,0.0,0.0,0.0,0.0,0.0,0.0,0.0,0.0,0.0,0.0,0.0,0.0,0.0,0.0,0.0,0.0,0.0,0.0,0.0,0.0,0.0,0.0,0.0,0.0,0.0,0.0,0.0,0.0,0.0,0.0,0.0,0.0,0.0,0.0,0.0,0.0,0.0,0.0,0.0,0.0,0.0,0.0,0.0,0.0,0.0,0.0,0.0,0.0,0.0,0.0,0.0,0.0,0.0,0.0,0.0,0.0,0.0,0.0,0.0,0.0,0.0,0.0,0.0,0.0,0.0,0.0,0.0,0.0,0.0,0.0,0.0,0.0,0.0,0.0,0.0,0.0,0.0,0.0,0.0,0.0,0.0,0.0,0.0,0.0,0.0,0.0,0.0,0.0,-1.2804,-1.275,-1.2345,-1.2305,-1.2305,-1.2305,-1.2961,-1.321,-1.2946,-1.4147,0.0,0.0,0.0,0.0,0.0,0.0,0.0,0.0,0.0,0.0,0.0,0.0,0.0,0.0,0.0,0.0,0.0,0.0,0.0,0.0,0.0,0.0,0.0,0.0,0.0,0.0,0.0,0.0,0.0,0.0,0.0,0.0,0.0,0.0,0.0,0.0,0.0,0.0,0.0,0.0,0.0,0.0,0.0,0.0,0.0,0.0,0.0,0.0,0.0,0.0,0.0,0.0,0.0,0.0,0.0,0.0,0.0,0.0,0.0,0.0,0.0,0.0,0.0,0.0,0.0,0.0,0.0,0.0,0.0,0.0,0.0,0.0,0.0,0.0,0.0,0.0,0.0,0.0,0.0,0.0,0.0,0.0,0.0,0.0,0.0,0.0,0.0,0.0,0.0,0.0,0.0,0.0,0.0,0.0,0.0,0.0,0.0,0.0,0.0,0.0,0.0,0.0,-1.2826,-1.2953,-1.2365,-1.2305,-1.2305,-1.2305,-1.2699,-1.3113,-1.3502,-1.4104,0.0,0.0,0.0,0.0,0.0,0.0,0.0,0.0,0.0,0.0,0.0,0.0,0.0,0.0,0.0,0.0,0.0,0.0,0.0,0.0,0.0,0.0,0.0,0.0,0.0,0.0,0.0,0.0,0.0,0.0,0.0,0.0,0.0,0.0,0.0,0.0,0.0,0.0,0.0,0.0,0.0,0.0,0.0,0.0,0.0,0.0,0.0,0.0,0.0,0.0,0.0,0.0,0.0,0.0,0.0,0.0,0.0,0.0,0.0,0.0,0.0,0.0,0.0,0.0,0.0,0.0,0.0,0.0,0.0,0.0,0.0,0.0,0.0,0.0,0.0,0.0,0.0,0.0,0.0,0.0,0.0,0.0,0.0,0.0,0.0,0.0,0.0,0.0,0.0,0.0,0.0,0.0,0.0,0.0,0.0,0.0,0.0,0.0,0.0,0.0,0.0,0.0,-1.2665,-1.2766,-1.2345,-1.2305,-1.2342,-1.2489,-1.3497,-1.4103,-1.3966,0.0,0.0,0.0,0.0,0.0,0.0,0.0,0.0,0.0,0.0,0.0,0.0,0.0,0.0,0.0,0.0,0.0,0.0,0.0,0.0,0.0,0.0,0.0,0.0,0.0,0.0,0.0,0.0,0.0,0.0,0.0,0.0,0.0,0.0,0.0,0.0,0.0,0.0,0.0,0.0,0.0,0.0,0.0,0.0,0.0,0.0,0.0,0.0,0.0,0.0,0.0,0.0,0.0,0.0,0.0,0.0,0.0,0.0,0.0,0.0,0.0,0.0,0.0,0.0,0.0,0.0,0.0,0.0,0.0,0.0,0.0,0.0,0.0,0.0,0.0,0.0,0.0,0.0,0.0,0.0,0.0,0.0,0.0,0.0,0.0,0.0,0.0,0.0,0.0,0.0,0.0,0.0,0.0,0.0,0.0,0.0,0.0,0.0,0.0,0.0,0.0,0.0,-1.2138,-1.2543,-1.267,-1.2338,-1.2378,-1.2562,-1.2922,-1.395,-1.4558,-1.4551,0.0,0.0,0.0,0.0,0.0,0.0,0.0,0.0,0.0,0.0,0.0,0.0,0.0,0.0,0.0,0.0,0.0,0.0,0.0,0.0,0.0,0.0,0.0,0.0,0.0,0.0,0.0,0.0,0.0,0.0,0.0,0.0,0.0,0.0,0.0,0.0,0.0,0.0,0.0,0.0,0.0,0.0,0.0,0.0,0.0,0.0,0.0,0.0,0.0,0.0,0.0,0.0,0.0,0.0,0.0,0.0,0.0,0.0,0.0,0.0,0.0,0.0,0.0,0.0,0.0,0.0,0.0,0.0,0.0,0.0,0.0,0.0,0.0,0.0,0.0,0.0,0.0,0.0,0.0,0.0,0.0,0.0,0.0,0.0,0.0,0.0,0.0,0.0,0.0,0.0,0.0,0.0,0.0,0.0,0.0,0.0,0.0,0.0,0.0,0.0,0.0,0.0,-1.1906,-1.2415,-1.267,-1.2331,-1.2489,-1.2922,-1.3629,-1.3821,-1.432,0.0,0.0,0.0,0.0,0.0,0.0,0.0,0.0,0.0,0.0,0.0,0.0,0.0,0.0,0.0,0.0,0.0,0.0,0.0,0.0,0.0,0.0,0.0,0.0,0.0,0.0,0.0,0.0,0.0,0.0,0.0,0.0,0.0,0.0,0.0,0.0,0.0,0.0,0.0,0.0,0.0,0.0,0.0,0.0,0.0,0.0,0.0,0.0,0.0,0.0,0.0,0.0,0.0,0.0,0.0,0.0,0.0,0.0,0.0,0.0,0.0,0.0,0.0,0.0,0.0,0.0,0.0,0.0,0.0,0.0,0.0,0.0,0.0,0.0,0.0,0.0,0.0,0.0,0.0,0.0,0.0,0.0,0.0,0.0,0.0,0.0,0.0,0.0,0.0,0.0,0.0,0.0,0.0,0.0,0.0,0.0,0.0,0.0,0.0,0.0,0.0,0.0,0.0,-1.1879,-1.2415,-1.289,-1.3134,-1.328,-1.3612,-1.4209,-1.4917,-1.523,-1.5047,0.0,0.0,0.0,0.0,0.0,0.0,0.0,0.0,0.0,0.0,0.0,0.0,0.0,0.0,0.0,0.0,0.0,0.0,0.0,0.0,0.0,0.0,0.0,0.0,0.0,0.0,0.0,0.0,0.0,0.0,0.0,0.0,0.0,0.0,0.0,0.0,0.0,0.0,0.0,0.0,0.0,0.0,0.0,0.0,0.0,0.0,0.0,0.0,0.0,0.0,0.0,0.0,0.0,0.0,0.0,0.0,0.0,0.0,0.0,0.0,0.0,0.0,0.0,0.0,0.0,0.0,0.0,0.0,0.0,0.0,0.0,0.0,0.0,0.0,0.0,0.0,0.0,0.0,0.0,0.0,0.0,0.0,0.0,0.0,0.0,0.0,0.0,0.0,0.0,0.0,0.0,0.0,0.0,0.0,0.0,0.0,0.0,0.0,0.0,0.0,0.0,0.0,-1.167,-1.257,-1.3312,-1.355,-1.3833,-1.4299,-1.5002,-1.5321,-1.5465,-1.5371,0.0,0.0,0.0,0.0,0.0,0.0,0.0,0.0,0.0,0.0,0.0,0.0,0.0,0.0,0.0,0.0,0.0,0.0,0.0,0.0,0.0,0.0,0.0,0.0,0.0,0.0,0.0,0.0,0.0,0.0,0.0,0.0,0.0,0.0,0.0,0.0,0.0,0.0,0.0,0.0,0.0,0.0,0.0,0.0,0.0,0.0,0.0,0.0,0.0,0.0,0.0,0.0,0.0,0.0,0.0,0.0,0.0,0.0,0.0,0.0,0.0,0.0,0.0,0.0,0.0,0.0,0.0,0.0,0.0,0.0,0.0,0.0,0.0,0.0,0.0,0.0,0.0,0.0,0.0,0.0,0.0,0.0,0.0,0.0,0.0,0.0,0.0,0.0,0.0,0.0,0.0,0.0,0.0,0.0,0.0,0.0,0.0,0.0,0.0,0.0,0.0,0.0,-1.1478,-1.2854,-1.3807,-1.3835,-1.4282,-1.4926,-1.583,-1.5342,-1.5293,-1.6006,0.0,0.0,0.0,0.0,0.0,0.0,0.0,0.0,0.0,0.0,0.0,0.0,0.0,0.0,0.0,0.0,0.0,0.0,0.0,0.0,0.0,0.0,0.0,0.0,0.0,0.0,0.0,0.0,0.0,0.0,0.0,0.0,0.0,0.0,0.0,0.0,0.0,0.0,0.0,0.0,0.0,0.0,0.0,0.0,0.0,0.0,0.0,0.0,0.0,0.0,0.0,0.0,0.0,0.0,0.0,0.0,0.0,0.0,0.0,0.0,-1.1499,0.0,0.0,0.0,0.0,0.0,0.0,0.0,0.0,0.0,0.0,0.0,0.0,0.0,0.0,0.0,0.0,0.0,0.0,0.0,0.0,0.0,0.0,0.0,0.0,0.0,0.0,0.0,0.0,0.0,0.0,0.0,0.0,0.0,0.0,0.0,0.0,0.0,0.0,0.0,0.0,0.0,-1.2007,-1.3114,-1.4086,-1.4655,-1.4976,-1.5321,-1.5767,-1.5825,-1.5758,-1.5576,-1.5469,0.0,0.0,0.0,0.0,0.0,0.0,0.0,0.0,0.0,0.0,0.0,0.0,0.0,0.0,0.0,0.0,0.0,0.0,0.0,0.0,0.0,0.0,0.0,0.0,0.0,0.0,0.0,0.0,0.0,0.0,0.0,0.0,0.0,0.0,0.0,0.0,0.0,0.0,0.0,0.0,0.0,0.0,0.0,0.0,0.0,0.0,0.0,0.0,0.0,0.0,0.0,0.0,0.0,0.0,0.0,0.0,0.0,0.0,0.0,0.0,-1.1374,0.0,0.0,0.0,0.0,0.0,0.0,0.0,0.0,0.0,0.0,0.0,0.0,0.0,0.0,0.0,0.0,0.0,0.0,0.0,0.0,0.0,0.0,0.0,0.0,0.0,0.0,0.0,0.0,0.0,0.0,0.0,0.0,0.0,0.0,0.0,0.0,0.0,0.0,0.0,0.0,-1.3072,-1.3974,-1.4722,-1.5104,-1.5392,-1.5639,-1.5932,-1.5849,-1.5654,-1.543,-1.541,0.0,0.0,0.0,0.0,0.0,0.0,0.0,0.0,0.0,0.0,0.0,0.0,0.0,0.0,0.0,0.0,0.0,0.0,0.0,0.0,0.0,0.0,0.0,0.0,0.0,0.0,0.0,0.0,0.0,0.0,0.0,0.0,0.0,0.0,0.0,0.0,0.0,0.0,0.0,0.0,0.0,0.0,0.0,0.0,0.0,0.0,0.0,0.0,0.0,0.0,0.0,0.0,0.0,-1.2141,-1.2225,-1.2452,-1.2194,-1.2187,-1.2328,-1.1528,-1.1329,-1.165,-1.1568,0.0,0.0,0.0,0.0,0.0,0.0,0.0,0.0,0.0,0.0,0.0,0.0,0.0,0.0,0.0,0.0,0.0,0.0,0.0,0.0,0.0,0.0,0.0,0.0,-1.5422,-1.5802,0.0,0.0,0.0,0.0,0.0,0.0,0.0,0.0,0.0,0.0,0.0,0.0,-1.4094,-1.4813,-1.531,-1.5314,-1.5569,-1.5806,-1.5947,-1.5615,-1.541,-1.541,-1.541,-1.5098,0.0,0.0,0.0,0.0,0.0,0.0,0.0,0.0,0.0,0.0,0.0,0.0,0.0,0.0,0.0,0.0,0.0,0.0,0.0,0.0,0.0,0.0,0.0,0.0,0.0,0.0,0.0,0.0,0.0,0.0,0.0,0.0,-0.9407,-0.9394,0.0,0.0,0.0,0.0,0.0,0.0,0.0,0.0,0.0,0.0,0.0,0.0,0.0,-1.2478,-1.2973,-1.3053,-1.3073,-1.3033,-1.3033,-1.3053,-1.308,-1.2811,-1.269,-1.2723,-1.2607,0.0,-1.2589,-1.2291,0.0,0.0,0.0,0.0,0.0,0.0,0.0,0.0,0.0,0.0,0.0,0.0,0.0,0.0,0.0,0.0,0.0,0.0,0.0,0.0,0.0,0.0,-1.7234,-1.7542,-1.7658,-1.7821,0.0,-1.6456,-1.4984,-1.5207,-1.4675,0.0,0.0,0.0,0.0,0.0,0.0,0.0,-1.4221,-1.4885,-1.5399,-1.5399,-1.5439,-1.5469,-1.5498,-1.5449,-1.541,-1.541,-1.541,-1.5361,-1.5215,-1.5,0.0,0.0,0.0,0.0,0.0,0.0,0.0,0.0,0.0,0.0,0.0,0.0,0.0,0.0,0.0,0.0,0.0,0.0,0.0,0.0,0.0,0.0,0.0,0.0,0.0,0.0,0.0,0.0,0.0,-0.9134,-0.9285,-0.9189,-0.8885,-0.8607,0.0,0.0,0.0,0.0,0.0,0.0,0.0,0.0,0.0,-1.2113,-1.2726,-1.3106,-1.3213,-1.3333,-1.328,-1.2991,-1.2991,-1.2859,-1.2692,-1.2559,-1.2536,-1.2536,-1.2536,-1.263,-1.277,-1.2643,-1.2298,-1.1891,0.0,0.0,0.0,0.0,-1.2263,-1.3117,-1.4154,-1.5106,0.0,-1.6342,0.0,0.0,0.0,0.0,0.0,0.0,0.0,0.0,0.0,0.0,0.0,-1.7779,-1.7954,-1.8191,-1.8623,-1.7899,-1.7241,0.0,-1.6819,-1.6161,-1.5635,0.0,0.0,0.0,0.0,-1.5378,-1.5281,-1.535,-1.541,-1.541,-1.541,-1.541,-1.541,-1.541,-1.541,-1.541,-1.541,-1.5303,-1.5068,-1.5107,-1.5117,0.0,0.0,0.0,0.0,0.0,0.0,0.0,0.0,0.0,0.0,0.0,0.0,0.0,0.0,0.0,0.0,0.0,0.0,0.0,0.0,0.0,0.0,0.0,0.0,0.0,0.0,0.0,0.0,-0.9423,-0.954,-0.9459,-0.933,-0.9265,0.0,0.0,0.0,0.0,0.0,0.0,-1.1298,-1.1248,-1.1552,-1.2388,-1.3196,-1.3533,-1.3434,-1.3533,-1.338,-1.2904,-1.2824,-1.263,-1.2305,-1.2305,-1.2305,-1.2305,-1.2305,-1.2425,-1.2677,-1.2757,-1.261,-1.2305,-1.2305,-1.2321,-1.2418,-1.2862,-1.3461,-1.4294,-1.5564,-1.6322,-1.672,-1.7098,0.0,-1.6908,-1.6092,0.0,0.0,0.0,0.0,-1.7394,-1.7596,-1.7734,-1.7734,-1.7422,-1.7504,-1.7743,-1.8064,-1.8434,-1.876,0.0,-1.8519,-1.7864,-1.7051,0.0,0.0,0.0,0.0,-1.6009,-1.5928,-1.5615,-1.541,-1.541,-1.541,-1.541,-1.541,-1.541,-1.541,-1.541,-1.541,-1.5273,-1.4961,-1.5244,-1.5264,-1.4951,0.0,0.0,0.0,0.0,0.0,0.0,0.0,0.0,0.0,0.0,0.0,0.0,0.0,0.0,0.0,0.0,0.0,0.0,0.0,0.0,0.0,0.0,0.0,0.0,0.0,0.0,0.0,0.0,0.0,-1.0877,-1.0674,0.0,0.0,0.0,0.0,-1.0945,-1.1089,-1.174,-1.2995,-1.2189,-1.2225,-1.3478,-1.3552,-1.3733,-1.4041,-1.3733,-1.3447,-1.318,-1.2924,-1.263,-1.2305,-1.2305,-1.2305,-1.2305,-1.2305,-1.2311,-1.2345,-1.2663,-1.261,-1.2305,-1.2305,-1.2422,-1.2618,-1.2904,-1.4194,-1.5832,-1.6229,-1.6847,-1.7523,-1.7898,-1.7789,-1.7321,-1.6523,-1.627,0.0,0.0,-1.6908,-1.711,-1.7853,-1.7532,-1.6963,-1.6936,-1.6661,-1.6447,-1.6572,-1.7262,-1.8089,0.0,-1.8798,-1.8532,-1.8088,0.0,-1.735,-1.6475,-1.6541,-1.6365,-1.5547,-1.542,-1.541,-1.541,-1.541,-1.541,-1.541,-1.541,-1.541,-1.541,-1.541,-1.54,-1.5381,-1.54,-1.54,-1.5381,-1.501,0.0,0.0,0.0,0.0,0.0,0.0,0.0,0.0,0.0,0.0,0.0,0.0,0.0,0.0,0.0,0.0,0.0,0.0,0.0,0.0,0.0,0.0,0.0,0.0,0.0,0.0,0.0,0.0,-1.0817,-1.0885,0.0,-1.0906,-1.1095,-1.1459,-1.2127,-1.2369,-1.2785,-1.3427,-1.3139,-1.3217,-1.3915,-1.3928,-1.3981,-1.4088,-1.3753,-1.346,-1.3206,-1.2938,-1.263,-1.2305,-1.2305,-1.2305,-1.2305,-1.2305,-1.2305,-1.2348,-1.3005,-1.2873,-1.2342,-1.2879,-1.3107,-1.331,-1.4414,-1.5248,-1.5912,-1.6528,-1.7062,-1.7523,-1.7669,-1.744,-1.7064,-1.678,-1.6697,-1.678,-1.7174,-1.7101,-1.6972,-1.7266,-1.6936,-1.6459,-1.6184,-1.6085,-1.6146,-1.6429,-1.6953,-1.7425,-1.7675,-1.8345,-1.8787,-1.8463,-1.8331,-1.7881,-1.6767,-1.6665,-1.6385,-1.5498,-1.541,-1.541,-1.541,-1.541,-1.541,-1.541,-1.541,-1.5293,-1.5029,-1.501,-1.501,-1.501,-1.501,-1.5137,-1.5371,-1.5264,-1.5127,0.0,0.0,0.0,0.0,0.0,0.0,0.0,0.0,0.0,0.0,0.0,0.0,0.0,0.0,0.0,0.0,0.0,0.0,0.0,0.0,0.0,0.0,0.0,0.0,0.0,0.0,-1.1119,-1.1093,-1.1358,-1.1484,-1.1484,-1.1684,-1.2062,-1.2739,-1.2978,-1.3227,-1.358,-1.36,-1.3693,-1.3928,-1.3941,-1.3888,-1.3794,-1.3494,-1.3247,-1.3053,-1.2784,-1.2492,-1.2305,-1.2305,-1.2305,-1.2305,-1.2305,-1.2445,-1.2732,-1.328,-1.331,-1.3127,-1.3673,-1.4034,-1.4394,-1.5436,-1.5974,-1.6228,-1.6726,-1.7073,-1.7293,-1.7293,-1.7211,-1.7082,-1.6945,-1.7,-1.7101,-1.7101,-1.6908,-1.6679,-1.6532,-1.6202,-1.5835,-1.556,-1.5512,-1.5601,-1.5912,-1.6338,-1.6658,-1.668,-1.7755,-1.8553,-1.8256,-1.8213,-1.7847,-1.6853,-1.657,-1.624,-1.5508,-1.541,-1.541,-1.541,-1.541,-1.541,-1.541,-1.541,-1.5293,-1.501,-1.5,-1.5,-1.5,-1.4863,-1.4922,-1.5195,-1.5205,-1.499,-1.457,0.0,0.0,0.0,0.0,0.0,0.0,0.0,0.0,0.0,0.0,0.0,0.0,0.0,0.0,0.0,0.0,0.0,0.0,0.0,0.0,0.0,0.0,0.0,-1.062,-1.1082,-1.155,-1.1879,-1.2131,-1.2305,-1.2305,-1.2311,-1.2438,-1.2764,-1.2797,-1.3052,-1.356,-1.3586,-1.3586,-1.3586,-1.3586,-1.3453,-1.3213,-1.2945,-1.2784,-1.2784,-1.2445,-1.2305,-1.2305,-1.2305,-1.2298,-1.2335,-1.2335,-1.2806,-1.3535,-1.3564,-1.3998,-1.4637,-1.4637,-1.5108,-1.5798,-1.5833,-1.6298,-1.6908,-1.6908,-1.6908,-1.6908,-1.6908,-1.7165,-1.7403,-1.7027,-1.7165,-1.7293,-1.6532,-1.6303,-1.6184,-1.5771,-1.5409,-1.5115,-1.5084,-1.4893,-1.4745,-1.497,-1.5403,-1.5842,-1.6045,-1.708,-1.7822,-1.7432,-1.7363,-1.7217,-1.6746,-1.6338,0.0,-1.5469,-1.541,-1.541,-1.541,-1.541,-1.541,-1.541,-1.541,-1.5371,-1.5391,-1.5391,-1.5391,-1.5391,-1.5,-1.4823,-1.4833,-1.4833,-1.46,-1.4172,0.0,0.0,0.0,0.0,0.0,0.0,0.0,0.0,0.0,0.0,0.0,0.0,0.0,0.0,0.0,0.0,0.0,0.0,0.0,0.0,0.0,-1.049,-1.0949,-1.1156,-1.151,-1.1857,-1.2144,-1.2258,-1.2305,-1.2305,-1.2536,-1.2697,-1.2777,-1.2998,-1.3153,-1.328,-1.3327,-1.3327,-1.3327,-1.3327,-1.3287,-1.3213,-1.2945,-1.2784,-1.2784,-1.2445,-1.2305,-1.2305,-1.2305,-1.2629,-1.3171,-1.3171,-1.36,-1.435,-1.4939,-1.5294,-1.5471,-1.5471,-1.5613,-1.5868,-1.6403,-1.6726,-1.6908,-1.6908,-1.6908,-1.6908,-1.6908,-1.6982,-1.7046,-1.6936,-1.678,-1.6597,-1.6343,-1.6197,-1.5942,-1.5411,-1.5292,-1.5241,-1.4883,-1.4868,-1.497,-1.5117,-1.5351,-1.5537,-1.5586,-1.6133,-1.667,-1.6843,-1.6882,-1.6758,-1.6318,-1.6173,0.0,-1.5469,-1.541,-1.541,-1.541,-1.541,-1.541,-1.541,-1.541,-1.5283,-1.498,-1.4951,-1.4951,-1.4951,-1.4844,-1.4932,-1.5234,-1.5244,-1.5332,0.0,0.0,0.0,0.0,0.0,0.0,0.0,0.0,0.0,0.0,0.0,0.0,0.0,0.0,0.0,0.0,0.0,0.0,0.0,0.0,0.0,0.0,-1.0868,-1.1316,-1.173,-1.1944,-1.2118,-1.2278,-1.2305,-1.2305,-1.2305,-1.2496,-1.2596,-1.2596,-1.2726,-1.2886,-1.3013,-1.3019,-1.3019,-1.3019,-1.3019,-1.2953,-1.2832,-1.269,-1.2596,-1.2596,-1.2711,-1.2806,-1.2813,-1.3135,-1.3528,0.0,-1.3962,-1.4394,-1.5144,-1.5613,-1.5974,0.0,0.0,0.0,0.0,0.0,-1.6798,-1.6661,-1.6661,-1.6661,-1.6661,-1.6661,-1.6771,-1.6908,-1.6908,-1.6633,-1.6318,-1.6398,-1.6205,-1.5936,-1.568,-1.5733,-1.5777,-1.5517,-1.5642,-1.5855,-1.5941,-1.6065,-1.614,-1.614,0.0,0.0,-1.6868,-1.6656,-1.6367,-1.6134,-1.5938,-1.5693,-1.5449,-1.541,-1.541,-1.541,-1.541,-1.541,-1.541,-1.541,0.0,0.0,0.0,-1.5084,-1.5164,-1.5192,0.0,0.0,0.0,0.0,0.0,0.0,0.0,0.0,-1.708,-1.7754,0.0,0.0,0.0,0.0,0.0,0.0,0.0,0.0,0.0,0.0,0.0,0.0,0.0,0.0,0.0,0.0,-1.1189,-1.1535,-1.2124,-1.2204,-1.2211,-1.2245,-1.2251,-1.2251,-1.2251,-1.2251,-1.2265,-1.2298,-1.2271,-1.2385,-1.2717,0.0,0.0,0.0,0.0,-1.2603,-1.2305,-1.2305,-1.2321,-1.2361,-1.3012,-1.3389,-1.3497,-1.4137,-1.451,-1.4652,-1.4652,-1.5122,-1.5834,-1.5791,-1.6165,-1.678,-1.6872,-1.6881,-1.6844,-1.6844,-1.6587,0.0,-1.6248,0.0,0.0,-1.6303,-1.6585,-1.6938,-1.6879,-1.6594,-1.6388,-1.6504,-1.6309,-1.6108,-1.6272,-1.6482,-1.6624,-1.6578,-1.6775,-1.7011,-1.7028,-1.7129,-1.7202,-1.7202,-1.7202,-1.7202,-1.7202,-1.6643,-1.6217,-1.6217,-1.5861,-1.5575,-1.5497,-1.5497,-1.5468,-1.541,0.0,0.0,-1.541,-1.5468,-1.5468,-1.541,-1.541,-1.5521,-1.5759,-1.5776,-1.5804,-1.5886,-1.5741,-1.5871,-1.6255,-1.7101,-1.7501,-1.7451,-1.7051,-1.7715,0.0,0.0,0.0,0.0,0.0,0.0,0.0,0.0,0.0,0.0,0.0,0.0,0.0,0.0,0.0,-1.0701,-1.0889,-1.1196,-1.155,-1.1555,-1.1683,-1.196,-1.1986,-1.1986,-1.1986,-1.1986,-1.2087,-1.2285,-1.2084,-1.2114,-1.2371,-1.2385,-1.2385,-1.2385,-1.2385,-1.2365,-1.2305,-1.2305,-1.2476,-1.2771,0.0,0.0,-1.3429,-1.3326,-1.3944,-1.5077,-1.5077,-1.5522,-1.6168,-1.5858,-1.5787,-1.5991,-1.6652,-1.6716,-1.6431,-1.6431,-1.6166,-1.5808,-1.5808,-1.5808,-1.5863,-1.6178,-1.6759,-1.7206,-1.6591,-1.6534,0.0,-1.6237,-1.6237,-1.6397,-1.6457,-1.6961,-1.7379,-1.7,-1.6955,-1.7028,-1.7157,-1.7174,-1.7202,-1.7202,-1.7202,-1.7202,-1.7202,-1.7082,-1.7006,-1.7006,-1.692,-1.6669,-1.6197,-1.614,-1.594,-1.5439,-1.541,-1.541,-1.541,-1.5864,-1.5911,-1.5439,-1.541,-1.5632,-1.6149,-1.6177,-1.6392,-1.6894,-1.7302,-1.7434,-1.7297,-1.7901,-1.8099,-1.7881,-1.7803,-1.8091,0.0,0.0,0.0,0.0,0.0,0.0,0.0,0.0,0.0,0.0,0.0,-1.1888,-1.1805,0.0,-1.114,-1.1277,-1.1123,-1.1096,-1.1349,-1.1262,-1.1316,-1.161,-1.165,-1.165,-1.165,-1.165,-1.171,-1.185,-1.173,-1.171,-1.1857,-1.2004,-1.2084,-1.2084,-1.2225,-1.2305,-1.2305,-1.2158,-1.237,-1.2889,-1.2444,-1.2692,-1.3502,-1.3751,-1.4236,-1.4965,-1.5289,-1.5662,-1.5982,-1.578,-1.5689,-1.5735,-1.6138,-1.6175,-1.6001,-1.6001,-1.5744,-1.5395,-1.5395,-1.5395,-1.5432,-1.5643,-1.6288,-1.6925,-1.6556,-1.6624,-1.686,-1.6987,-1.6972,-1.7045,-1.7446,-1.7897,-1.8197,-1.7963,-1.7952,-1.8023,-1.8093,-1.8093,-1.8093,-1.8093,-1.8093,-1.8093,-1.8093,-1.8093,-1.7902,-1.7285,-1.7202,-1.709,-1.6782,-1.6754,-1.6641,-1.633,-1.6312,-1.6312,-1.6312,-1.6585,-1.65,-1.5882,-1.6415,-1.6754,-1.6754,-1.7034,-1.7341,-1.7644,-1.8096,-1.8276,-1.8139,-1.851,-1.8629,-1.8496,-1.8168,-1.8208,0.0,0.0,0.0,0.0,0.0,0.0,0.0,-1.1959,-1.1825,-1.2542,-1.235,-1.2244,-1.2789,-1.199,-1.1412,-1.1845,-1.1358,-1.0989,-1.1223,-1.1056,-1.0995,-1.1229,-1.1309,-1.1309,-1.1309,-1.1309,-1.1329,-1.1389,-1.1342,-1.1335,-1.1389,-1.165,-1.1784,-1.1784,-1.2011,-1.2204,-1.2313,-1.2111,-1.2375,-1.3107,-1.2803,-1.307,-1.3778,-1.4333,-1.4659,-1.4798,-1.5346,-1.5533,-1.546,-1.546,-1.546,-1.546,-1.546,-1.546,-1.5469,-1.5542,-1.5322,-1.4983,-1.4983,-1.5044,-1.5176,-1.525,-1.599,-1.6853,-1.6697,-1.686,-1.7219,-1.7745,-1.7677,-1.7639,-1.8425,-1.8732,-1.8851,-1.8851,-1.8919,-1.8987,-1.8987,-1.8987,-1.8987,-1.8987,-1.8987,-1.8987,-1.8987,-1.8987,-1.8682,-1.7699,-1.7534,-1.7506,-1.7396,-1.7368,-1.7341,-1.7202,-1.7202,-1.7257,-1.7368,-1.7257,-1.7034,-1.6669,-1.7451,-1.7765,-1.7396,-1.7836,-1.8147,-1.8255,-1.8696,-1.8844,-1.8725,-1.8945,-1.8975,-1.8854,-1.8263,-1.8159,-1.5131,-1.472,-1.4362,-1.4284,-1.3493,-1.272,0.0,-1.2376,-1.2156,-1.2597,-1.2663,-1.2671,-1.2846,-1.2305,-1.1743,-1.1569,-1.1045,-1.0653,-1.0687,-1.066,-1.0653,-1.0687,-1.0882,-1.1042,-1.1042,-1.1042,-1.1149,-1.1375,-1.1189,-1.1156,-1.1375,-1.1422,-1.1476,-1.1476,-1.151,-1.1792,-1.2375,-1.2373,-1.2843,-1.3765,-1.3212,-1.3454,-1.4381,-1.4231,-1.4482,-1.5073,-1.5135,-1.4964,-1.4643,-1.4643,-1.4643,-1.4643,-1.4643,-1.4643,-1.4689,-1.5038,-1.4919,-1.4579,-1.4579,-1.4918,-1.5429,-1.5767,-1.6787,-1.771,-1.7057,-1.7332,-1.7828,-1.7533,-1.7562,-1.7831,-1.8572,-1.8866,-1.8999,-1.8999,-1.8987,-1.8987,-1.8987,-1.8987,-1.8987,-1.8987,-1.8987,-1.8987,-1.8987,-1.8987,-1.896,-1.8827,-1.8789,-1.8602,-1.8066,-1.8011,-1.7781,-1.7257,-1.7202,-1.7424,-1.7957,-1.7506,-1.7396,-1.7863,-1.7506,-1.7506,-1.7984,-1.8066,-1.8348,-1.8881,-1.94,-1.9378,-1.88,-1.9116,-1.8967,-1.8378,-1.8124,-1.8037,-1.5118,-1.4971,-1.4811,-1.4811,-1.4269,-1.3647,-1.3338,-1.288,-1.2531,-1.2683,-1.2689,-1.2857,-1.3387,-1.2917,-1.2508,-1.2655,-1.1787,-1.1115,-1.1115,-1.0807,-1.0593,-1.0593,-1.07,-1.0774,-1.0774,-1.0774,-1.0821,-1.0915,-1.0841,-1.0827,-1.0915,-1.1082,-1.1176,-1.1176,-1.1302,-1.173,-1.2403,-1.2262,-1.2741,-1.3901,-1.3081,-1.3126,-1.392,-1.3796,-1.3995,-1.4405,-1.4653,-1.4524,-1.4167,-1.4414,-1.4515,-1.4515,-1.4515,-1.4515,-1.4533,-1.4698,-1.4653,-1.4515,-1.4515,-1.4911,-1.5439,-1.5586,-1.6572,-1.7575,-1.728,-1.7744,-1.8336,-1.8239,-1.829,-1.8425,-1.8813,-1.8972,-1.8987,-1.8987,-1.8987,-1.8987,-1.8987,-1.8987,-1.8987,-1.8987,-1.8987,-1.8987,-1.8987,-1.8987,-1.8987,-1.8987,-1.8987,-1.8907,-1.8655,-1.8629,-1.8521,-1.8255,-1.8267,-1.8348,-1.8602,-1.8402,-1.8213,-1.8093,-1.8174,-1.8201,-1.8093,-1.8429,-1.8735,-1.8987,-1.9543,-1.967,-1.938,-1.9734,-1.9543,-1.8871,-1.8682,-1.8361,-1.483,-1.4913,-1.4947,-1.5073,-1.4743,-1.4303,-1.3905,-1.3409,-1.2959,-1.278,-1.2719,-1.2891,-1.347,-1.31,-1.2862,-1.3267,-1.2464,-1.1694,-1.1514,-1.1115,-1.0776,-1.0624,-1.0593,-1.0593,-1.0593,-1.0593,-1.0593,-1.0593,-1.0593,-1.0593,-1.0593,-1.0787,-1.0973,-1.1129,-1.1334,-1.1843,-1.2694,-1.2523,-1.2972,-1.4068,-1.3386,-1.3321,-1.3791,-1.3791,-1.3818,-1.3929,-1.4203,-1.4102,-1.3773,-1.4057,-1.4176,-1.4176,-1.4176,-1.424,-1.4341,-1.4341,-1.4444,-1.4556,-1.4556,-1.5098,-1.5777,-1.5777,-1.668,-1.7722,-1.7722,-1.8143,-1.8625,-1.8771,-1.8798,-1.8825,-1.8972,-1.8987,-1.8987,-1.8987,-1.8987,-1.8987,-1.8987,-1.8987,-1.8987,-1.8987,-1.8987,-1.8987,-1.8987,-1.8987,-1.8987,-1.8987,-1.8987,-1.8987,-1.8987,-1.8987,-1.8987,-1.8987,-1.8987,-1.8987,-1.8987,-1.8987,-1.8815,-1.8375,-1.8762,-1.8789,-1.8375,-1.8762,-1.8987,-1.8987,-1.9372,-1.9591,-1.9591,-1.9802,-1.9701,-1.9355,-1.9158,-1.8798,-1.4291,-1.4408,-1.4522,-1.4993,-1.4743,-1.4396,-1.4373,-1.3965,-1.342,-1.2905,-1.2808,-1.2772,-1.2746,-1.2501,-1.2461,-1.2854,-1.2666,-1.2235,-1.1608,-1.1483,-1.1272,-1.0688,-1.0593,-1.0593,-1.0593,-1.0593,-1.0593,-1.0593,-1.0593,-1.0593,-1.0593,-1.06,-1.0884,-1.1474,-1.1474,-1.2127,-1.3454,-1.3467,-1.3808,-1.4465,-1.4455,-1.4446,-1.4476,-1.4476,-1.4247,-1.3911,-1.3901,-1.3681,-1.3314,-1.3323,-1.3332,-1.3332,-1.3332,-1.3561,-1.3929,-1.3929,-1.4264,-1.4686,-1.4686,-1.5594,-1.6765,-1.6765,-1.7584,-1.856,-1.856,-1.8587,-1.8625,-1.8771,-1.8798,-1.8825,-1.8972,-1.8987,-1.8987,-1.8987,-1.8987,-1.8987,-1.8987,-1.8987,-1.8987,-1.8987,-1.8987,-1.8987,-1.8987,-1.8987,-1.8987,-1.8987,-1.8987,-1.8987,-1.8987,-1.8987,-1.8987,-1.8987,-1.8987,-1.8987,-1.8987,-1.8987,-1.8987,-1.896,-1.8987,-1.8987,-1.896,-1.8987,-1.8987,-1.8987,-1.9011,-1.9011,-1.9011,-1.8906,-1.9074,-1.9477,-1.9333,-1.9169,-1.3811,-1.3857,-1.3923,-1.4063,-1.3992,-1.3778,-1.3423,-1.3464,-1.3464,-1.2917,-1.2807,-1.2876,-1.3119,-1.3046,-1.3102,-1.3496,-1.3351,-1.307,-1.2864,-1.2066,-1.1421,-1.1209,-1.0839,-1.0593,-1.0593,-1.0593,0.0,-1.0593,-1.0593,-1.0593,-1.0593,-1.0593,-1.087,-1.1483,-1.1483,-1.2128,-1.348,-1.3511,-1.3851,-1.4506,-1.4231,-1.424,-1.4467,-1.3956,-1.3626,-1.3488,-1.3488,-1.3259,-1.2928,-1.3176,-1.3296,-1.3296,-1.3296,-1.3378,-1.3553,-1.3904,-1.4195,-1.4454,-1.4636,-1.5371,-1.6265,-1.6662,-1.7418,-1.8209,-1.8625,-1.8786,-1.8854,-1.8919,-1.8919,-1.8946,-1.8987,-1.8987,-1.8987,-1.8987,-1.8987,-1.8987,-1.8987,-1.8987,-1.8987,-1.8987,-1.8987,-1.8987,-1.8987,-1.8987,-1.8987,-1.8987,-1.8987,-1.8987,-1.8987,-1.8987,-1.8987,-1.8987,-1.8987,-1.8987,-1.8987,-1.8987,-1.8987,-1.8987,-1.8987,-1.8987,-1.8987,-1.8987,-1.8987,-1.8987,-1.8987,-1.8987,-1.8987,-1.9325,-1.9322,-1.904,-1.8928,-1.8773,-1.3399,-1.3428,-1.3394,-1.3567,-1.3593,-1.3511,-1.3159,-1.3506,-1.3718,-1.3198,-1.3083,-1.3105,-1.3168,-1.3122,-1.3231,-1.3635,-1.3656,-1.3625,-1.3524,-1.2558,-1.1756,-1.1514,-1.0965,-1.0593,-1.0593,-1.0593,0.0,-1.0593,-1.0593,-1.0593,-1.0593,-1.0807,-1.1209,-1.1849,-1.2097,-1.2742,-1.3851,-1.3851,-1.3999,-1.4286,-1.4167,-1.4093,-1.4066,-1.3681,-1.3369,-1.3093,-1.3093,-1.2863,-1.2505,-1.2824,-1.2934,-1.2944,-1.2996,-1.308,-1.321,-1.3551,-1.3815,-1.4113,-1.4705,-1.5537,-1.6398,-1.6841,-1.7575,-1.8371,-1.8759,-1.8919,-1.8987,-1.8987,-1.8987,-1.8987,-1.8987,-1.8987,-1.8987,-1.8987,-1.8987,-1.8987,-1.8987,-1.8987,-1.8987,-1.8987,-1.8987,-1.8987,-1.8987,-1.8987,-1.8987,-1.8987,-1.8987,-1.8987,-1.8987,-1.8987,-1.8987,-1.8987,-1.8987,-1.8987,-1.8987,-1.8987,-1.8987,-1.8987,-1.8987,-1.8987,-1.8987,-1.8987,-1.8987,-1.8987,-1.8987,-1.8987,-1.8987,-1.9134,-1.908,-1.8834,-1.8585,-1.8343,-1.2993,-1.3021,-1.2927,-1.3357,-1.3495,-1.3518,-1.3553,-1.3969,-1.4231,-1.3729,-1.3625,-1.3443,-1.2933,-1.2777,-1.2854,-1.3231,-1.3644,-1.3836,-1.355,-1.2917,-1.2235,-1.1577,-1.0965,-1.0593,-1.0593,-1.0593,-1.0593,-1.0593,0.0,-1.0593,-1.0593,-1.1146,-1.1787,-1.2481,-1.313,-1.3791,-1.4476,-1.4488,-1.4295,-1.3919,-1.4258,-1.4038,-1.3332,-1.3644,-1.3406,-1.2689,-1.267,-1.2475,-1.2126,-1.2258,-1.2298,-1.2323,-1.2446,-1.2667,-1.292,-1.2948,-1.3218,-1.3738,-1.4914,-1.6042,-1.7002,-1.7197,-1.7999,-1.8924,-1.8951,-1.8963,-1.8987,-1.8987,-1.8987,-1.8987,-1.8987,-1.8987,-1.8987,-1.8987,-1.8987,-1.8987,-1.8987,-1.8987,-1.8987,-1.8987,-1.8987,-1.8987,-1.8987,-1.8987,-1.8987,-1.8987,-1.8987,-1.8987,-1.8987,-1.8987,-1.8987,-1.8987,-1.8987,-1.8987,-1.8987,-1.8987,-1.8987,-1.8987,-1.8987,-1.8987,-1.8987,-1.8987,-1.8987,-1.8987,-1.8987,-1.8987,-1.8987,-1.8429,-1.84,-1.8889,-1.8253,-1.7887,-1.1815,-1.1719,-1.1626,-1.1595,-1.2033,-1.2513,-1.2683,-1.3431,-1.4131,-1.4174,-1.3875,-1.3563,-1.342,-1.3253,-1.3167,-1.3277,-1.3892,-1.4141,-1.3584,-1.2917,-1.2235,-1.1577,-1.0965,-1.0593,-1.0593,-1.0593,-1.0593,0.0,-1.0593,-1.0593,-1.0593,-1.0751,-1.1358,-1.2451,-1.2665,-1.3321,-1.4476,-1.4203,-1.4148,-1.4341,-1.3553,-1.3378,-1.3708,-1.2928,-1.2606,-1.267,-1.2376,-1.2243,-1.2249,-1.2283,-1.2357,-1.2446,-1.248,-1.2749,-1.3185,-1.3636,-1.4039,-1.4502,-1.5332,-1.5473,-1.5463,-1.6279,-1.7091,-1.7804,-1.8269,-1.8674,-1.8987,-1.8987,-1.8987,-1.8987,-1.8987,-1.8987,-1.8987,-1.8987,-1.8987,-1.8987,-1.8987,-1.8987,-1.8987,-1.8987,-1.8987,-1.8987,-1.8987,-1.8987,-1.8987,-1.8987,-1.8987,-1.8987,-1.8987,-1.8987,-1.8987,-1.8987,-1.8987,-1.8987,-1.8987,-1.8987,-1.8987,-1.8987,-1.8987,-1.8987,-1.8987,-1.8987,-1.8987,-1.8987,-1.8987,-1.8987,-1.8987,-1.8854,-1.8834,-1.8964,-1.789,-1.7564,-1.1336,-1.1113,-1.0931,-1.0904,-1.1327,-1.1849,-1.2195,-1.3081,-1.3865,-1.4011,-1.3807,-1.3515,-1.329,-1.3135,-1.3075,-1.3259,-1.3827,-1.4051,-1.3575,-1.2917,-1.2235,-1.1577,-1.0965,-1.0593,-1.0593,-1.0593,-1.0593,0.0,-1.0593,-1.0593,-1.0593,-1.0839,-1.1452,-1.2481,-1.2795,-1.3365,-1.424,-1.4002,-1.3856,-1.369,-1.3213,-1.302,-1.3102,-1.2588,-1.2386,-1.2413,0.0,-1.215,-1.2224,-1.2274,-1.2382,-1.2505,-1.2554,-1.2876,-1.332,-1.3681,-1.4058,-1.4477,-1.5046,-1.5039,-1.4959,-1.6054,-1.686,-1.7453,-1.8032,-1.841,-1.8698,-1.8927,-1.8987,-1.8987,-1.8987,-1.8987,-1.8987,-1.8987,-1.8987,-1.8987,-1.8987,-1.8987,-1.8987,-1.8987,-1.8987,-1.8987,-1.8987,-1.8987,-1.8987,-1.8987,-1.8987,-1.8987,-1.8987,-1.8987,-1.8987,-1.8987,-1.8987,-1.8987,-1.8987,-1.8987,-1.8987,-1.8987,-1.8987,-1.8987,-1.8987,-1.8987,-1.8987,-1.8987,-1.8987,-1.8987,-1.8987,-1.8735,-1.8602,-1.8575,-1.7644,-1.7344,-1.1173,-1.0839,-1.0572,-1.0801,-1.1076,-1.1474,-1.2103,-1.2993,-1.3659,-1.3696,-1.3655,-1.3443,-1.2885,-1.2758,-1.2827,-1.3222,-1.3626,-1.3789,-1.3421,-1.2879,-1.2205,-1.1483,-1.0933,-1.0579,-1.0539,-1.0533,-1.0519,-1.0479,-1.0472,-1.0506,-1.0586,-1.1048,-1.1643,-1.2347,-1.3079,-1.3594,-1.3809,-1.3782,-1.3424,-1.2781,-1.3038,-1.2791,-1.2183,-1.2487,-1.2432,-1.2101,0.0,0.0,-1.215,-1.2249,-1.2382,-1.2505,-1.2627,-1.3007,-1.3505,-1.3505,-1.3813,-1.4305,-1.4709,-1.4926,-1.5188,-1.6159,-1.6859,-1.7375,-1.7857,-1.8097,-1.8301,-1.8758,-1.8939,-1.8987,-1.8987,-1.8987,-1.8987,-1.8987,-1.8987,-1.8987,-1.8987,-1.8987,-1.8987,-1.8987,-1.8987,-1.8987,-1.8987,-1.8987,-1.8987,-1.8987,-1.8987,-1.8987,-1.8987,-1.8987,-1.8987,-1.8987,-1.8987,-1.8987,-1.8987,-1.8987,-1.8987,-1.8987,-1.8987,-1.8987,-1.8987,-1.8987,-1.8987,-1.8987,-1.8987,-1.8987,-1.8987,-1.8483,-1.8228,-1.8201,-1.7589,-1.7313,-1.0469,-1.0213,-1.0174,-1.0491,-1.0943,-1.1596,-1.275,-1.3502,-1.399,-1.4226,-1.3912,-1.3443,-1.2885,-1.2758,-1.2827,-1.3222,-1.3626,-1.3607,-1.2799,-1.2573,-1.2058,-1.0902,-1.0649,-1.0492,-1.0214,-1.0194,-1.0094,0.0,-0.9869,-1.0077,-1.0566,-1.0451,-1.0758,-1.1649,-1.2755,-1.335,-1.3396,-1.3075,-1.301,-1.3176,-1.2597,-1.2413,-1.2579,-1.2321,-1.2165,-1.2101,-1.2101,0.0,-1.2283,-1.2298,-1.2382,-1.2505,-1.2529,-1.3166,-1.4059,-1.4059,-1.4686,-1.5491,-1.558,-1.5625,-1.5671,-1.5811,-1.6273,-1.6763,-1.6847,-1.7508,-1.8217,-1.8313,-1.865,-1.8987,-1.8987,-1.8987,-1.8987,-1.8987,-1.8987,-1.8987,-1.8987,-1.8987,-1.8987,-1.8987,-1.8987,-1.8987,-1.8987,-1.8987,-1.8987,-1.8987,-1.8987,-1.8987,-1.8987,-1.8987,-1.8987,-1.8987,-1.8987,-1.8987,-1.8987,-1.8987,-1.8987,-1.8987,-1.8987,-1.8987,-1.8987,-1.8987,-1.8987,-1.8987,-1.8987,-1.8987,-1.8987,-1.8881,-1.8842,-1.8815,-1.8228,-1.7945,-1.0072,-0.9719,-0.9687,-1.0332,-1.072,-1.1231,-1.2375,-1.303,-1.3401,-1.3535,-1.3354,-1.3025,-1.254,-1.2591,-1.2762,-1.2955,-1.3332,-1.3247,-1.2314,-1.219,-1.1737,-1.0482,-1.0327,-1.0214,-0.992,-0.9893,-0.9833,-0.9722,-0.9715,-0.9836,-1.0117,-1.0577,-1.103,-1.1495,-1.2674,-1.3186,-1.2992,-1.279,-1.2689,-1.268,-1.2285,-1.2202,-1.2376,-1.2183,-1.2101,-1.2101,-1.2175,0.0,-1.2308,-1.2382,-1.248,-1.2603,-1.2603,-1.3286,-1.4258,-1.4258,-1.4903,-1.5792,-1.5792,-1.5792,-1.5792,-1.5748,-1.6129,-1.6655,-1.6931,-1.758,-1.8253,-1.853,-1.8794,-1.8987,-1.8987,-1.8987,-1.8987,-1.8987,-1.8987,-1.8987,-1.8987,-1.8987,-1.8987,-1.8987,-1.8987,-1.8987,-1.8987,-1.8987,-1.8987,-1.8987,-1.8987,-1.8987,-1.8987,-1.8987,-1.8987,-1.8987,-1.8987,-1.8987,-1.8987,-1.8987,-1.8987,-1.8987,-1.8987,-1.8987,-1.8987,-1.8987,-1.8987,-1.8987,-1.8987,-1.8987,-1.8987,-1.8987,-1.8987,-1.8987,-1.8709,-1.8402,-1.0012,-0.9599,-0.9564,-1.0387,-1.0593,-1.0895,-1.2015,-1.2477,-1.27,-1.2782,-1.2746,-1.2546,-1.2181,-1.2358,-1.2597,-1.2706,-1.2931,-1.2797,-1.2014,-1.186,-1.1398,-1.0329,-1.0154,-1.0,-0.9713,-0.9626,-0.9559,-0.9499,-0.9606,-0.9719,-0.978,-1.0788,-1.1392,-1.1466,-1.2483,-1.29,-1.2569,-1.256,-1.2404,-1.2101,-1.2101,-1.2101,-1.2101,-1.2101,-1.2101,-1.2101,-1.22,0.0,0.0,-1.2406,-1.2529,-1.2627,-1.2652,-1.3324,-1.4281,-1.4281,-1.4926,-1.5792,-1.5792,-1.5792,-1.5792,-1.5792,-1.6102,-1.6535,-1.7063,-1.7616,-1.8145,-1.8674,-1.8903,-1.8987,-1.8987,-1.8903,-1.8819,-1.8819,-1.8819,-1.8855,-1.8963,-1.8987,-1.8987,-1.8987,-1.8987,-1.8987,-1.8987,-1.8987,-1.8987,-1.8987,-1.8987,-1.8987,-1.8987,-1.8987,-1.8987,-1.8987,-1.8987,-1.8939,-1.8831,-1.8927,-1.8939,-1.8831,-1.8927,-1.8987,-1.8987,-1.8987,-1.8987,-1.8987,-1.8987,-1.8987,-1.8987,-1.8987,-1.8987,-1.8987,-1.8987,-1.8735,-1.051,-1.0219,-1.0295,-1.0748,-1.0724,-1.0987,-1.2486,-1.2536,-1.2365,-1.272,-1.2506,-1.2232,-1.2126,-1.2128,-1.2275,-1.2634,-1.2538,-1.2285,-1.1956,-1.1677,-1.1284,-1.064,-1.0281,-1.0,-0.9713,-0.9411,-0.9144,-0.8911,-0.9348,-0.9727,-1.0051,-1.0624,-1.1072,-1.1311,-1.191,-1.2193,-1.2156,-1.2156,-1.2138,-1.2101,-1.2101,-1.2101,-1.2101,-1.2101,-1.2101,-1.2101,-1.2101,0.0,0.0,-1.2249,-1.2332,-1.2357,-1.248,-1.3214,-1.4222,-1.4222,-1.4892,-1.5792,-1.5792,-1.5792,-1.5792,-1.5792,-1.5828,-1.596,-1.6511,-1.7039,-1.7592,-1.8121,-1.8614,-1.8987,-1.8987,-1.8638,-1.8277,-1.8277,-1.8277,-1.841,-1.8891,-1.8987,-1.8987,-1.8987,-1.8987,-1.8987,-1.8987,-1.8987,-1.8987,-1.8987,-1.8987,-1.8987,-1.8987,-1.8987,-1.8987,-1.8987,-1.8987,-1.8794,-1.8313,-1.871,-1.8782,-1.8301,-1.8722,-1.8987,-1.8987,-1.8987,-1.8987,-1.8987,-1.8987,-1.8987,-1.8987,-1.8987,-1.8987,-1.8987,-1.8987,-1.896,-1.0997,-1.0684,-1.0692,-1.1283,-1.1469,-1.1588,-1.1972,-1.2319,-1.2454,-1.2085,-1.2088,-1.2141,-1.2089,-1.2101,-1.2156,-1.2312,-1.1972,-1.1651,-1.1557,-1.1173,-1.0735,-1.0366,-1.0033,-0.974,-0.9417,-0.9284,-0.9295,-0.9552,-0.9599,0.0,-1.0775,-1.1017,-1.1183,-1.1301,-1.1828,-1.2101,-1.2101,-1.2101,-1.2101,-1.2101,-1.2101,-1.2101,-1.2101,-1.2101,-1.2101,-1.2101,-1.2175,0.0,0.0,-1.2382,-1.248,-1.2578,-1.29,-1.3529,-1.4305,-1.4617,-1.5198,-1.5792,-1.5792,-1.5792,-1.5792,-1.5792,-1.603,-1.6391,-1.6919,-1.7472,-1.8001,-1.853,-1.8831,-1.8987,-1.8987,-1.8602,-1.8121,-1.7808,-1.7724,-1.7869,-1.8398,-1.8518,-1.8614,-1.8927,-1.8987,-1.8987,-1.8987,-1.8987,-1.8987,-1.8987,-1.8987,-1.8987,-1.8987,-1.871,-1.8518,-1.8518,-1.8806,-1.877,-1.8253,-1.8686,-1.8758,-1.8229,-1.8698,-1.8987,-1.8987,-1.8987,-1.8987,-1.8987,-1.8987,-1.8987,-1.8987,-1.8987,-1.8987,-1.8987,-1.8987,-1.8827,-1.1703,-1.1442,-1.1373,-1.1804,-1.2013,-1.2091,-1.1916,-1.2267,-1.2426,-1.1819,-1.1804,-1.1963,-1.2082,-1.2101,-1.2051,0.0,-1.1558,-1.1251,-1.1079,-1.0777,-1.0448,-1.0282,-0.9987,-0.9693,-0.9371,-0.9452,-0.9666,-1.007,-1.0204,0.0,-1.1251,-1.1444,-1.1553,-1.1553,-1.1902,-1.2101,-1.2101,-1.2101,-1.2101,-1.2101,-1.2101,-1.2101,-1.2101,-1.2101,-1.2101,-1.2101,-1.2249,0.0,0.0,-1.248,-1.2603,-1.2749,-1.3104,-1.3671,-1.4351,-1.472,-1.5255,-1.5792,-1.5792,-1.5792,-1.5816,-1.5994,-1.6307,-1.6727,-1.7436,-1.7905,-1.8313,-1.8843,-1.8879,-1.8686,-1.8374,-1.8013,-1.764,-1.7243,-1.7159,-1.7303,-1.7857,-1.7965,-1.8085,-1.8458,-1.865,-1.8758,-1.8758,-1.8891,-1.8987,-1.8987,-1.8987,-1.8939,-1.877,-1.8434,-1.8145,-1.7989,-1.8434,-1.8542,-1.8013,-1.8458,-1.8602,-1.8229,-1.8698,-1.8987,-1.8987,-1.8987,-1.8987,-1.8987,-1.8987,-1.8987,-1.8987,-1.8987,-1.8987,-1.8987,-1.8987,-1.8762,-1.2757,-1.2573,-1.252,-1.2252,-1.2198,-1.23,-1.269,-1.2478,-1.2173,-1.2109,-1.1776,-1.1632,-1.2027,-1.2101,-1.1927,-1.1393,-1.1304,-1.1112,-1.0572,-1.0569,-1.0586,-1.0586,-1.0294,-1.0,-0.9706,-1.0009,-1.0164,-1.0104,-1.1196,0.0,-1.1318,-1.1803,-1.2101,-1.2101,-1.2101,-1.2101,-1.2101,-1.2101,-1.2101,-1.2101,-1.2101,-1.2101,-1.2101,-1.2101,-1.2101,0.0,0.0,0.0,0.0,-1.2578,-1.27,-1.27,-1.2856,-1.3478,-1.4305,-1.4305,-1.4949,-1.5792,-1.5792,-1.5792,-1.5876,-1.6427,-1.6595,-1.6799,-1.7881,-1.8193,-1.8313,-1.8843,-1.8614,-1.7965,-1.6895,-1.6619,-1.6619,-1.6607,-1.6607,-1.6751,-1.7279,-1.7399,-1.7399,-1.7436,-1.7857,-1.8205,-1.8205,-1.865,-1.8987,-1.8987,-1.8987,-1.8806,-1.8277,-1.8205,-1.8001,-1.7484,-1.7893,-1.8001,-1.7447,-1.7905,-1.8205,-1.8205,-1.8698,-1.8987,-1.8987,-1.8987,-1.8987,-1.8987,-1.8987,-1.8987,-1.8987,-1.8987,-1.8987,-1.8987,-1.8987,-1.8987,-1.3258,-1.3345,-1.3396,-1.2972,-1.3008,-1.2931,-1.2094,-1.2065,-1.2099,-1.1747,-1.1598,-1.1608,-1.2027,-1.2101,-1.1984,-1.1636,-1.1274,0.0,-1.1418,-1.0607,-1.0288,-1.1128,-1.0571,-1.0261,-1.0613,0.0,-1.0946,-1.1955,-1.1952,0.0,-1.1846,-1.1746,-1.1825,-1.2092,-1.2101,-1.2101,-1.2101,-1.2101,-1.2101,-1.2101,-1.2101,-1.2101,-1.2101,-1.2101,-1.2101,0.0,0.0,0.0,0.0,-1.2397,-1.2715,-1.3204,-1.3634,-1.4222,-1.4892,-1.521,-1.5536,-1.5792,-1.5792,-1.6032,-1.6379,-1.6547,-1.7087,-1.7772,-1.8097,-1.8205,-1.8241,-1.841,-1.8073,-1.7592,-1.7219,-1.7135,-1.7051,-1.6691,-1.6607,-1.6655,-1.6811,-1.6847,-1.6955,-1.7315,-1.7845,-1.8205,-1.8205,-1.8638,-1.8867,-1.8506,-1.8458,-1.8253,-1.7724,-1.7639,-1.7579,-1.7436,-1.7219,-1.7039,-1.6859,-1.8025,-1.8434,-1.7712,-1.8506,-1.8987,-1.8987,-1.8987,-1.8987,-1.8987,-1.8987,-1.8987,-1.8987,-1.8987,-1.8987,-1.8987,-1.8987,-1.8987,-1.3654,-1.391,-1.3963,-1.3554,-1.3455,-1.3146,-1.2022,-1.2106,-1.2242,-1.1635,-1.1632,-1.1807,-1.2055,-1.2101,-1.1953,-1.1465,-1.1417,-1.1455,-1.1572,-1.0878,-1.0565,-1.1104,-1.0755,-1.0669,0.0,-1.1461,-1.1906,-1.2618,0.0,0.0,-1.1883,-1.1494,-1.1384,-1.1632,-1.1798,-1.1954,-1.2101,-1.2101,-1.2101,-1.2101,-1.2101,-1.2101,-1.2101,-1.2101,-1.2101,0.0,0.0,0.0,0.0,-1.2608,-1.2987,-1.3457,-1.4025,-1.4593,-1.5131,-1.5435,-1.5659,-1.5792,-1.5792,-1.6163,-1.6631,-1.6835,-1.764,-1.8422,-1.8025,-1.8049,-1.8157,-1.7965,-1.7664,-1.7387,-1.7387,-1.7387,-1.7327,-1.6979,-1.6751,-1.6607,-1.6607,-1.6451,-1.6403,-1.6727,-1.7375,-1.7845,-1.764,-1.8205,-1.8518,-1.7989,-1.7905,-1.7712,-1.7159,-1.7267,-1.7315,-1.7111,-1.6979,-1.6811,-1.6619,-1.7507,-1.7989,-1.7724,-1.8326,-1.8782,-1.8987,-1.8987,-1.8987,-1.8987,-1.8987,-1.8987,-1.8987,-1.8987,-1.8987,-1.8987,-1.8987,-1.8987,0.0,-1.4175,-1.4121,-1.3838,-1.3422,-1.2943,-1.2286,-1.2394,0.0,-1.1672,-1.1807,-1.2073,-1.2128,-1.2147,-1.1897,-1.1089,-1.1738,-1.2072,-1.1323,-1.1417,-1.1351,-1.0717,-1.0946,-1.1254,-1.1609,-1.2533,-1.2912,-1.2406,0.0,0.0,-1.1489,-1.1072,-1.0864,-1.0864,-1.1246,-1.166,-1.2055,-1.2082,-1.2101,-1.2101,-1.2101,-1.2101,-1.2101,-1.2101,-1.2101,0.0,0.0,0.0,0.0,-1.3132,-1.3457,-1.3552,-1.4118,-1.4674,-1.5153,-1.5153,-1.5435,-1.5804,-1.5828,-1.6164,-1.6691,-1.7219,-1.8073,-1.8698,-1.7712,-1.7784,-1.8097,-1.7543,-1.7387,-1.7399,-1.746,-1.7472,-1.7472,-1.7472,-1.7039,-1.6655,-1.6607,-1.6187,-1.5792,-1.5792,-1.6643,-1.7171,-1.6691,-1.7472,-1.7965,-1.7411,-1.7327,-1.7147,-1.6619,-1.7003,-1.7147,-1.6655,-1.7039,-1.7135,-1.6643,-1.6667,-1.7111,-1.8085,-1.8217,-1.8482,-1.8963,-1.8987,-1.8987,-1.8987,-1.8987,-1.8987,-1.8987,-1.8987,-1.8987,-1.8987,-1.8987,-1.8987,-1.2595,0.0,-1.3127,-1.2636,-1.2323,-1.1973,0.0,-1.1326,-1.1388,-1.1481,-1.1586,-1.1834,-1.2441,-1.2551,-1.2351,-1.1768,-1.2291,-1.2626,-1.2224,-1.2219,-1.1936,-1.1095,-1.1241,-1.1828,-1.2917,-1.3245,-1.3313,0.0,0.0,-1.2202,-1.1113,-1.0649,-1.0429,-1.0429,-1.0824,-1.1228,-1.1651,-1.1954,-1.2101,-1.2101,-1.2101,-1.2101,-1.2101,-1.2101,-1.2101,0.0,0.0,0.0,-1.288,-1.3478,-1.4035,-1.4559,-1.4697,-1.5119,-1.5637,-1.5637,-1.5703,-1.5852,-1.6283,-1.6499,-1.6691,-1.7219,-1.758,-1.7736,-1.7471,-1.7784,-1.8097,-1.7543,-1.7387,-1.7483,-1.7917,-1.8013,-1.8013,-1.8013,-1.7616,-1.7087,-1.6691,-1.6187,-1.5792,-1.5792,-1.6343,-1.6751,-1.6619,-1.7147,-1.7399,-1.6871,-1.6787,-1.6595,-1.6066,-1.6463,-1.6739,-1.6619,-1.6715,-1.6739,-1.6607,-1.7339,-1.7772,-1.7616,-1.8362,-1.8867,-1.8987,-1.8987,-1.8987,-1.8987,-1.8987,-1.8987,-1.8987,-1.8987,-1.8987,-1.8987,-1.8987,-1.8987,-1.1318,-1.2142,-1.2859,-1.2499,-1.2328,-1.2073,-1.1457,-1.1435,-1.1528,-1.1504,-1.166,-1.1963,-1.2579,-1.2689,-1.2627,-1.2394,-1.2925,-1.3258,-1.2989,-1.2948,-1.2661,-1.1843,-1.2142,-1.2712,0.0,-1.3438,-1.3306,0.0,0.0,-1.1588,-1.0922,-1.0509,-1.0372,-1.0565,-1.0973,-1.1387,-1.1813,-1.202,-1.2338,-1.2803,-1.255,-1.255,-1.2803,-1.2803,-1.2803,0.0,0.0,0.0,-1.3314,-1.3894,-1.4362,-1.4743,-1.5119,-1.548,-1.5748,-1.5792,-1.5792,-1.5828,-1.6116,-1.6559,-1.7015,-1.7327,-1.7724,-1.8049,-1.7543,-1.7953,-1.8398,-1.7603,-1.7219,-1.7159,-1.7676,-1.8025,-1.8145,-1.7893,-1.7808,-1.7543,-1.6763,-1.6379,-1.608,-1.584,-1.6235,-1.6523,-1.6283,-1.6679,-1.6847,-1.6319,-1.6235,-1.6139,-1.5828,-1.6283,-1.6607,-1.6607,-1.6823,-1.6967,-1.6967,-1.7712,-1.7977,-1.7423,-1.8181,-1.8734,-1.8987,-1.8987,-1.8987,-1.8987,-1.8987,-1.8987,-1.8987,-1.8987,-1.8987,-1.8987,-1.8987,-1.8987,-1.0361,-1.1568,-1.2734,-1.2573,-1.2507,-1.234,-1.1752,-1.1916,-1.2063,-1.161,-1.1825,-1.2239,-1.2698,-1.2781,-1.2833,-1.2978,-1.3475,-1.3765,-1.352,-1.3511,-1.329,-1.2726,-1.3161,0.0,-1.3467,-1.3371,0.0,0.0,0.0,-1.0938,-1.0819,-1.0528,-1.0544,-1.0878,-1.1293,-1.1766,-1.233,-1.2244,-1.2686,-1.3586,-1.3136,-1.316,-1.3597,-1.3597,-1.3597,0.0,0.0,0.0,-1.3766,-1.4385,-1.464,-1.4709,-1.5401,-1.5693,-1.5715,-1.5748,-1.5792,-1.5792,-1.5792,-1.6511,-1.74,-1.7291,-1.7953,-1.8578,-1.7688,-1.7989,-1.8446,-1.7519,-1.7063,-1.6943,-1.7399,-1.7869,-1.8061,-1.7544,-1.782,-1.7917,-1.6835,-1.6667,-1.6547,-1.5912,-1.6235,-1.6439,-1.5888,-1.6187,-1.6331,-1.5864,-1.5792,-1.5792,-1.5792,-1.6211,-1.6487,-1.6487,-1.6955,-1.7267,-1.7267,-1.7832,-1.8013,-1.7543,-1.8037,-1.853,-1.8975,-1.8987,-1.8987,-1.8987,-1.8987,-1.8987,-1.8987,-1.8987,-1.8987,-1.8987,-1.8987,-1.8987,-1.0713,-1.1305,-1.1703,-1.1307,-1.1392,-1.1538,-1.1338,-1.1555,-1.1728,-1.1546,-1.1825,-1.233,-1.3057,-1.3204,-1.3258,-1.3394,-1.3485,-1.3562,-1.3502,-1.3511,-1.345,-1.3351,0.0,-1.347,-1.3339,0.0,0.0,0.0,0.0,-1.1124,-1.042,-1.0661,-1.084,-1.0897,-1.1293,-1.1943,-1.2871,-1.276,-1.2998,-1.3597,-1.3515,-1.3515,-1.3597,-1.3597,-1.3597,0.0,0.0,-1.4305,-1.4399,-1.4949,-1.5255,-1.5356,-1.5468,-1.5592,-1.5693,-1.5715,-1.576,-1.5792,-1.5792,-1.6511,-1.7315,-1.6871,-1.7135,-1.7603,-1.746,-1.7195,-1.6931,-1.6763,-1.7315,-1.7977,-1.8061,-1.8145,-1.8061,-1.7544,-1.782,-1.7917,-1.6835,-1.6955,-1.6979,-1.5984,-1.6235,-1.6439,-1.5888,-1.5864,-1.5888,-1.5804,-1.5792,-1.5792,-1.5792,-1.5864,-1.5912,-1.5912,-1.6403,-1.6715,-1.6715,-1.764,-1.8169,-1.8085,-1.8578,-1.8903,-1.8987,-1.8987,-1.8987,-1.8987,-1.8987,-1.8987,-1.8987,-1.8987,-1.8987,-1.8987,-1.8987,-1.8987,-1.0537,-1.1076,-1.1557,-1.133,-1.1745,-1.2159,-1.1963,-1.2021,-1.2141,-1.216,-1.2294,-1.267,-1.3488,-1.3607,-1.3724,-1.401,-1.404,-1.404,-1.404,-1.404,-1.388,0.0,0.0,-1.321,0.0,0.0,0.0,0.0,0.0,0.0,-1.0937,-1.1124,-1.133,-1.1534,-1.1724,-1.2191,-1.2932,-1.3134,-1.363,-1.4408,-1.4152,-1.4176,-1.4408,-1.4408,-1.4408,-1.4432,0.0,-1.48,-1.4858,-1.5165,-1.5345,-1.5413,-1.5547,-1.5592,-1.5592,-1.5659,-1.5738,-1.5792,-1.5792,-1.6319,-1.6931,-1.6679,-1.6955,-1.7387,-1.7387,-1.7219,-1.7027,-1.7027,-1.6967,-1.6895,-1.6895,-1.7111,-1.7195,-1.6667,-1.74,-1.7917,-1.6835,-1.7015,-1.7243,-1.6763,-1.6403,-1.6164,-1.6235,-1.6235,-1.6116,-1.5828,-1.6054,-1.6235,-1.6235,-1.5994,-1.59,-1.6211,-1.6715,-1.7027,-1.7027,-1.8025,-1.8626,-1.8626,-1.8855,-1.8987,-1.8987,-1.8987,-1.8987,-1.8987,-1.8987,-1.8987,-1.8987,-1.8987,-1.8987,-1.8987,-1.8987,-1.8987,-1.04,-1.0929,-1.1477,-1.1682,-1.2328,-1.2852,-1.2677,-1.2647,-1.2686,-1.2805,-1.2836,-1.3056,-1.3782,-1.3994,-1.4102,-1.4332,-1.4451,-1.4442,-1.4258,-1.4231,-1.3928,-1.3103,-1.3011,0.0,0.0,0.0,0.0,0.0,0.0,0.0,-1.1479,-1.159,-1.1774,-1.2095,-1.2095,-1.2367,-1.2889,-1.3256,-1.3937,-1.4936,-1.4664,-1.4743,-1.5108,-1.5108,-1.5108,-1.5108,-1.5108,-1.5108,-1.5165,-1.5278,-1.5345,-1.538,-1.5604,-1.5637,-1.5558,-1.5681,-1.5748,-1.5792,-1.5792,-1.6163,-1.6607,-1.6607,-1.6955,-1.7388,-1.7243,-1.7207,-1.7183,-1.7063,-1.6439,-1.5828,-1.5936,-1.6307,-1.6499,-1.6102,-1.7111,-1.7953,-1.6991,-1.7327,-1.7712,-1.746,-1.6835,-1.6463,-1.6739,-1.6787,-1.6655,-1.6247,-1.6523,-1.6787,-1.6787,-1.6439,-1.6283,-1.6571,-1.7183,-1.7652,-1.7748,-1.853,-1.8987,-1.8987,-1.8987,-1.8987,-1.8987,-1.8987,-1.8987,-1.8987,-1.8987,-1.8987,-1.8987,-1.8987,-1.8987,-1.8987,-1.8987,-1.8987,-1.0762,-1.0908,-1.1131,-1.195,-1.2529,-1.2929,-1.303,-1.3064,-1.3084,-1.3221,-1.325,-1.3378,-1.3828,-1.4203,-1.435,-1.3983,-1.4258,-1.4249,-1.3488,0.0,-1.3075,-1.2285,-1.2193,0.0,0.0,0.0,0.0,0.0,0.0,0.0,-1.1497,-1.1847,-1.2077,-1.2095,-1.2095,-1.2367,-1.2889,-1.2923,-1.3463,-1.4454,-1.4856,-1.5062,-1.5108,-1.5108,-1.5108,-1.5108,-1.5108,-1.5176,-1.5312,-1.5435,-1.5491,-1.5491,-1.5637,-1.5693,-1.5693,-1.577,-1.5792,-1.5792,-1.5792,-1.6163,-1.6607,-1.6607,-1.6955,-1.7327,-1.6811,-1.6655,-1.6559,-1.6066,-1.5852,-1.59,-1.6415,-1.6571,-1.6595,-1.6559,-1.7375,-1.8049,-1.7484,-1.8157,-1.859,-1.7579,-1.7748,-1.7893,-1.7411,-1.7327,-1.7315,-1.7279,-1.7315,-1.7327,-1.7327,-1.7303,-1.7111,-1.6655,-1.7544,-1.8338,-1.8831,-1.8977,-1.8987,-1.8987,-1.8987,-1.8987,-1.8987,-1.8987,-1.8987,-1.8987,-1.8987,-1.8987,-1.8987,-1.8987,-1.8987,-1.8987,-1.8987,-1.8987,-1.0498,-1.0929,-1.1408,-1.1728,-1.2377,-1.2939,-1.3068,-1.3112,-1.3206,-1.358,-1.3653,-1.3708,-1.3883,-1.4011,-1.4066,-1.391,-1.3617,-1.3369,-1.3305,-1.2882,-1.2257,-1.1439,0.0,0.0,0.0,0.0,0.0,0.0,0.0,0.0,-1.1866,-1.2023,-1.2095,-1.2095,-1.2095,-1.2205,-1.2394,-1.2728,-1.3084,-1.3475,-1.427,-1.4821,-1.5108,-1.5108,-1.5108,-1.5108,-1.5108,-1.5131,-1.5187,-1.5323,-1.5413,-1.5513,-1.5649,-1.5738,-1.5748,-1.5738,-1.5748,-1.5792,-1.5792,-1.5924,-1.6092,-1.6092,-1.6247,-1.6379,-1.6152,-1.6092,-1.6056,-1.5852,-1.5792,-1.584,-1.6054,-1.6092,-1.6199,-1.6523,-1.7159,-1.7748,-1.7881,-1.8217,-1.8482,-1.841,-1.8025,-1.7748,-1.7881,-1.7905,-1.7796,-1.746,-1.7688,-1.7905,-1.7905,-1.7327,-1.7075,-1.7556,-1.7965,-1.8422,-1.8939,-1.8987,-1.8987,-1.8987,-1.8987,-1.8987,-1.8987,-1.8987,-1.8987,-1.8987,-1.8987,-1.8987,-1.8987,-1.8987,-1.8987,-1.8987,-1.8987,-1.8987,-1.0478,-1.1027,-1.1636,-1.176,-1.225,-1.2774,-1.309,-1.3138,-1.3233,-1.3663,-1.3727,-1.3727,-1.3727,-1.3727,-1.3635,0.0,-1.2974,-1.2661,-1.256,-1.2073,-1.1412,0.0,0.0,0.0,0.0,0.0,0.0,0.0,0.0,0.0,0.0,-1.2095,-1.2095,-1.2095,-1.2095,-1.2095,-1.2095,-1.2452,-1.2728,-1.29,-1.3751,-1.4396,-1.489,-1.5039,-1.5108,-1.5108,-1.5108,-1.5108,-1.5108,-1.5233,-1.539,-1.5558,-1.5671,-1.5738,-1.5792,-1.576,-1.5748,-1.5792,-1.5792,-1.5792,-1.5792,-1.5792,-1.5792,-1.5792,-1.5792,-1.5792,-1.5792,-1.5792,-1.5792,-1.5792,-1.5792,-1.5792,-1.5994,-1.6691,-1.7123,-1.7579,-1.8301,-1.8458,-1.8554,-1.8915,-1.841,-1.8025,-1.8386,-1.8458,-1.8326,-1.7965,-1.8217,-1.8458,-1.8458,-1.782,-1.7652,-1.8374,-1.8301,-1.8422,-1.8939,-1.8987,-1.8987,-1.8987,-1.8987,-1.8987,-1.8987,-1.8987,-1.8987,-1.8987,-1.8987,-1.8987,-1.8987,-1.8987,-1.8987,-1.8987,-1.8987,-1.8987,-1.0918,-1.1252,-1.1692,-1.2096,-1.2213,-1.2414,-1.3124,-1.3189,-1.3183,-1.3447,-1.3368,-1.3286,-1.3277,-1.3277,-1.3011,-1.2229,-1.2413,-1.2248,-1.1076,-1.0901,0.0,0.0,0.0,0.0,0.0,0.0,0.0,0.0,0.0,0.0,0.0,-1.2095,-1.2095,-1.2095,-1.2095,-1.2095,-1.2095,-1.2095,-1.236,-1.2889,-1.3383,-1.3868,-1.4429,-1.489,-1.5108,-1.5108,-1.5108,-1.5108,-1.5108,-1.5233,-1.547,-1.5693,-1.5693,-1.5738,-1.5792,-1.5792,-1.5792,-1.5792,-1.5792,-1.5792,-1.5792,-1.5792,-1.5792,-1.5792,-1.5792,-1.5792,-1.5792,-1.5792,-1.5792,-1.5792,-1.5792,-1.5792,-1.6056,-1.7135,-1.7387,-1.7676,-1.8758,-1.8987,-1.8987,-1.8987,-1.8987,-1.8987,-1.8987,-1.8987,-1.8987,-1.8987,-1.8987,-1.8987,-1.8975,-1.8987,-1.8987,-1.8975,-1.8518,-1.8422,-1.8939,-1.8987,-1.8987,-1.8987,-1.8987,-1.8987,-1.8987,-1.8987,-1.8987,-1.8987,-1.8987,-1.8987,-1.8987,-1.8987,-1.8987,-1.8987,-1.8987,-1.8987,-1.1301,-1.1477,-1.1692,-1.2096,-1.2461,-1.2754,-1.2959,-1.3064,-1.3072,-1.2959,-1.2687,-1.2376,-1.2101,-1.2021,0.0,-1.1724,-1.1301,-1.1002,-1.091,-1.0401,0.0,0.0,0.0,0.0,0.0,0.0,0.0,0.0,0.0,0.0,0.0,-1.2095,-1.2095,-1.2095,-1.2095,-1.2095,-1.2095,-1.2095,-1.2176,-1.2337,-1.3199,-1.3868,-1.4429,-1.489,-1.5108,-1.5108,-1.5108,-1.5108,-1.5108,-1.5233,-1.539,-1.557,-1.5671,-1.5738,-1.5792,-1.5792,-1.5792,-1.5792,-1.5792,-1.5792,-1.5792,-1.5792,-1.5792,-1.5792,-1.5792,-1.5792,-1.5792,-1.5792,-1.5792,-1.5792,-1.5792,-1.5792,-1.6056,-1.7135,-1.7387,-1.7676,-1.8758,-1.8987,-1.8987,-1.8987,-1.8987,-1.8987,-1.8987,-1.8987,-1.8987,-1.8987,-1.8987,-1.8722,-1.7977,-1.853,-1.871,-1.7965,-1.841,-1.8819,-1.8975,-1.8987,-1.8987,-1.8987,-1.8987,-1.8987,-1.8987,-1.8987,-1.8987,-1.8987,-1.8987,-1.8987,-1.8987,-1.8987,-1.8987,-1.8987,-1.8987,-1.8987,-1.1758,-1.1976,-1.2171,-1.2422,-1.2686,-1.2822,-1.257,-1.2578,-1.2577,-1.248,-1.2015,-1.1603,-1.1528,-1.1371,0.0,-1.1053,-1.0612,-1.0339,-1.0422,0.0,0.0,0.0,0.0,0.0,0.0,0.0,0.0,0.0,0.0,0.0,0.0,-1.2095,-1.2095,-1.2095,-1.2095,-1.2095,-1.2095,-1.2095,-1.2095,-1.2113,-1.2935,-1.3498,-1.3843,-1.4706,-1.5108,-1.5108,-1.5108,-1.5108,-1.5108,-1.5187,-1.5323,-1.5513,-1.5592,-1.5681,-1.5792,-1.5792,-1.5792,-1.5792,-1.5792,-1.5792,-1.5792,-1.5792,-1.5792,-1.5792,-1.5792,-1.5792,-1.5792,-1.5792,-1.5792,-1.5792,-1.5792,-1.5792,-1.6056,-1.7135,-1.7387,-1.7676,-1.8758,-1.8987,-1.8987,-1.8987,-1.8987,-1.8987,-1.8987,-1.8987,-1.8987,-1.8987,-1.8987,-1.8758,-1.8121,-1.8602,-1.8746,-1.8109,-1.8614,-1.8987,-1.8987,-1.8987,-1.8987,-1.8987,-1.8987,-1.8987,-1.8987,-1.8987,-1.8987,-1.8987,-1.8987,-1.8987,-1.8987,-1.8987,-1.8987,-1.8987,-1.8987,-1.8987,-1.2252,-1.2549,-1.2856,-1.2895,-1.2881,-1.272,-1.2052,-1.1853,-1.1855,-1.1929,-1.1331,-1.091,-1.1267,-1.1029,-1.068,-1.03,-1.0257,-1.0116,-0.9749,0.0,0.0,0.0,0.0,0.0,0.0,0.0,0.0,0.0,0.0,0.0,0.0,-1.2095,-1.2113,-1.215,-1.215,-1.215,-1.215,-1.215,-1.2131,0.0,-1.2636,-1.2889,-1.2946,-1.4373,-1.5062,-1.5108,-1.5108,-1.5108,-1.5108,-1.5108,-1.5244,-1.5468,-1.5491,-1.5625,-1.5792,-1.5792,-1.5792,-1.5792,-1.5792,-1.5792,-1.5792,-1.5792,-1.5792,-1.5792,-1.5792,-1.5792,-1.5792,-1.5792,-1.5792,-1.5792,-1.5792,-1.5792,-1.6066,-1.7075,-1.7351,-1.7676,-1.8758,-1.8987,-1.8987,-1.8987,-1.8987,-1.8987,-1.8987,-1.8987,-1.8987,-1.8987,-1.8987,-1.8975,-1.8927,-1.8963,-1.8975,-1.8927,-1.8963,-1.8987,-1.8987,-1.8987,-1.8987,-1.8987,-1.8987,-1.8987,-1.8987,-1.8987,-1.8963,-1.8915,-1.8963,-1.8963,-1.8915,-1.8963,-1.8987,-1.8987,-1.8987,-1.8987,-1.2646,-1.2559,-1.2428,-1.2803,-1.2813,-1.2594,-1.2027,-1.1576,-1.1151,-1.0767,-1.0298,-0.9984,-1.0074,-1.0017,-0.9923,-0.9841,-0.9831,-0.9795,0.0,0.0,0.0,0.0,0.0,0.0,0.0,0.0,0.0,0.0,0.0,0.0,-1.2095,-1.2095,-1.2204,-1.2419,-1.2407,-1.2407,-1.2407,-1.2407,-1.2312,0.0,-1.2636,-1.2889,-1.2935,-1.4061,-1.4752,-1.5108,-1.5108,-1.5108,-1.5108,-1.5108,-1.521,-1.5345,-1.5446,-1.5592,-1.5738,-1.577,-1.5792,-1.5792,-1.5792,-1.5792,-1.5792,-1.5792,-1.5792,-1.5792,-1.5792,-1.5792,-1.5792,-1.5792,-1.5792,-1.5792,-1.5792,-1.5792,-1.596,-1.6619,-1.7087,-1.7676,-1.8758,-1.8987,-1.8987,-1.8987,-1.8987,-1.8987,-1.8987,-1.8987,-1.8987,-1.8987,-1.8987,-1.8843,-1.8422,-1.8734,-1.8831,-1.8422,-1.8746,-1.8987,-1.8987,-1.8987,-1.8987,-1.8987,-1.8987,-1.8987,-1.8987,-1.8987,-1.8794,-1.8386,-1.8782,-1.8782,-1.8374,-1.8782,-1.8987,-1.8987,-1.8987,-1.8987,-1.2822,-1.2715,-1.254,-1.2561,-1.2628,-1.245,-1.149,-1.1181,-1.0899,-1.0161,-0.9689,-0.9404,-0.9412,-0.941,-0.9419,-0.9419,-0.9741,-0.998,0.0,0.0,0.0,0.0,0.0,0.0,0.0,0.0,0.0,0.0,0.0,-1.2037,-1.2282,-1.2294,-1.2365,-1.2508,-1.2508,-1.2508,-1.2508,-1.2632,-1.2615,-1.2473,-1.2629,-1.2779,-1.2923,-1.3946,-1.4522,-1.4775,-1.5005,-1.5108,-1.5108,-1.5108,-1.5187,-1.5312,-1.5368,-1.5537,-1.5693,-1.5738,-1.577,-1.5792,-1.5792,-1.5792,-1.5792,-1.5792,-1.5792,-1.5792,-1.5792,-1.5792,-1.5792,-1.5792,-1.5792,-1.5792,-1.5792,-1.5792,-1.5946,-1.6475,-1.7003,-1.7603,-1.8434,-1.8806,-1.8987,-1.8987,-1.8987,-1.8987,-1.8987,-1.8987,-1.8987,-1.8987,-1.8987,-1.8891,-1.8614,-1.8819,-1.8891,-1.8614,-1.8819,-1.8987,-1.8987,-1.8987,-1.8987,-1.8987,-1.8987,-1.8987,-1.8987,-1.8987,-1.8867,-1.859,-1.8855,-1.8855,-1.8578,-1.8855,-1.8987,-1.8987,-1.8987,-1.8987,-1.2793,-1.2779,-1.2711,-1.2391,-1.246,-1.2248,-1.0993,-1.0845,-1.0734,-0.9873,-0.9432,-0.9181,-0.9114,-0.9097,-0.9087,-0.9069,-0.9705,0.0,0.0,0.0,0.0,0.0,0.0,0.0,0.0,0.0,0.0,0.0,0.0,-1.1903,-1.2354,-1.2461,-1.2526,-1.2579,-1.2632,-1.2632,-1.2579,-1.2843,-1.2931,-1.2826,-1.2561,-1.2546,-1.2785,-1.3728,-1.4245,-1.4419,-1.4901,-1.5108,-1.5108,-1.5108,-1.5165,-1.5267,-1.5289,-1.5447,-1.5649,-1.5693,-1.5738,-1.577,-1.5792,-1.5792,-1.5792,-1.5792,-1.5792,-1.5792,-1.5792,-1.5792,-1.5792,-1.5792,-1.5792,-1.5792,-1.5792,-1.5792,-1.59,-1.6367,-1.6871,-1.7423,-1.8061,-1.8614,-1.8963,-1.8867,-1.8855,-1.8855,-1.8855,-1.8927,-1.8987,-1.8987,-1.8987,-1.8987,-1.8987,-1.8987,-1.8987,-1.8987,-1.8987,-1.8987,-1.8987,-1.8987,-1.8987,-1.8987,-1.8987,-1.8987,-1.8987,-1.8987,-1.8987,-1.8987,-1.8987,-1.8939,-1.8855,-1.8939,-1.8987,-1.8987,-1.8987,-1.8987,-1.2296,-1.2299,-1.2391,-1.2711,-1.246,-1.1939,-1.1352,-1.0842,-1.0337,-0.9819,-0.9669,-0.9513,-0.9152,-0.9097,-0.9059,-0.894,-0.9408,0.0,0.0,0.0,0.0,0.0,0.0,0.0,0.0,0.0,0.0,0.0,-1.1382,-1.1518,-1.1871,-1.2288,-1.2615,-1.2843,-1.3121,-1.3151,-1.2843,-1.3173,-1.3069,-1.2561,-1.2282,-1.2166,-1.224,-1.282,-1.3578,-1.4419,-1.4901,-1.5108,-1.5108,-1.5108,-1.5108,-1.5131,-1.5255,-1.5335,-1.538,-1.5604,-1.5715,-1.5715,-1.577,-1.5792,-1.5792,-1.5792,-1.5792,-1.5792,-1.5792,-1.5792,-1.5792,-1.5792,-1.5792,-1.5792,-1.5792,-1.5792,-1.5816,-1.5876,-1.6331,-1.6979,-1.7989,-1.8614,-1.8855,-1.8398,-1.8301,-1.8301,-1.8301,-1.8686,-1.8987,-1.8987,-1.8987,-1.8987,-1.8987,-1.8987,-1.8987,-1.8987,-1.8987,-1.8987,-1.8987,-1.8987,-1.8987,-1.8987,-1.8987,-1.8987,-1.8987,-1.8987,-1.8987,-1.8987,-1.8987,-1.8758,-1.8301,-1.877,-1.8987,-1.8987,-1.8987,-1.8987,-1.2191,-1.2378,-1.2584,-1.2517,-1.2305,-1.1933,-1.1176,-1.0759,-1.0362,-0.9868,-0.9902,-0.9857,-0.9217,-0.9282,-0.9322,-0.8967,-0.9662,0.0,0.0,0.0,0.0,0.0,0.0,0.0,0.0,0.0,0.0,0.0,-1.1367,-1.1512,-1.2375,-1.236,-1.2577,-1.3173,-1.3151,-1.3052,-1.2896,-1.3052,-1.2913,-1.2508,-1.2383,-1.2258,-1.2118,-1.2666,-1.3279,-1.3971,-1.4488,-1.4855,-1.5108,-1.5108,-1.5108,-1.5108,-1.5165,-1.5233,-1.5335,-1.5525,-1.5637,-1.5715,-1.577,-1.5792,-1.5792,-1.5792,-1.5792,-1.5792,-1.5792,-1.5792,-1.5792,-1.5792,-1.5792,-1.5792,-1.5792,-1.5792,-1.5792,-1.5792,-1.6223,-1.6727,-1.7195,-1.7712,-1.8037,-1.7808,-1.8001,-1.8205,-1.8205,-1.8638,-1.8987,-1.8987,-1.8987,-1.8987,-1.8987,-1.8987,-1.8987,-1.8987,-1.8987,-1.8987,-1.8987,-1.8987,-1.8987,-1.8987,-1.8987,-1.8987,-1.8987,-1.8987,-1.8987,-1.8987,-1.8987,-1.8867,-1.865,-1.8879,-1.8987,-1.8987,-1.8987,-1.8987,-1.2212,-1.2469,-1.2701,-1.259,-1.2376,-1.2034,-1.1439,-1.0943,-1.0501,0.0,-1.0224,-1.0147,-0.9648,-0.9717,-0.9669,-0.9124,-0.9993,0.0,0.0,0.0,0.0,0.0,0.0,0.0,0.0,0.0,0.0,0.0,-1.1329,-1.1415,-1.2163,-1.2328,-1.2602,-1.3078,-1.3127,-1.3064,-1.2896,-1.2826,-1.2703,-1.2508,-1.2437,-1.2282,-1.2107,-1.2509,-1.2958,-1.3463,-1.396,-1.4465,-1.4924,-1.4924,-1.4993,-1.5108,-1.5108,-1.5165,-1.5255,-1.5424,-1.5558,-1.5659,-1.577,-1.5792,-1.5792,-1.5792,-1.5792,-1.5792,-1.5792,-1.5792,-1.5792,-1.5792,-1.5792,-1.5792,-1.5792,-1.5792,-1.5792,-1.5792,-1.6114,-1.6475,-1.6739,-1.7003,-1.7231,-1.7363,-1.7724,-1.8049,-1.8181,-1.8638,-1.8987,-1.8987,-1.8987,-1.8987,-1.8987,-1.8987,-1.8987,-1.8987,-1.8987,-1.8987,-1.8987,-1.8987,-1.8987,-1.8987,-1.8987,-1.8987,-1.8987,-1.8987,-1.8987,-1.8987,-1.8987,-1.8987,-1.8987,-1.8987,-1.8987,-1.8987,-1.8987,-1.8987,-1.2201,-1.2222,-1.2425,-1.3304,-1.2866,-1.2299,-1.2629,-1.1603,-1.069,-1.0971,-1.0646,-1.0409,-1.0733,-1.0505,-1.0064,-0.9462,-1.0234,0.0,0.0,0.0,0.0,0.0,0.0,0.0,0.0,0.0,0.0,0.0,-1.1055,-1.1013,-1.0364,-1.194,-1.2677,-1.2279,-1.324,-1.3489,-1.2908,-1.265,-1.2508,-1.2508,-1.2228,-1.2113,-1.2095,-1.2118,-1.2429,-1.2958,-1.344,-1.3937,-1.4452,-1.4452,-1.4695,-1.5108,-1.5108,-1.5108,-1.5131,-1.5401,-1.5491,-1.5536,-1.5726,-1.5792,-1.5792,-1.5792,-1.5792,-1.5792,-1.5792,-1.5792,-1.5792,-1.5792,-1.5792,-1.5792,-1.5792,-1.5792,-1.5792,-1.5792,-1.5816,-1.6126,-1.7135,-1.6979,-1.6787,-1.7291,-1.7411,-1.7616,-1.8109,-1.8638,-1.8987,-1.8987,-1.8987,-1.8987,-1.8987,-1.8987,-1.8987,-1.8987,-1.8987,-1.8987,-1.8987,-1.8987,-1.8987,-1.8987,-1.8987,-1.8987,-1.8987,-1.8987,-1.8987,-1.8987,-1.8987,-1.8987,-1.8987,-1.8987,-1.8987,-1.8987,-1.8987,-1.8987,-1.1767,-1.2223,-1.2858,-1.3441,-1.3381,-1.3118,-1.296,-1.2484,-1.1892,-1.1287,-1.1416,-1.157,-1.1327,-1.1171,-1.0884,-1.0331,0.0,0.0,0.0,0.0,0.0,0.0,0.0,0.0,0.0,0.0,0.0,0.0,0.0,0.0,-1.1204,-1.1195,-1.1478,-1.2188,-1.258,-1.2726,-1.265,-1.2383,-1.2228,-1.2228,-1.215,-1.2095,-1.2095,-1.2095,-1.2199,-1.2394,-1.2567,-1.3314,-1.4396,-1.4396,-1.4683,-1.5108,-1.5108,-1.5108,-1.5131,-1.5401,-1.5491,-1.5536,-1.5726,-1.5792,-1.5792,-1.5792,-1.5792,-1.5792,-1.5792,-1.5792,-1.5792,-1.5792,-1.5792,-1.5792,-1.5792,-1.5792,-1.5792,-1.5792,-1.5792,-1.5922,-1.6295,-1.6235,-1.6259,-1.6787,-1.7159,-1.758,-1.8109,-1.8638,-1.8987,-1.8987,-1.8987,-1.8987,-1.8987,-1.8987,-1.8987,-1.8987,-1.8987,-1.8987,-1.8987,-1.8987,-1.8987,-1.8987,-1.8987,-1.8987,-1.8987,-1.8987,-1.8987,-1.8987,-1.8987,-1.8987,-1.8987,-1.8987,-1.8987,-1.8987,-1.8987,-1.8987,-1.1386,-1.1908,-1.2707,-1.3443,-1.3542,-1.3518,-1.3657,-1.339,-1.2914,-1.2278,-1.2286,-1.2313,-1.2012,-1.1812,-1.1526,-1.1003,0.0,0.0,0.0,0.0,0.0,0.0,0.0,0.0,0.0,0.0,0.0,0.0,0.0,0.0,-1.1383,-1.1216,-1.1498,-1.2411,-1.2356,-1.2358,-1.2496,-1.224,-1.2095,-1.2095,-1.2095,-1.2095,-1.2095,-1.2095,-1.2095,-1.2095,-1.2095,-1.2877,-1.4121,-1.4121,-1.4511,-1.5108,-1.5108,-1.5108,-1.5131,-1.5401,-1.5491,-1.5536,-1.5726,-1.5792,-1.5792,-1.5792,-1.5792,-1.5792,-1.5792,-1.5792,-1.5792,-1.5792,-1.5792,-1.5792,-1.5792,-1.5792,-1.5792,-1.5792,-1.5792,-1.5792,-1.5792,-1.5792,-1.6018,-1.6727,-1.7159,-1.764,-1.835,-1.8758,-1.8987,-1.8987,-1.8987,-1.8987,-1.8987,-1.8987,-1.8987,-1.8987,-1.8987,-1.8987,-1.8987,-1.8987,-1.8987,-1.8987,-1.8987,-1.8987,-1.8987,-1.8987,-1.8987,-1.8987,-1.8987,-1.8987,-1.8987,-1.8987,-1.8987,-1.8987,-1.8987,-1.8891,0.0,0.0,0.0,-1.3313,-1.3342,-1.3381,-1.4744,0.0,-1.3631,-1.3948,-1.3167,-1.2544,-1.2873,-1.2493,-1.1957,-1.1429,0.0,0.0,0.0,0.0,0.0,0.0,0.0,0.0,0.0,0.0,0.0,0.0,0.0,-1.1924,-1.0693,-1.2027,-1.2829,-1.2817,-1.2584,-1.2455,-1.2461,-1.2216,-1.2084,-1.2072,-1.2084,-1.2095,-1.2095,-1.2095,-1.2095,-1.2095,-1.2095,-1.2659,-1.357,-1.357,-1.4167,-1.5085,-1.5085,-1.5096,-1.5131,-1.5401,-1.5491,-1.5536,-1.5726,-1.5792,-1.5792,-1.5792,-1.5792,-1.5792,-1.5792,-1.5792,-1.5792,-1.5792,-1.5792,-1.5792,-1.5792,-1.5792,-1.5792,-1.5792,-1.5792,-1.5792,-1.5792,-1.5792,-1.6126,-1.7183,-1.7399,-1.7772,-1.8806,-1.8987,-1.8987,-1.8987,-1.8987,-1.8987,-1.8987,-1.8987,-1.8987,-1.8987,-1.8987,-1.8987,-1.8987,-1.8987,-1.8987,-1.8987,-1.8987,-1.8987,-1.8987,-1.8987,-1.8987,-1.8987,-1.8987,-1.8987,-1.8987,-1.8987,-1.8987,-1.8963,-1.8951,-1.8662,-1.1136,0.0,0.0,0.0,0.0,0.0,0.0,0.0,-1.4078,-1.4131,-1.3792,-1.3526,-1.3661,-1.3132,-1.2643,-1.2549,0.0,0.0,0.0,0.0,0.0,0.0,0.0,0.0,0.0,0.0,0.0,0.0,-1.1722,-1.148,-1.1119,-1.1188,-1.1144,-1.0942,-1.1397,-1.1557,-1.1427,-1.1867,-1.1911,-1.1538,-1.1911,-1.2095,-1.2095,-1.2095,-1.2095,-1.2095,-1.2095,-1.2475,-1.3096,-1.3096,-1.3693,-1.4591,-1.4591,-1.4798,-1.5131,-1.5401,-1.5491,-1.5536,-1.5726,-1.5792,-1.5792,-1.5792,-1.5792,-1.5792,-1.5792,-1.5792,-1.5792,-1.5792,-1.5792,-1.5792,-1.5792,-1.5792,-1.5792,-1.5792,-1.5792,-1.5792,-1.5792,-1.5792,-1.6126,-1.7183,-1.7724,-1.8205,-1.8867,-1.8987,-1.8987,-1.8987,-1.8987,-1.8987,-1.8987,-1.8987,-1.8987,-1.8987,-1.8987,-1.8987,-1.8987,-1.8987,-1.8987,-1.8987,-1.8987,-1.8987,-1.8987,-1.8987,-1.8987,-1.8987,-1.8987,-1.8987,-1.8987,-1.8987,-1.8794,-1.841,-1.8025,-1.7772,-1.1377,-1.1581,-1.2106,-1.2488,0.0,0.0,-1.3828,-1.4,-1.4073,0.0,-1.4098,-1.403,-1.3988,-1.3645,-1.3368,-1.3396,0.0,0.0,0.0,0.0,0.0,0.0,0.0,0.0,0.0,-1.2095,0.0,-1.2095,-1.1908,-1.1722,-1.1512,-1.1122,-1.0729,-1.0387,-1.0775,-1.1057,-1.1115,-1.1543,-1.1721,-1.1641,-1.1946,-1.2095,-1.2095,-1.2095,-1.2095,-1.2095,-1.2095,-1.2286,-1.2574,-1.2574,-1.3291,-1.4396,-1.4396,-1.4683,-1.5131,-1.5345,-1.5446,-1.5513,-1.5703,-1.577,-1.5792,-1.5792,-1.5792,-1.5792,-1.5792,-1.5792,-1.5792,-1.5792,-1.5792,-1.5792,-1.5792,-1.5792,-1.5792,-1.5792,-1.5792,-1.5792,-1.5792,-1.5994,-1.6391,-1.7255,-1.7639,-1.8109,-1.8867,-1.8987,-1.8987,-1.8987,-1.8987,-1.8987,-1.8987,-1.8987,-1.8987,-1.8987,-1.8987,-1.8987,-1.8987,-1.8987,-1.8987,-1.8987,-1.8987,-1.8987,-1.8987,-1.8987,-1.8987,-1.8987,-1.8987,-1.8987,-1.8987,-1.8987,-1.8722,-1.8193,-1.7893,-1.7483,-1.1712,-1.1623,-1.1832,-1.2587,-1.2525,0.0,-1.3812,-1.3828,-1.3696,0.0,-1.4105,-1.4073,-1.3964,-1.3963,-1.3981,-1.3942,0.0,0.0,0.0,0.0,0.0,0.0,0.0,0.0,-1.2095,-1.2095,-1.2095,-1.2095,-1.2318,-1.2247,-1.1766,-1.1467,-1.1062,-1.0539,-1.0573,-1.0764,-1.113,-1.1245,-1.1549,-1.2003,-1.2061,-1.2095,-1.2095,-1.2048,-1.2029,-1.2041,-1.1986,-1.1993,-1.2029,-1.2029,-1.293,-1.4304,-1.4304,-1.4637,-1.5108,-1.5255,-1.5368,-1.5513,-1.5637,-1.5738,-1.5792,-1.5792,-1.5792,-1.5792,-1.5792,-1.5792,-1.5792,-1.5792,-1.5792,-1.5792,-1.5792,-1.5792,-1.5792,-1.5792,-1.5792,-1.5792,-1.5792,-1.6164,-1.6691,-1.7279,-1.746,-1.782,-1.8819,-1.8987,-1.8987,-1.8987,-1.8987,-1.8987,-1.8987,-1.8987,-1.8987,-1.8987,-1.8987,-1.8987,-1.8987,-1.8987,-1.8987,-1.8987,-1.8987,-1.8987,-1.8987,-1.8987,-1.8987,-1.8987,-1.8987,-1.8987,-1.8987,-1.8939,-1.8662,-1.8205,-1.8085,-1.7495,-1.18,-1.1848,-1.1953,-1.1446,-1.1784,0.0,-1.2617,-1.28,-1.3046,0.0,-1.3549,-1.349,-1.3575,-1.3777,-1.3808,-1.35,0.0,0.0,0.0,0.0,0.0,0.0,0.0,0.0,-1.2095,-1.2095,-1.2095,-1.2095,-1.215,-1.1948,-1.1422,-1.1348,-1.089,-0.9988,-1.0362,-1.0447,-1.0103,-1.0901,-1.136,-1.1451,-1.19,-1.2095,-1.2095,-1.1756,-1.1627,-1.1608,-1.1274,-1.133,-1.1627,-1.1627,-1.2462,-1.3762,-1.3762,-1.4304,-1.5108,-1.5255,-1.5368,-1.5513,-1.5637,-1.5738,-1.5792,-1.5792,-1.5792,-1.5792,-1.5792,-1.5792,-1.5792,-1.5792,-1.5792,-1.5792,-1.5792,-1.5792,-1.5792,-1.5792,-1.5792,-1.5792,-1.5792,-1.5876,-1.6247,-1.7207,-1.776,-1.8253,-1.8879,-1.8987,-1.8987,-1.8987,-1.8987,-1.8987,-1.8987,-1.8987,-1.8987,-1.8987,-1.8987,-1.8987,-1.8987,-1.8987,-1.8987,-1.8987,-1.8987,-1.8987,-1.8987,-1.8987,-1.8987,-1.8987,-1.8987,-1.8987,-1.8987,-1.8566,-1.8301,-1.8181,-1.7303,-1.6799,-1.2367,-1.2406,-1.2441,-1.2002,-1.2242,0.0,0.0,-1.3084,-1.3329,-1.3798,-1.3859,-1.3819,-1.3888,-1.4009,-1.4034,-1.383,-1.3943,0.0,0.0,0.0,0.0,0.0,0.0,0.0,-1.2962,-1.2962,-1.2808,-1.2528,-1.2245,-1.1877,-1.1337,-1.1302,-1.0959,-1.0229,-1.047,-1.0569,-1.0546,-1.105,-1.1429,-1.1698,-1.1969,-1.1993,-1.1792,-1.159,-1.1386,-1.1199,-1.0992,-1.101,-1.1217,-1.1423,-1.2058,-1.2934,-1.3165,-1.3877,-1.4774,-1.4873,-1.5157,-1.5513,-1.5637,-1.5738,-1.5792,-1.5792,-1.5792,-1.5792,-1.5792,-1.5792,-1.5792,-1.5792,-1.5792,-1.5792,-1.5792,-1.5792,-1.5792,-1.5792,-1.5792,-1.5792,-1.5792,-1.5792,-1.6032,-1.6847,-1.7423,-1.8061,-1.8855,-1.8987,-1.8987,-1.8987,-1.8987,-1.8987,-1.8987,-1.8987,-1.8987,-1.8987,-1.8987,-1.8987,-1.8987,-1.8987,-1.8987,-1.8987,-1.8987,-1.8987,-1.8987,-1.8987,-1.8987,-1.8987,-1.8987,-1.8867,-1.8602,-1.8602,-1.8326,-1.7796,-1.7243,-1.6715,-1.2778,-1.2778,-1.2758,-1.267,-1.2819,-1.3042,0.0,0.0,0.0,-1.3728,-1.3947,0.0,0.0,0.0,0.0,0.0,0.0,0.0,0.0,0.0,0.0,0.0,0.0,0.0,0.0,-1.3839,-1.3636,-1.31,-1.2673,-1.2194,-1.1635,-1.16,-1.1337,-1.0741,-1.0729,-1.0913,-1.1302,-1.1302,-1.1572,-1.2095,-1.2095,-1.1884,-1.1497,-1.1423,-1.1161,-1.0783,-1.0697,-1.0706,-1.0802,-1.1142,-1.1537,-1.2021,-1.2649,-1.3452,-1.4268,-1.4423,-1.4843,-1.5384,-1.5579,-1.5726,-1.5792,-1.5792,-1.5792,-1.5792,-1.5792,-1.5792,-1.5792,-1.5792,-1.5792,-1.5792,-1.5792,-1.5792,-1.5792,-1.5792,-1.5792,-1.5792,-1.5792,-1.5792,-1.5948,-1.6499,-1.7027,-1.7712,-1.8674,-1.8915,-1.8987,-1.8987,-1.8987,-1.8987,-1.8987,-1.8987,-1.8987,-1.8987,-1.8987,-1.8987,-1.8987,-1.8987,-1.8987,-1.8987,-1.8987,-1.8987,-1.8987,-1.8987,-1.8987,-1.8987,-1.8987,-1.8734,-1.8205,-1.8626,-1.835,-1.7387,-1.7387,-1.6883,-1.2281,0.0,0.0,0.0,-1.2335,0.0,0.0,0.0,-1.3238,-1.191,0.0,0.0,0.0,0.0,0.0,0.0,0.0,0.0,0.0,0.0,0.0,0.0,0.0,0.0,0.0,0.0,-1.3888,-1.3717,-1.3639,-1.3344,-1.2739,-1.2716,-1.2268,-1.1257,-1.1222,-1.1245,-1.1302,-1.1302,-1.1572,-1.2095,-1.2095,-1.1884,-1.1497,-1.1124,-1.0755,-1.0341,-0.998,-1.0039,-1.038,-1.0409,-1.069,-1.1174,-1.2406,-1.3222,-1.3762,-1.4234,-1.458,-1.4846,-1.536,-1.5637,-1.5792,-1.5792,-1.5792,-1.5792,-1.5792,-1.5792,-1.5792,-1.5792,-1.5792,-1.5792,-1.5792,-1.5792,-1.5792,-1.5792,-1.5792,-1.5792,-1.5792,-1.5792,-1.5948,-1.6499,-1.7027,-1.7579,-1.8193,-1.8686,-1.8987,-1.8987,-1.8987,-1.8987,-1.8987,-1.8987,-1.8987,-1.8987,-1.8987,-1.8987,-1.8987,-1.8987,-1.8987,-1.8987,-1.8987,-1.8987,-1.8987,-1.8987,-1.8987,-1.8987,-1.8987,-1.8734,-1.8205,-1.8265,-1.7989,-1.7387,-1.7387,-1.7075,0.0,0.0,0.0,0.0,0.0,0.0,-1.3055,0.0,-1.3543,0.0,0.0,0.0,0.0,0.0,0.0,0.0,-1.3336,0.0,0.0,0.0,0.0,0.0,0.0,0.0,0.0,0.0,0.0,0.0,0.0,-1.3665,-1.3314,-1.305,-1.2693,-1.2238,-1.1934,-1.1756,-1.1756,-1.1543,-1.1536,-1.1756,-1.1516,-1.1199,-1.0812,-1.064,-1.0322,-0.995,-0.9773,-0.9802,-0.9961,-1.0205,-1.039,-1.0622,-1.1423,-1.204,-1.2518,-1.3125,-1.3788,-1.4441,-1.5058,-1.5491,-1.5792,-1.5792,-1.5792,-1.5792,-1.5792,-1.5792,-1.5792,-1.5792,-1.5792,-1.5792,-1.5792,-1.5792,-1.5792,-1.5792,-1.5792,-1.5792,-1.5792,-1.5792,-1.5886,-1.608,-1.6571,-1.7099,-1.7652,-1.8434,-1.8987,-1.8987,-1.8987,-1.8987,-1.8987,-1.8987,-1.8987,-1.8987,-1.8987,-1.8987,-1.8987,-1.8987,-1.8855,-1.8554,-1.853,-1.853,-1.853,-1.853,-1.8386,-1.8085,-1.8073,-1.782,-1.7267,-1.7567,-1.7291,-1.6487,-1.6787,-1.6655,-1.1633,0.0,0.0,0.0,0.0,0.0,0.0,0.0,0.0,0.0,0.0,0.0,0.0,0.0,0.0,-1.2716,0.0,-1.3143,0.0,0.0,0.0,0.0,0.0,0.0,0.0,0.0,0.0,0.0,0.0,0.0,-1.3843,-1.336,-1.3027,-1.29,-1.239,-1.2095,-1.2095,-1.17,-1.1497,-1.1497,-1.1086,-1.0697,-1.0303,-1.0303,-1.0078,-0.9703,-0.9703,-0.9703,-0.9723,-1.0019,-1.0137,-1.0147,-1.0458,-1.0774,-1.1186,-1.2057,-1.3029,-1.3987,-1.4496,-1.5071,-1.5637,-1.577,-1.5792,-1.5792,-1.5792,-1.5792,-1.5792,-1.5792,-1.5792,-1.5792,-1.5792,-1.5792,-1.5792,-1.5792,-1.5792,-1.5792,-1.5792,-1.5792,-1.5792,-1.5792,-1.6235,-1.6715,-1.7111,-1.7953,-1.8602,-1.8758,-1.865,-1.8554,-1.8554,-1.8554,-1.8614,-1.8758,-1.865,-1.8622,-1.8738,-1.8512,-1.8205,-1.7799,-1.7775,-1.7851,-1.7989,-1.7989,-1.7808,-1.7399,-1.7531,-1.7267,-1.6607,-1.7135,-1.6847,-1.5804,-1.6355,-1.6319,0.0,0.0,0.0,-1.1626,0.0,0.0,0.0,0.0,-1.392,0.0,0.0,0.0,0.0,0.0,-1.3312,-1.2776,-1.2704,0.0,0.0,0.0,0.0,0.0,0.0,0.0,0.0,0.0,0.0,0.0,0.0,0.0,-1.4406,-1.3857,-1.3371,-1.2912,-1.239,-1.2095,-1.2095,-1.17,-1.1497,-1.1497,-1.1086,-1.0697,-1.0303,-1.0303,-1.0078,-0.9703,-0.9703,-0.9703,-0.9703,-0.9723,-0.9723,-0.9723,-0.9742,-0.9752,-0.9917,-1.1317,-1.2487,-1.3435,-1.3532,-1.4239,-1.5198,-1.5659,-1.5792,-1.5792,-1.5792,-1.5792,-1.5792,-1.5792,-1.5792,-1.5792,-1.5792,-1.5792,-1.5792,-1.5792,-1.5792,-1.5792,-1.5792,-1.5792,-1.5792,-1.5792,-1.6235,-1.6607,-1.6619,-1.7075,-1.764,-1.8145,-1.7796,-1.746,-1.746,-1.746,-1.7664,-1.8169,-1.7772,-1.7643,-1.8093,-1.7286,-1.6783,-1.6734,-1.6734,-1.6958,-1.7423,-1.7436,-1.7436,-1.7387,-1.7917,-1.7639,-1.6607,-1.7135,-1.6847,-1.5804,-1.6355,-1.6319,0.0,0.0,-1.1222,-1.1506,0.0,0.0,0.0,0.0,0.0,0.0,0.0,0.0,0.0,-1.3658,-1.3445,-1.3264,-1.2938,-1.2709,0.0,0.0,0.0,0.0,0.0,0.0,0.0,0.0,0.0,0.0,-1.5413,0.0,0.0,-1.4396,-1.388,-1.3383,-1.2594,-1.2148,-1.2095,-1.118,-1.084,-1.1094,-1.0168,-0.9782,-0.9902,-0.9629,-0.9581,-0.9703,-0.9703,-0.9703,-0.9703,-0.9703,-0.9703,-0.9703,-0.9703,-0.9703,-0.9808,-1.0638,-1.1581,-1.2669,-1.4072,-1.4801,-1.5176,-1.5659,-1.5792,-1.5792,-1.5792,-1.5792,-1.5792,-1.5792,-1.5792,-1.5792,-1.5792,-1.5792,-1.5792,-1.5792,-1.5792,-1.5792,-1.5792,-1.5792,-1.5792,-1.5792,-1.5958,-1.6164,-1.6547,-1.6463,-1.6643,-1.7544,-1.7507,-1.7387,-1.7387,-1.7387,-1.7459,-1.7664,-1.7495,-1.7458,-1.7628,-1.6755,-1.6329,-1.6688,-1.6375,-1.6383,-1.6847,-1.6871,-1.6703,-1.6355,-1.6523,-1.6607,-1.6607,-1.6427,-1.6343,-1.6331,-1.6163,-1.596,-1.0537,-1.0703,0.0,-1.1281,-1.1467,0.0,-1.2462,0.0,0.0,0.0,0.0,0.0,0.0,0.0,-1.3662,-1.3276,-1.2926,-1.2709,0.0,-1.2999,0.0,0.0,0.0,-1.5081,0.0,0.0,-1.558,-1.5513,-1.5413,0.0,0.0,0.0,-1.408,-1.342,-1.2611,-1.2028,-1.1682,-1.0764,-1.0359,-1.0464,-0.9543,-0.9161,-0.9252,-0.9004,-0.9032,-0.928,-0.9418,-0.9492,-0.9491,-0.9638,-0.9703,-0.9703,-0.9703,-0.9703,-0.975,-1.011,-1.0897,-1.2076,-1.408,-1.48,-1.4892,-1.5379,-1.5659,-1.5792,-1.5792,-1.5792,-1.5792,-1.5792,-1.5792,-1.5792,-1.5792,-1.5792,-1.5792,-1.5792,-1.5792,-1.5792,-1.5792,-1.5792,-1.5792,-1.5792,-1.5792,-1.59,-1.6271,-1.602,-1.6102,-1.6979,-1.6943,-1.6835,-1.6835,-1.6835,-1.6895,-1.7087,-1.6943,-1.6752,-1.6587,-1.597,-1.5648,-1.5843,-1.5525,-1.5555,-1.6043,-1.6066,-1.5969,-1.5792,-1.5994,-1.6236,-1.6607,-1.6236,-1.6271,-1.6595,-1.5874,-1.5637]}]]